<?xml version="1.0" encoding="UTF-8" standalone="no" ?>
<gpx xmlns="http://www.topografix.com/GPX/1/1" xmlns:xsi="http://www.w3.org/2001/XMLSchema-instance" xsi:schemaLocation="http://www.topografix.com/GPX/1/1 http://www.topografix.com/GPX/1/1/gpx.xsd" version="1.1" creator="VisuGPX - https://www.visugpx.com">
  <metadata>
    <name>Le circuit des Cédres</name>
    <desc><![CDATA[Rando à voir.
Circuit des Cédres. Lacoste.]]></desc>
  </metadata>
  <wpt lat="43.79357" lon="5.26543">
    <ele>686.871094</ele>
    <name><![CDATA[Arche du Portalas]]></name>
    <desc><![CDATA[Arche du Portalas]]></desc>
    <cmt><![CDATA[Arche du Portalas]]></cmt>
  </wpt>
  <trk>
    <name><![CDATA[randogps84-499]]></name>
    <trkseg>
      <trkpt lat="43.81685" lon="5.26732">
        <ele>309.68</ele>
        <time>2019-01-25T09:10:55Z</time>
      </trkpt>
      <trkpt lat="43.81685" lon="5.26732">
        <ele>309.68</ele>
        <time>2019-01-25T09:11:04Z</time>
      </trkpt>
      <trkpt lat="43.81686" lon="5.26733">
        <ele>310.16</ele>
        <time>2019-01-25T09:11:27Z</time>
      </trkpt>
      <trkpt lat="43.81687" lon="5.26732">
        <ele>310.16</ele>
        <time>2019-01-25T09:11:45Z</time>
      </trkpt>
      <trkpt lat="43.81688" lon="5.26733">
        <ele>310.16</ele>
        <time>2019-01-25T09:11:59Z</time>
      </trkpt>
      <trkpt lat="43.81689" lon="5.26733">
        <ele>310.16</ele>
        <time>2019-01-25T09:12:17Z</time>
      </trkpt>
      <trkpt lat="43.8169" lon="5.26733">
        <ele>310.16</ele>
        <time>2019-01-25T09:12:38Z</time>
      </trkpt>
      <trkpt lat="43.8169" lon="5.26733">
        <ele>310.64</ele>
        <time>2019-01-25T09:12:59Z</time>
      </trkpt>
      <trkpt lat="43.81689" lon="5.26731">
        <ele>310.16</ele>
        <time>2019-01-25T09:13:15Z</time>
      </trkpt>
      <trkpt lat="43.81681" lon="5.26729">
        <ele>310.64</ele>
        <time>2019-01-25T09:13:27Z</time>
      </trkpt>
      <trkpt lat="43.8168" lon="5.2673">
        <ele>310.64</ele>
        <time>2019-01-25T09:13:28Z</time>
      </trkpt>
      <trkpt lat="43.81673" lon="5.2673">
        <ele>311.6</ele>
        <time>2019-01-25T09:13:40Z</time>
      </trkpt>
      <trkpt lat="43.81674" lon="5.2673">
        <ele>312.09</ele>
        <time>2019-01-25T09:13:57Z</time>
      </trkpt>
      <trkpt lat="43.81674" lon="5.26729">
        <ele>311.6</ele>
        <time>2019-01-25T09:14:12Z</time>
      </trkpt>
      <trkpt lat="43.81674" lon="5.26729">
        <ele>312.09</ele>
        <time>2019-01-25T09:14:30Z</time>
      </trkpt>
      <trkpt lat="43.81675" lon="5.26729">
        <ele>311.6</ele>
        <time>2019-01-25T09:14:47Z</time>
      </trkpt>
      <trkpt lat="43.81676" lon="5.26729">
        <ele>312.09</ele>
        <time>2019-01-25T09:15:13Z</time>
      </trkpt>
      <trkpt lat="43.81675" lon="5.26729">
        <ele>312.09</ele>
        <time>2019-01-25T09:15:43Z</time>
      </trkpt>
      <trkpt lat="43.81672" lon="5.2673">
        <ele>312.57</ele>
        <time>2019-01-25T09:15:55Z</time>
      </trkpt>
      <trkpt lat="43.81671" lon="5.26735">
        <ele>313.05</ele>
        <time>2019-01-25T09:16:03Z</time>
      </trkpt>
      <trkpt lat="43.81671" lon="5.26737">
        <ele>313.53</ele>
        <time>2019-01-25T09:16:07Z</time>
      </trkpt>
      <trkpt lat="43.8167" lon="5.26739">
        <ele>314.01</ele>
        <time>2019-01-25T09:16:09Z</time>
      </trkpt>
      <trkpt lat="43.81669" lon="5.26741">
        <ele>314.01</ele>
        <time>2019-01-25T09:16:10Z</time>
      </trkpt>
      <trkpt lat="43.81668" lon="5.26745">
        <ele>314.97</ele>
        <time>2019-01-25T09:16:17Z</time>
      </trkpt>
      <trkpt lat="43.81668" lon="5.26752">
        <ele>315.93</ele>
        <time>2019-01-25T09:16:25Z</time>
      </trkpt>
      <trkpt lat="43.81667" lon="5.26758">
        <ele>316.89</ele>
        <time>2019-01-25T09:16:30Z</time>
      </trkpt>
      <trkpt lat="43.81669" lon="5.26762">
        <ele>317.37</ele>
        <time>2019-01-25T09:16:34Z</time>
      </trkpt>
      <trkpt lat="43.81669" lon="5.26763">
        <ele>317.37</ele>
        <time>2019-01-25T09:16:38Z</time>
      </trkpt>
      <trkpt lat="43.81668" lon="5.26767">
        <ele>318.33</ele>
        <time>2019-01-25T09:16:42Z</time>
      </trkpt>
      <trkpt lat="43.81666" lon="5.2677">
        <ele>318.81</ele>
        <time>2019-01-25T09:16:44Z</time>
      </trkpt>
      <trkpt lat="43.81665" lon="5.26772">
        <ele>318.81</ele>
        <time>2019-01-25T09:16:45Z</time>
      </trkpt>
      <trkpt lat="43.81665" lon="5.26773">
        <ele>319.3</ele>
        <time>2019-01-25T09:16:46Z</time>
      </trkpt>
      <trkpt lat="43.81661" lon="5.26784">
        <ele>319.78</ele>
        <time>2019-01-25T09:16:56Z</time>
      </trkpt>
      <trkpt lat="43.81657" lon="5.26792">
        <ele>320.74</ele>
        <time>2019-01-25T09:17:10Z</time>
      </trkpt>
      <trkpt lat="43.81657" lon="5.26796">
        <ele>320.74</ele>
        <time>2019-01-25T09:17:13Z</time>
      </trkpt>
      <trkpt lat="43.81656" lon="5.26798">
        <ele>321.22</ele>
        <time>2019-01-25T09:17:16Z</time>
      </trkpt>
      <trkpt lat="43.81656" lon="5.268">
        <ele>321.22</ele>
        <time>2019-01-25T09:17:17Z</time>
      </trkpt>
      <trkpt lat="43.81656" lon="5.26802">
        <ele>321.22</ele>
        <time>2019-01-25T09:17:18Z</time>
      </trkpt>
      <trkpt lat="43.81655" lon="5.26812">
        <ele>323.14</ele>
        <time>2019-01-25T09:17:29Z</time>
      </trkpt>
      <trkpt lat="43.81655" lon="5.26814">
        <ele>323.14</ele>
        <time>2019-01-25T09:17:30Z</time>
      </trkpt>
      <trkpt lat="43.81654" lon="5.26816">
        <ele>323.14</ele>
        <time>2019-01-25T09:17:31Z</time>
      </trkpt>
      <trkpt lat="43.81652" lon="5.26823">
        <ele>323.62</ele>
        <time>2019-01-25T09:17:36Z</time>
      </trkpt>
      <trkpt lat="43.8165" lon="5.26829">
        <ele>325.06</ele>
        <time>2019-01-25T09:17:42Z</time>
      </trkpt>
      <trkpt lat="43.81649" lon="5.26833">
        <ele>326.02</ele>
        <time>2019-01-25T09:17:49Z</time>
      </trkpt>
      <trkpt lat="43.81648" lon="5.26837">
        <ele>326.02</ele>
        <time>2019-01-25T09:17:51Z</time>
      </trkpt>
      <trkpt lat="43.81644" lon="5.26846">
        <ele>326.02</ele>
        <time>2019-01-25T09:18:06Z</time>
      </trkpt>
      <trkpt lat="43.81643" lon="5.26845">
        <ele>325.54</ele>
        <time>2019-01-25T09:18:18Z</time>
      </trkpt>
      <trkpt lat="43.81647" lon="5.26831">
        <ele>323.62</ele>
        <time>2019-01-25T09:18:31Z</time>
      </trkpt>
      <trkpt lat="43.81648" lon="5.26819">
        <ele>322.18</ele>
        <time>2019-01-25T09:18:40Z</time>
      </trkpt>
      <trkpt lat="43.81649" lon="5.26817">
        <ele>321.7</ele>
        <time>2019-01-25T09:18:41Z</time>
      </trkpt>
      <trkpt lat="43.81649" lon="5.2681">
        <ele>320.74</ele>
        <time>2019-01-25T09:18:46Z</time>
      </trkpt>
      <trkpt lat="43.8165" lon="5.26809">
        <ele>320.74</ele>
        <time>2019-01-25T09:18:47Z</time>
      </trkpt>
      <trkpt lat="43.8165" lon="5.26803">
        <ele>320.74</ele>
        <time>2019-01-25T09:18:55Z</time>
      </trkpt>
      <trkpt lat="43.81656" lon="5.26789">
        <ele>318.81</ele>
        <time>2019-01-25T09:19:07Z</time>
      </trkpt>
      <trkpt lat="43.81657" lon="5.26783">
        <ele>318.81</ele>
        <time>2019-01-25T09:19:11Z</time>
      </trkpt>
      <trkpt lat="43.81658" lon="5.26781">
        <ele>318.33</ele>
        <time>2019-01-25T09:19:12Z</time>
      </trkpt>
      <trkpt lat="43.81659" lon="5.26763">
        <ele>316.41</ele>
        <time>2019-01-25T09:19:26Z</time>
      </trkpt>
      <trkpt lat="43.81663" lon="5.2674">
        <ele>314.97</ele>
        <time>2019-01-25T09:19:41Z</time>
      </trkpt>
      <trkpt lat="43.81663" lon="5.26737">
        <ele>314.97</ele>
        <time>2019-01-25T09:19:43Z</time>
      </trkpt>
      <trkpt lat="43.81658" lon="5.26732">
        <ele>314.97</ele>
        <time>2019-01-25T09:19:50Z</time>
      </trkpt>
      <trkpt lat="43.81658" lon="5.26729">
        <ele>314.97</ele>
        <time>2019-01-25T09:19:51Z</time>
      </trkpt>
      <trkpt lat="43.81656" lon="5.26723">
        <ele>314.97</ele>
        <time>2019-01-25T09:19:54Z</time>
      </trkpt>
      <trkpt lat="43.81656" lon="5.2672">
        <ele>314.97</ele>
        <time>2019-01-25T09:20:13Z</time>
      </trkpt>
      <trkpt lat="43.81655" lon="5.26719">
        <ele>314.97</ele>
        <time>2019-01-25T09:20:15Z</time>
      </trkpt>
      <trkpt lat="43.81653" lon="5.26718">
        <ele>314.97</ele>
        <time>2019-01-25T09:20:17Z</time>
      </trkpt>
      <trkpt lat="43.81651" lon="5.26716">
        <ele>315.45</ele>
        <time>2019-01-25T09:20:19Z</time>
      </trkpt>
      <trkpt lat="43.8164" lon="5.26712">
        <ele>316.89</ele>
        <time>2019-01-25T09:20:31Z</time>
      </trkpt>
      <trkpt lat="43.81633" lon="5.26709">
        <ele>317.85</ele>
        <time>2019-01-25T09:20:37Z</time>
      </trkpt>
      <trkpt lat="43.81627" lon="5.26705">
        <ele>318.33</ele>
        <time>2019-01-25T09:20:43Z</time>
      </trkpt>
      <trkpt lat="43.81621" lon="5.26701">
        <ele>318.81</ele>
        <time>2019-01-25T09:20:48Z</time>
      </trkpt>
      <trkpt lat="43.81612" lon="5.26698">
        <ele>320.74</ele>
        <time>2019-01-25T09:20:59Z</time>
      </trkpt>
      <trkpt lat="43.81602" lon="5.26697">
        <ele>322.18</ele>
        <time>2019-01-25T09:21:11Z</time>
      </trkpt>
      <trkpt lat="43.81596" lon="5.26695">
        <ele>323.14</ele>
        <time>2019-01-25T09:21:17Z</time>
      </trkpt>
      <trkpt lat="43.81586" lon="5.26694">
        <ele>325.06</ele>
        <time>2019-01-25T09:21:30Z</time>
      </trkpt>
      <trkpt lat="43.81585" lon="5.26694">
        <ele>325.06</ele>
        <time>2019-01-25T09:21:31Z</time>
      </trkpt>
      <trkpt lat="43.81576" lon="5.26692">
        <ele>326.5</ele>
        <time>2019-01-25T09:21:42Z</time>
      </trkpt>
      <trkpt lat="43.81568" lon="5.26692">
        <ele>327.95</ele>
        <time>2019-01-25T09:21:53Z</time>
      </trkpt>
      <trkpt lat="43.81556" lon="5.26692">
        <ele>329.87</ele>
        <time>2019-01-25T09:22:06Z</time>
      </trkpt>
      <trkpt lat="43.81554" lon="5.2669">
        <ele>330.35</ele>
        <time>2019-01-25T09:22:09Z</time>
      </trkpt>
      <trkpt lat="43.81546" lon="5.26689">
        <ele>331.79</ele>
        <time>2019-01-25T09:22:19Z</time>
      </trkpt>
      <trkpt lat="43.81542" lon="5.26686">
        <ele>333.23</ele>
        <time>2019-01-25T09:22:29Z</time>
      </trkpt>
      <trkpt lat="43.81535" lon="5.26684">
        <ele>335.16</ele>
        <time>2019-01-25T09:22:39Z</time>
      </trkpt>
      <trkpt lat="43.81528" lon="5.26688">
        <ele>336.6</ele>
        <time>2019-01-25T09:22:51Z</time>
      </trkpt>
      <trkpt lat="43.81519" lon="5.26693">
        <ele>339.48</ele>
        <time>2019-01-25T09:23:04Z</time>
      </trkpt>
      <trkpt lat="43.81512" lon="5.26694">
        <ele>340.92</ele>
        <time>2019-01-25T09:23:15Z</time>
      </trkpt>
      <trkpt lat="43.81501" lon="5.26701">
        <ele>343.33</ele>
        <time>2019-01-25T09:23:29Z</time>
      </trkpt>
      <trkpt lat="43.81497" lon="5.26704">
        <ele>344.29</ele>
        <time>2019-01-25T09:23:40Z</time>
      </trkpt>
      <trkpt lat="43.81493" lon="5.26705">
        <ele>345.25</ele>
        <time>2019-01-25T09:23:47Z</time>
      </trkpt>
      <trkpt lat="43.81485" lon="5.26712">
        <ele>348.13</ele>
        <time>2019-01-25T09:23:59Z</time>
      </trkpt>
      <trkpt lat="43.81482" lon="5.26704">
        <ele>348.62</ele>
        <time>2019-01-25T09:24:15Z</time>
      </trkpt>
      <trkpt lat="43.81481" lon="5.26694">
        <ele>350.54</ele>
        <time>2019-01-25T09:24:26Z</time>
      </trkpt>
      <trkpt lat="43.8148" lon="5.26686">
        <ele>351.98</ele>
        <time>2019-01-25T09:24:39Z</time>
      </trkpt>
      <trkpt lat="43.8148" lon="5.26676">
        <ele>353.42</ele>
        <time>2019-01-25T09:24:54Z</time>
      </trkpt>
      <trkpt lat="43.81478" lon="5.26666">
        <ele>355.83</ele>
        <time>2019-01-25T09:25:07Z</time>
      </trkpt>
      <trkpt lat="43.81472" lon="5.26659">
        <ele>357.75</ele>
        <time>2019-01-25T09:25:21Z</time>
      </trkpt>
      <trkpt lat="43.81467" lon="5.26649">
        <ele>360.15</ele>
        <time>2019-01-25T09:25:35Z</time>
      </trkpt>
      <trkpt lat="43.81466" lon="5.26639">
        <ele>362.55</ele>
        <time>2019-01-25T09:25:50Z</time>
      </trkpt>
      <trkpt lat="43.81462" lon="5.2663">
        <ele>364.48</ele>
        <time>2019-01-25T09:26:03Z</time>
      </trkpt>
      <trkpt lat="43.8146" lon="5.26622">
        <ele>366.88</ele>
        <time>2019-01-25T09:26:21Z</time>
      </trkpt>
      <trkpt lat="43.81459" lon="5.26617">
        <ele>368.32</ele>
        <time>2019-01-25T09:26:38Z</time>
      </trkpt>
      <trkpt lat="43.81453" lon="5.2661">
        <ele>370.73</ele>
        <time>2019-01-25T09:26:53Z</time>
      </trkpt>
      <trkpt lat="43.81448" lon="5.26607">
        <ele>372.65</ele>
        <time>2019-01-25T09:27:04Z</time>
      </trkpt>
      <trkpt lat="43.81445" lon="5.26599">
        <ele>375.53</ele>
        <time>2019-01-25T09:27:19Z</time>
      </trkpt>
      <trkpt lat="43.81439" lon="5.26595">
        <ele>376.97</ele>
        <time>2019-01-25T09:27:31Z</time>
      </trkpt>
      <trkpt lat="43.81435" lon="5.26587">
        <ele>379.38</ele>
        <time>2019-01-25T09:27:44Z</time>
      </trkpt>
      <trkpt lat="43.81434" lon="5.26585">
        <ele>379.38</ele>
        <time>2019-01-25T09:27:47Z</time>
      </trkpt>
      <trkpt lat="43.81429" lon="5.26575">
        <ele>381.78</ele>
        <time>2019-01-25T09:28:00Z</time>
      </trkpt>
      <trkpt lat="43.81428" lon="5.26571">
        <ele>381.78</ele>
        <time>2019-01-25T09:28:05Z</time>
      </trkpt>
      <trkpt lat="43.81422" lon="5.26565">
        <ele>384.18</ele>
        <time>2019-01-25T09:28:19Z</time>
      </trkpt>
      <trkpt lat="43.81418" lon="5.26561">
        <ele>385.63</ele>
        <time>2019-01-25T09:28:31Z</time>
      </trkpt>
      <trkpt lat="43.8141" lon="5.26557">
        <ele>388.03</ele>
        <time>2019-01-25T09:28:45Z</time>
      </trkpt>
      <trkpt lat="43.81403" lon="5.26548">
        <ele>390.43</ele>
        <time>2019-01-25T09:28:57Z</time>
      </trkpt>
      <trkpt lat="43.81399" lon="5.26545">
        <ele>391.87</ele>
        <time>2019-01-25T09:29:10Z</time>
      </trkpt>
      <trkpt lat="43.81388" lon="5.26545">
        <ele>394.28</ele>
        <time>2019-01-25T09:29:25Z</time>
      </trkpt>
      <trkpt lat="43.81384" lon="5.26542">
        <ele>395.24</ele>
        <time>2019-01-25T09:29:34Z</time>
      </trkpt>
      <trkpt lat="43.81377" lon="5.26532">
        <ele>396.68</ele>
        <time>2019-01-25T09:29:46Z</time>
      </trkpt>
      <trkpt lat="43.81376" lon="5.26533">
        <ele>397.16</ele>
        <time>2019-01-25T09:29:48Z</time>
      </trkpt>
      <trkpt lat="43.81369" lon="5.26527">
        <ele>398.6</ele>
        <time>2019-01-25T09:30:02Z</time>
      </trkpt>
      <trkpt lat="43.81365" lon="5.26519">
        <ele>400.53</ele>
        <time>2019-01-25T09:30:16Z</time>
      </trkpt>
      <trkpt lat="43.81365" lon="5.26504">
        <ele>401.97</ele>
        <time>2019-01-25T09:30:30Z</time>
      </trkpt>
      <trkpt lat="43.81366" lon="5.26494">
        <ele>403.89</ele>
        <time>2019-01-25T09:30:40Z</time>
      </trkpt>
      <trkpt lat="43.81366" lon="5.26481">
        <ele>405.81</ele>
        <time>2019-01-25T09:30:54Z</time>
      </trkpt>
      <trkpt lat="43.81369" lon="5.26473">
        <ele>407.26</ele>
        <time>2019-01-25T09:31:08Z</time>
      </trkpt>
      <trkpt lat="43.8137" lon="5.26466">
        <ele>408.7</ele>
        <time>2019-01-25T09:31:32Z</time>
      </trkpt>
      <trkpt lat="43.81371" lon="5.26467">
        <ele>408.7</ele>
        <time>2019-01-25T09:31:50Z</time>
      </trkpt>
      <trkpt lat="43.81371" lon="5.26466">
        <ele>408.7</ele>
        <time>2019-01-25T09:32:11Z</time>
      </trkpt>
      <trkpt lat="43.81372" lon="5.26453">
        <ele>410.62</ele>
        <time>2019-01-25T09:32:27Z</time>
      </trkpt>
      <trkpt lat="43.81376" lon="5.26445">
        <ele>413.02</ele>
        <time>2019-01-25T09:32:41Z</time>
      </trkpt>
      <trkpt lat="43.8138" lon="5.26434">
        <ele>415.43</ele>
        <time>2019-01-25T09:32:55Z</time>
      </trkpt>
      <trkpt lat="43.81383" lon="5.26422">
        <ele>418.31</ele>
        <time>2019-01-25T09:33:09Z</time>
      </trkpt>
      <trkpt lat="43.81384" lon="5.26409">
        <ele>419.75</ele>
        <time>2019-01-25T09:33:23Z</time>
      </trkpt>
      <trkpt lat="43.81383" lon="5.26395">
        <ele>422.64</ele>
        <time>2019-01-25T09:33:40Z</time>
      </trkpt>
      <trkpt lat="43.81381" lon="5.26381">
        <ele>425.04</ele>
        <time>2019-01-25T09:33:55Z</time>
      </trkpt>
      <trkpt lat="43.81379" lon="5.2637">
        <ele>427.44</ele>
        <time>2019-01-25T09:34:10Z</time>
      </trkpt>
      <trkpt lat="43.81374" lon="5.26367">
        <ele>428.89</ele>
        <time>2019-01-25T09:34:24Z</time>
      </trkpt>
      <trkpt lat="43.8137" lon="5.2637">
        <ele>431.29</ele>
        <time>2019-01-25T09:34:36Z</time>
      </trkpt>
      <trkpt lat="43.81366" lon="5.26376">
        <ele>433.21</ele>
        <time>2019-01-25T09:34:49Z</time>
      </trkpt>
      <trkpt lat="43.81361" lon="5.26379">
        <ele>435.13</ele>
        <time>2019-01-25T09:35:02Z</time>
      </trkpt>
      <trkpt lat="43.81358" lon="5.26381">
        <ele>436.1</ele>
        <time>2019-01-25T09:35:08Z</time>
      </trkpt>
      <trkpt lat="43.81353" lon="5.26386">
        <ele>437.06</ele>
        <time>2019-01-25T09:35:24Z</time>
      </trkpt>
      <trkpt lat="43.8135" lon="5.26386">
        <ele>436.58</ele>
        <time>2019-01-25T09:35:47Z</time>
      </trkpt>
      <trkpt lat="43.8135" lon="5.26387">
        <ele>436.58</ele>
        <time>2019-01-25T09:36:12Z</time>
      </trkpt>
      <trkpt lat="43.8135" lon="5.26387">
        <ele>436.1</ele>
        <time>2019-01-25T09:36:48Z</time>
      </trkpt>
      <trkpt lat="43.81349" lon="5.26387">
        <ele>436.58</ele>
        <time>2019-01-25T09:37:21Z</time>
      </trkpt>
      <trkpt lat="43.81349" lon="5.26387">
        <ele>436.58</ele>
        <time>2019-01-25T09:37:58Z</time>
      </trkpt>
      <trkpt lat="43.81349" lon="5.26387">
        <ele>436.1</ele>
        <time>2019-01-25T09:38:25Z</time>
      </trkpt>
      <trkpt lat="43.81349" lon="5.26388">
        <ele>436.58</ele>
        <time>2019-01-25T09:38:54Z</time>
      </trkpt>
      <trkpt lat="43.81349" lon="5.26388">
        <ele>436.1</ele>
        <time>2019-01-25T09:39:30Z</time>
      </trkpt>
      <trkpt lat="43.81348" lon="5.26388">
        <ele>436.1</ele>
        <time>2019-01-25T09:39:50Z</time>
      </trkpt>
      <trkpt lat="43.81344" lon="5.26393">
        <ele>437.54</ele>
        <time>2019-01-25T09:40:05Z</time>
      </trkpt>
      <trkpt lat="43.8134" lon="5.26395">
        <ele>439.46</ele>
        <time>2019-01-25T09:40:19Z</time>
      </trkpt>
      <trkpt lat="43.81334" lon="5.264">
        <ele>440.9</ele>
        <time>2019-01-25T09:40:33Z</time>
      </trkpt>
      <trkpt lat="43.81334" lon="5.264">
        <ele>441.38</ele>
        <time>2019-01-25T09:40:34Z</time>
      </trkpt>
      <trkpt lat="43.81326" lon="5.26406">
        <ele>442.82</ele>
        <time>2019-01-25T09:40:49Z</time>
      </trkpt>
      <trkpt lat="43.81322" lon="5.26403">
        <ele>444.75</ele>
        <time>2019-01-25T09:41:07Z</time>
      </trkpt>
      <trkpt lat="43.81321" lon="5.264">
        <ele>446.19</ele>
        <time>2019-01-25T09:41:24Z</time>
      </trkpt>
      <trkpt lat="43.81319" lon="5.26392">
        <ele>448.11</ele>
        <time>2019-01-25T09:41:38Z</time>
      </trkpt>
      <trkpt lat="43.81316" lon="5.26385">
        <ele>449.07</ele>
        <time>2019-01-25T09:41:50Z</time>
      </trkpt>
      <trkpt lat="43.81311" lon="5.26379">
        <ele>450.03</ele>
        <time>2019-01-25T09:42:03Z</time>
      </trkpt>
      <trkpt lat="43.81302" lon="5.26373">
        <ele>452.44</ele>
        <time>2019-01-25T09:42:17Z</time>
      </trkpt>
      <trkpt lat="43.813" lon="5.2637">
        <ele>453.88</ele>
        <time>2019-01-25T09:42:31Z</time>
      </trkpt>
      <trkpt lat="43.81299" lon="5.26369">
        <ele>454.84</ele>
        <time>2019-01-25T09:42:44Z</time>
      </trkpt>
      <trkpt lat="43.81292" lon="5.26379">
        <ele>457.24</ele>
        <time>2019-01-25T09:42:58Z</time>
      </trkpt>
      <trkpt lat="43.81287" lon="5.26393">
        <ele>458.21</ele>
        <time>2019-01-25T09:43:12Z</time>
      </trkpt>
      <trkpt lat="43.81283" lon="5.26397">
        <ele>458.69</ele>
        <time>2019-01-25T09:43:16Z</time>
      </trkpt>
      <trkpt lat="43.81279" lon="5.26403">
        <ele>460.13</ele>
        <time>2019-01-25T09:43:29Z</time>
      </trkpt>
      <trkpt lat="43.81279" lon="5.26403">
        <ele>460.61</ele>
        <time>2019-01-25T09:43:30Z</time>
      </trkpt>
      <trkpt lat="43.81275" lon="5.26408">
        <ele>462.05</ele>
        <time>2019-01-25T09:43:43Z</time>
      </trkpt>
      <trkpt lat="43.81273" lon="5.2641">
        <ele>463.49</ele>
        <time>2019-01-25T09:43:57Z</time>
      </trkpt>
      <trkpt lat="43.8127" lon="5.26415">
        <ele>464.45</ele>
        <time>2019-01-25T09:44:09Z</time>
      </trkpt>
      <trkpt lat="43.81267" lon="5.2642">
        <ele>466.38</ele>
        <time>2019-01-25T09:44:22Z</time>
      </trkpt>
      <trkpt lat="43.81265" lon="5.26423">
        <ele>467.82</ele>
        <time>2019-01-25T09:44:36Z</time>
      </trkpt>
      <trkpt lat="43.81264" lon="5.26425">
        <ele>468.78</ele>
        <time>2019-01-25T09:44:49Z</time>
      </trkpt>
      <trkpt lat="43.8126" lon="5.26434">
        <ele>470.22</ele>
        <time>2019-01-25T09:45:01Z</time>
      </trkpt>
      <trkpt lat="43.8125" lon="5.26448">
        <ele>471.66</ele>
        <time>2019-01-25T09:45:13Z</time>
      </trkpt>
      <trkpt lat="43.81246" lon="5.26448">
        <ele>473.11</ele>
        <time>2019-01-25T09:45:29Z</time>
      </trkpt>
      <trkpt lat="43.81243" lon="5.26442">
        <ele>475.03</ele>
        <time>2019-01-25T09:45:44Z</time>
      </trkpt>
      <trkpt lat="43.8124" lon="5.26437">
        <ele>476.47</ele>
        <time>2019-01-25T09:46:00Z</time>
      </trkpt>
      <trkpt lat="43.81238" lon="5.26433">
        <ele>478.39</ele>
        <time>2019-01-25T09:46:14Z</time>
      </trkpt>
      <trkpt lat="43.81236" lon="5.26429">
        <ele>479.35</ele>
        <time>2019-01-25T09:46:29Z</time>
      </trkpt>
      <trkpt lat="43.8123" lon="5.26418">
        <ele>481.28</ele>
        <time>2019-01-25T09:46:44Z</time>
      </trkpt>
      <trkpt lat="43.81227" lon="5.26417">
        <ele>482.24</ele>
        <time>2019-01-25T09:46:57Z</time>
      </trkpt>
      <trkpt lat="43.81223" lon="5.26413">
        <ele>483.68</ele>
        <time>2019-01-25T09:47:15Z</time>
      </trkpt>
      <trkpt lat="43.81221" lon="5.26411">
        <ele>485.6</ele>
        <time>2019-01-25T09:47:29Z</time>
      </trkpt>
      <trkpt lat="43.81216" lon="5.26417">
        <ele>487.05</ele>
        <time>2019-01-25T09:47:44Z</time>
      </trkpt>
      <trkpt lat="43.81212" lon="5.26422">
        <ele>488.97</ele>
        <time>2019-01-25T09:47:59Z</time>
      </trkpt>
      <trkpt lat="43.81206" lon="5.26431">
        <ele>489.93</ele>
        <time>2019-01-25T09:48:14Z</time>
      </trkpt>
      <trkpt lat="43.81203" lon="5.26441">
        <ele>490.89</ele>
        <time>2019-01-25T09:48:24Z</time>
      </trkpt>
      <trkpt lat="43.81198" lon="5.26454">
        <ele>492.33</ele>
        <time>2019-01-25T09:48:37Z</time>
      </trkpt>
      <trkpt lat="43.81193" lon="5.26465">
        <ele>494.26</ele>
        <time>2019-01-25T09:48:55Z</time>
      </trkpt>
      <trkpt lat="43.8119" lon="5.26472">
        <ele>495.22</ele>
        <time>2019-01-25T09:49:09Z</time>
      </trkpt>
      <trkpt lat="43.81186" lon="5.2648">
        <ele>497.14</ele>
        <time>2019-01-25T09:49:24Z</time>
      </trkpt>
      <trkpt lat="43.81183" lon="5.26488">
        <ele>498.1</ele>
        <time>2019-01-25T09:49:36Z</time>
      </trkpt>
      <trkpt lat="43.81181" lon="5.26495">
        <ele>498.1</ele>
        <time>2019-01-25T09:49:49Z</time>
      </trkpt>
      <trkpt lat="43.81177" lon="5.26506">
        <ele>499.06</ele>
        <time>2019-01-25T09:50:01Z</time>
      </trkpt>
      <trkpt lat="43.81173" lon="5.26516">
        <ele>500.5</ele>
        <time>2019-01-25T09:50:13Z</time>
      </trkpt>
      <trkpt lat="43.81171" lon="5.26522">
        <ele>502.43</ele>
        <time>2019-01-25T09:50:30Z</time>
      </trkpt>
      <trkpt lat="43.81168" lon="5.26528">
        <ele>504.35</ele>
        <time>2019-01-25T09:50:44Z</time>
      </trkpt>
      <trkpt lat="43.81167" lon="5.26534">
        <ele>505.79</ele>
        <time>2019-01-25T09:50:56Z</time>
      </trkpt>
      <trkpt lat="43.81163" lon="5.26543">
        <ele>507.71</ele>
        <time>2019-01-25T09:51:09Z</time>
      </trkpt>
      <trkpt lat="43.81159" lon="5.26552">
        <ele>509.64</ele>
        <time>2019-01-25T09:51:22Z</time>
      </trkpt>
      <trkpt lat="43.81155" lon="5.26558">
        <ele>511.08</ele>
        <time>2019-01-25T09:51:36Z</time>
      </trkpt>
      <trkpt lat="43.81146" lon="5.26576">
        <ele>513.48</ele>
        <time>2019-01-25T09:51:51Z</time>
      </trkpt>
      <trkpt lat="43.81132" lon="5.266">
        <ele>514.44</ele>
        <time>2019-01-25T09:52:06Z</time>
      </trkpt>
      <trkpt lat="43.81131" lon="5.26601">
        <ele>514.44</ele>
        <time>2019-01-25T09:52:32Z</time>
      </trkpt>
      <trkpt lat="43.81131" lon="5.26602">
        <ele>514.44</ele>
        <time>2019-01-25T09:53:00Z</time>
      </trkpt>
      <trkpt lat="43.81131" lon="5.26603">
        <ele>514.44</ele>
        <time>2019-01-25T09:53:31Z</time>
      </trkpt>
      <trkpt lat="43.81131" lon="5.26603">
        <ele>513.96</ele>
        <time>2019-01-25T09:54:02Z</time>
      </trkpt>
      <trkpt lat="43.81132" lon="5.26604">
        <ele>514.92</ele>
        <time>2019-01-25T09:54:39Z</time>
      </trkpt>
      <trkpt lat="43.81132" lon="5.26604">
        <ele>514.92</ele>
        <time>2019-01-25T09:55:06Z</time>
      </trkpt>
      <trkpt lat="43.81132" lon="5.26603">
        <ele>514.44</ele>
        <time>2019-01-25T09:55:32Z</time>
      </trkpt>
      <trkpt lat="43.81132" lon="5.26603">
        <ele>514.44</ele>
        <time>2019-01-25T09:55:52Z</time>
      </trkpt>
      <trkpt lat="43.81132" lon="5.26603">
        <ele>514.92</ele>
        <time>2019-01-25T09:56:15Z</time>
      </trkpt>
      <trkpt lat="43.81132" lon="5.26604">
        <ele>514.92</ele>
        <time>2019-01-25T09:56:41Z</time>
      </trkpt>
      <trkpt lat="43.81132" lon="5.26604">
        <ele>514.92</ele>
        <time>2019-01-25T09:57:07Z</time>
      </trkpt>
      <trkpt lat="43.81132" lon="5.26604">
        <ele>515.4</ele>
        <time>2019-01-25T09:57:36Z</time>
      </trkpt>
      <trkpt lat="43.81132" lon="5.26604">
        <ele>515.88</ele>
        <time>2019-01-25T09:58:01Z</time>
      </trkpt>
      <trkpt lat="43.8113" lon="5.26607">
        <ele>517.33</ele>
        <time>2019-01-25T09:58:20Z</time>
      </trkpt>
      <trkpt lat="43.81127" lon="5.26614">
        <ele>518.29</ele>
        <time>2019-01-25T09:58:32Z</time>
      </trkpt>
      <trkpt lat="43.81122" lon="5.26623">
        <ele>520.21</ele>
        <time>2019-01-25T09:58:44Z</time>
      </trkpt>
      <trkpt lat="43.81119" lon="5.26627">
        <ele>521.65</ele>
        <time>2019-01-25T09:58:58Z</time>
      </trkpt>
      <trkpt lat="43.81115" lon="5.26634">
        <ele>524.06</ele>
        <time>2019-01-25T09:59:12Z</time>
      </trkpt>
      <trkpt lat="43.81103" lon="5.26649">
        <ele>524.54</ele>
        <time>2019-01-25T09:59:25Z</time>
      </trkpt>
      <trkpt lat="43.81101" lon="5.26643">
        <ele>526.46</ele>
        <time>2019-01-25T09:59:36Z</time>
      </trkpt>
      <trkpt lat="43.811" lon="5.26633">
        <ele>526.94</ele>
        <time>2019-01-25T09:59:49Z</time>
      </trkpt>
      <trkpt lat="43.81098" lon="5.26623">
        <ele>527.9</ele>
        <time>2019-01-25T09:59:59Z</time>
      </trkpt>
      <trkpt lat="43.81095" lon="5.26615">
        <ele>529.82</ele>
        <time>2019-01-25T10:00:14Z</time>
      </trkpt>
      <trkpt lat="43.81092" lon="5.26606">
        <ele>531.27</ele>
        <time>2019-01-25T10:00:26Z</time>
      </trkpt>
      <trkpt lat="43.8109" lon="5.26596">
        <ele>533.19</ele>
        <time>2019-01-25T10:00:43Z</time>
      </trkpt>
      <trkpt lat="43.81088" lon="5.26588">
        <ele>534.63</ele>
        <time>2019-01-25T10:01:01Z</time>
      </trkpt>
      <trkpt lat="43.81087" lon="5.26584">
        <ele>535.59</ele>
        <time>2019-01-25T10:01:16Z</time>
      </trkpt>
      <trkpt lat="43.81085" lon="5.26577">
        <ele>537.03</ele>
        <time>2019-01-25T10:01:30Z</time>
      </trkpt>
      <trkpt lat="43.81082" lon="5.2657">
        <ele>538.96</ele>
        <time>2019-01-25T10:01:44Z</time>
      </trkpt>
      <trkpt lat="43.8108" lon="5.2657">
        <ele>540.4</ele>
        <time>2019-01-25T10:01:58Z</time>
      </trkpt>
      <trkpt lat="43.81075" lon="5.26568">
        <ele>541.84</ele>
        <time>2019-01-25T10:02:13Z</time>
      </trkpt>
      <trkpt lat="43.8107" lon="5.26561">
        <ele>543.28</ele>
        <time>2019-01-25T10:02:26Z</time>
      </trkpt>
      <trkpt lat="43.81063" lon="5.2655">
        <ele>544.72</ele>
        <time>2019-01-25T10:02:40Z</time>
      </trkpt>
      <trkpt lat="43.8106" lon="5.26542">
        <ele>545.69</ele>
        <time>2019-01-25T10:02:51Z</time>
      </trkpt>
      <trkpt lat="43.81055" lon="5.26531">
        <ele>547.13</ele>
        <time>2019-01-25T10:03:04Z</time>
      </trkpt>
      <trkpt lat="43.81053" lon="5.26524">
        <ele>548.57</ele>
        <time>2019-01-25T10:03:18Z</time>
      </trkpt>
      <trkpt lat="43.81049" lon="5.26514">
        <ele>550.01</ele>
        <time>2019-01-25T10:03:34Z</time>
      </trkpt>
      <trkpt lat="43.81048" lon="5.26509">
        <ele>550.49</ele>
        <time>2019-01-25T10:03:45Z</time>
      </trkpt>
      <trkpt lat="43.81045" lon="5.26506">
        <ele>551.93</ele>
        <time>2019-01-25T10:03:59Z</time>
      </trkpt>
      <trkpt lat="43.81041" lon="5.265">
        <ele>553.86</ele>
        <time>2019-01-25T10:04:15Z</time>
      </trkpt>
      <trkpt lat="43.81035" lon="5.26493">
        <ele>554.34</ele>
        <time>2019-01-25T10:04:28Z</time>
      </trkpt>
      <trkpt lat="43.81027" lon="5.26489">
        <ele>555.78</ele>
        <time>2019-01-25T10:04:43Z</time>
      </trkpt>
      <trkpt lat="43.81016" lon="5.26486">
        <ele>557.22</ele>
        <time>2019-01-25T10:04:59Z</time>
      </trkpt>
      <trkpt lat="43.81004" lon="5.26478">
        <ele>559.14</ele>
        <time>2019-01-25T10:05:15Z</time>
      </trkpt>
      <trkpt lat="43.80998" lon="5.26482">
        <ele>561.55</ele>
        <time>2019-01-25T10:05:31Z</time>
      </trkpt>
      <trkpt lat="43.80994" lon="5.26487">
        <ele>562.99</ele>
        <time>2019-01-25T10:05:45Z</time>
      </trkpt>
      <trkpt lat="43.8099" lon="5.26494">
        <ele>565.39</ele>
        <time>2019-01-25T10:05:56Z</time>
      </trkpt>
      <trkpt lat="43.80986" lon="5.265">
        <ele>566.83</ele>
        <time>2019-01-25T10:06:08Z</time>
      </trkpt>
      <trkpt lat="43.80981" lon="5.26504">
        <ele>568.76</ele>
        <time>2019-01-25T10:06:22Z</time>
      </trkpt>
      <trkpt lat="43.80976" lon="5.26506">
        <ele>570.2</ele>
        <time>2019-01-25T10:06:36Z</time>
      </trkpt>
      <trkpt lat="43.80972" lon="5.2651">
        <ele>572.12</ele>
        <time>2019-01-25T10:06:49Z</time>
      </trkpt>
      <trkpt lat="43.80966" lon="5.26514">
        <ele>574.53</ele>
        <time>2019-01-25T10:07:03Z</time>
      </trkpt>
      <trkpt lat="43.80964" lon="5.26515">
        <ele>575.01</ele>
        <time>2019-01-25T10:07:08Z</time>
      </trkpt>
      <trkpt lat="43.80954" lon="5.26519">
        <ele>576.93</ele>
        <time>2019-01-25T10:07:23Z</time>
      </trkpt>
      <trkpt lat="43.8095" lon="5.26522">
        <ele>578.85</ele>
        <time>2019-01-25T10:07:38Z</time>
      </trkpt>
      <trkpt lat="43.80944" lon="5.26527">
        <ele>579.81</ele>
        <time>2019-01-25T10:07:45Z</time>
      </trkpt>
      <trkpt lat="43.80943" lon="5.26528">
        <ele>580.77</ele>
        <time>2019-01-25T10:07:49Z</time>
      </trkpt>
      <trkpt lat="43.80939" lon="5.26536">
        <ele>580.77</ele>
        <time>2019-01-25T10:08:02Z</time>
      </trkpt>
      <trkpt lat="43.80938" lon="5.26537">
        <ele>580.29</ele>
        <time>2019-01-25T10:08:28Z</time>
      </trkpt>
      <trkpt lat="43.80938" lon="5.26538">
        <ele>580.29</ele>
        <time>2019-01-25T10:08:50Z</time>
      </trkpt>
      <trkpt lat="43.80938" lon="5.26538">
        <ele>579.81</ele>
        <time>2019-01-25T10:09:20Z</time>
      </trkpt>
      <trkpt lat="43.80938" lon="5.26538">
        <ele>580.77</ele>
        <time>2019-01-25T10:09:40Z</time>
      </trkpt>
      <trkpt lat="43.80939" lon="5.26539">
        <ele>580.29</ele>
        <time>2019-01-25T10:10:07Z</time>
      </trkpt>
      <trkpt lat="43.80938" lon="5.26539">
        <ele>580.77</ele>
        <time>2019-01-25T10:10:38Z</time>
      </trkpt>
      <trkpt lat="43.80938" lon="5.2654">
        <ele>580.77</ele>
        <time>2019-01-25T10:11:07Z</time>
      </trkpt>
      <trkpt lat="43.80938" lon="5.2654">
        <ele>580.77</ele>
        <time>2019-01-25T10:11:28Z</time>
      </trkpt>
      <trkpt lat="43.80939" lon="5.26532">
        <ele>580.29</ele>
        <time>2019-01-25T10:11:45Z</time>
      </trkpt>
      <trkpt lat="43.80933" lon="5.26529">
        <ele>581.73</ele>
        <time>2019-01-25T10:12:01Z</time>
      </trkpt>
      <trkpt lat="43.80926" lon="5.26535">
        <ele>583.18</ele>
        <time>2019-01-25T10:12:11Z</time>
      </trkpt>
      <trkpt lat="43.80917" lon="5.26537">
        <ele>584.14</ele>
        <time>2019-01-25T10:12:26Z</time>
      </trkpt>
      <trkpt lat="43.80912" lon="5.26539">
        <ele>585.58</ele>
        <time>2019-01-25T10:12:39Z</time>
      </trkpt>
      <trkpt lat="43.809" lon="5.26543">
        <ele>587.02</ele>
        <time>2019-01-25T10:12:53Z</time>
      </trkpt>
      <trkpt lat="43.80898" lon="5.26543">
        <ele>587.98</ele>
        <time>2019-01-25T10:13:13Z</time>
      </trkpt>
      <trkpt lat="43.8089" lon="5.26544">
        <ele>588.46</ele>
        <time>2019-01-25T10:13:27Z</time>
      </trkpt>
      <trkpt lat="43.80886" lon="5.26545">
        <ele>589.91</ele>
        <time>2019-01-25T10:13:40Z</time>
      </trkpt>
      <trkpt lat="43.80876" lon="5.26547">
        <ele>591.83</ele>
        <time>2019-01-25T10:13:53Z</time>
      </trkpt>
      <trkpt lat="43.80871" lon="5.26549">
        <ele>593.27</ele>
        <time>2019-01-25T10:14:05Z</time>
      </trkpt>
      <trkpt lat="43.80863" lon="5.26555">
        <ele>593.27</ele>
        <time>2019-01-25T10:14:18Z</time>
      </trkpt>
      <trkpt lat="43.80851" lon="5.26565">
        <ele>594.23</ele>
        <time>2019-01-25T10:14:32Z</time>
      </trkpt>
      <trkpt lat="43.80845" lon="5.26569">
        <ele>596.15</ele>
        <time>2019-01-25T10:14:48Z</time>
      </trkpt>
      <trkpt lat="43.80835" lon="5.26575">
        <ele>597.12</ele>
        <time>2019-01-25T10:14:59Z</time>
      </trkpt>
      <trkpt lat="43.80828" lon="5.2658">
        <ele>598.56</ele>
        <time>2019-01-25T10:15:11Z</time>
      </trkpt>
      <trkpt lat="43.80822" lon="5.26584">
        <ele>601.44</ele>
        <time>2019-01-25T10:15:25Z</time>
      </trkpt>
      <trkpt lat="43.80814" lon="5.26589">
        <ele>602.88</ele>
        <time>2019-01-25T10:15:37Z</time>
      </trkpt>
      <trkpt lat="43.80806" lon="5.26592">
        <ele>604.33</ele>
        <time>2019-01-25T10:15:51Z</time>
      </trkpt>
      <trkpt lat="43.808" lon="5.26596">
        <ele>606.25</ele>
        <time>2019-01-25T10:16:04Z</time>
      </trkpt>
      <trkpt lat="43.80797" lon="5.266">
        <ele>608.65</ele>
        <time>2019-01-25T10:16:16Z</time>
      </trkpt>
      <trkpt lat="43.8079" lon="5.26604">
        <ele>609.61</ele>
        <time>2019-01-25T10:16:29Z</time>
      </trkpt>
      <trkpt lat="43.80782" lon="5.2661">
        <ele>611.06</ele>
        <time>2019-01-25T10:16:42Z</time>
      </trkpt>
      <trkpt lat="43.80776" lon="5.26613">
        <ele>613.94</ele>
        <time>2019-01-25T10:16:57Z</time>
      </trkpt>
      <trkpt lat="43.80771" lon="5.26618">
        <ele>615.38</ele>
        <time>2019-01-25T10:17:11Z</time>
      </trkpt>
      <trkpt lat="43.80763" lon="5.26629">
        <ele>616.82</ele>
        <time>2019-01-25T10:17:24Z</time>
      </trkpt>
      <trkpt lat="43.80758" lon="5.26634">
        <ele>617.3</ele>
        <time>2019-01-25T10:17:30Z</time>
      </trkpt>
      <trkpt lat="43.80748" lon="5.26644">
        <ele>618.75</ele>
        <time>2019-01-25T10:17:42Z</time>
      </trkpt>
      <trkpt lat="43.80743" lon="5.26649">
        <ele>620.67</ele>
        <time>2019-01-25T10:17:55Z</time>
      </trkpt>
      <trkpt lat="43.80737" lon="5.26654">
        <ele>621.63</ele>
        <time>2019-01-25T10:18:08Z</time>
      </trkpt>
      <trkpt lat="43.80732" lon="5.2666">
        <ele>624.03</ele>
        <time>2019-01-25T10:18:24Z</time>
      </trkpt>
      <trkpt lat="43.80724" lon="5.26666">
        <ele>626.92</ele>
        <time>2019-01-25T10:18:40Z</time>
      </trkpt>
      <trkpt lat="43.80719" lon="5.26673">
        <ele>627.4</ele>
        <time>2019-01-25T10:18:57Z</time>
      </trkpt>
      <trkpt lat="43.80717" lon="5.26676">
        <ele>628.36</ele>
        <time>2019-01-25T10:19:08Z</time>
      </trkpt>
      <trkpt lat="43.80714" lon="5.26682">
        <ele>629.8</ele>
        <time>2019-01-25T10:19:25Z</time>
      </trkpt>
      <trkpt lat="43.80708" lon="5.26695">
        <ele>631.72</ele>
        <time>2019-01-25T10:19:38Z</time>
      </trkpt>
      <trkpt lat="43.80704" lon="5.26708">
        <ele>633.65</ele>
        <time>2019-01-25T10:19:52Z</time>
      </trkpt>
      <trkpt lat="43.80699" lon="5.26716">
        <ele>635.09</ele>
        <time>2019-01-25T10:20:04Z</time>
      </trkpt>
      <trkpt lat="43.80692" lon="5.26724">
        <ele>637.97</ele>
        <time>2019-01-25T10:20:18Z</time>
      </trkpt>
      <trkpt lat="43.80688" lon="5.26728">
        <ele>639.41</ele>
        <time>2019-01-25T10:20:32Z</time>
      </trkpt>
      <trkpt lat="43.80682" lon="5.26738">
        <ele>641.34</ele>
        <time>2019-01-25T10:20:45Z</time>
      </trkpt>
      <trkpt lat="43.80681" lon="5.26746">
        <ele>643.26</ele>
        <time>2019-01-25T10:20:56Z</time>
      </trkpt>
      <trkpt lat="43.80678" lon="5.26751">
        <ele>644.7</ele>
        <time>2019-01-25T10:21:08Z</time>
      </trkpt>
      <trkpt lat="43.80676" lon="5.26757">
        <ele>646.14</ele>
        <time>2019-01-25T10:21:22Z</time>
      </trkpt>
      <trkpt lat="43.80671" lon="5.26762">
        <ele>648.55</ele>
        <time>2019-01-25T10:21:35Z</time>
      </trkpt>
      <trkpt lat="43.80668" lon="5.26769">
        <ele>649.99</ele>
        <time>2019-01-25T10:21:54Z</time>
      </trkpt>
      <trkpt lat="43.80665" lon="5.26777">
        <ele>651.91</ele>
        <time>2019-01-25T10:22:08Z</time>
      </trkpt>
      <trkpt lat="43.8066" lon="5.26786">
        <ele>654.31</ele>
        <time>2019-01-25T10:22:21Z</time>
      </trkpt>
      <trkpt lat="43.80662" lon="5.26793">
        <ele>655.28</ele>
        <time>2019-01-25T10:22:34Z</time>
      </trkpt>
      <trkpt lat="43.80667" lon="5.268">
        <ele>657.2</ele>
        <time>2019-01-25T10:22:49Z</time>
      </trkpt>
      <trkpt lat="43.80668" lon="5.26803">
        <ele>659.12</ele>
        <time>2019-01-25T10:23:00Z</time>
      </trkpt>
      <trkpt lat="43.80671" lon="5.26809">
        <ele>660.56</ele>
        <time>2019-01-25T10:23:14Z</time>
      </trkpt>
      <trkpt lat="43.80673" lon="5.26814">
        <ele>661.04</ele>
        <time>2019-01-25T10:23:29Z</time>
      </trkpt>
      <trkpt lat="43.80673" lon="5.26817">
        <ele>662.97</ele>
        <time>2019-01-25T10:23:43Z</time>
      </trkpt>
      <trkpt lat="43.8067" lon="5.2682">
        <ele>664.41</ele>
        <time>2019-01-25T10:23:57Z</time>
      </trkpt>
      <trkpt lat="43.80667" lon="5.2682">
        <ele>664.41</ele>
        <time>2019-01-25T10:24:12Z</time>
      </trkpt>
      <trkpt lat="43.8066" lon="5.26824">
        <ele>665.85</ele>
        <time>2019-01-25T10:24:38Z</time>
      </trkpt>
      <trkpt lat="43.80654" lon="5.26826">
        <ele>668.25</ele>
        <time>2019-01-25T10:24:52Z</time>
      </trkpt>
      <trkpt lat="43.8065" lon="5.26827">
        <ele>669.7</ele>
        <time>2019-01-25T10:25:07Z</time>
      </trkpt>
      <trkpt lat="43.80642" lon="5.26828">
        <ele>671.62</ele>
        <time>2019-01-25T10:25:20Z</time>
      </trkpt>
      <trkpt lat="43.80631" lon="5.26831">
        <ele>673.54</ele>
        <time>2019-01-25T10:25:34Z</time>
      </trkpt>
      <trkpt lat="43.80627" lon="5.26831">
        <ele>674.98</ele>
        <time>2019-01-25T10:25:47Z</time>
      </trkpt>
      <trkpt lat="43.8062" lon="5.26832">
        <ele>676.42</ele>
        <time>2019-01-25T10:26:01Z</time>
      </trkpt>
      <trkpt lat="43.80607" lon="5.26832">
        <ele>677.39</ele>
        <time>2019-01-25T10:26:15Z</time>
      </trkpt>
      <trkpt lat="43.806" lon="5.26832">
        <ele>678.83</ele>
        <time>2019-01-25T10:26:27Z</time>
      </trkpt>
      <trkpt lat="43.80593" lon="5.26831">
        <ele>679.79</ele>
        <time>2019-01-25T10:26:42Z</time>
      </trkpt>
      <trkpt lat="43.80591" lon="5.26832">
        <ele>681.23</ele>
        <time>2019-01-25T10:26:54Z</time>
      </trkpt>
      <trkpt lat="43.80587" lon="5.26835">
        <ele>682.67</ele>
        <time>2019-01-25T10:27:08Z</time>
      </trkpt>
      <trkpt lat="43.80575" lon="5.2684">
        <ele>684.12</ele>
        <time>2019-01-25T10:27:25Z</time>
      </trkpt>
      <trkpt lat="43.80566" lon="5.26845">
        <ele>685.56</ele>
        <time>2019-01-25T10:27:42Z</time>
      </trkpt>
      <trkpt lat="43.80557" lon="5.26848">
        <ele>687</ele>
        <time>2019-01-25T10:27:57Z</time>
      </trkpt>
      <trkpt lat="43.80547" lon="5.26846">
        <ele>687.96</ele>
        <time>2019-01-25T10:28:10Z</time>
      </trkpt>
      <trkpt lat="43.80526" lon="5.26831">
        <ele>689.4</ele>
        <time>2019-01-25T10:28:24Z</time>
      </trkpt>
      <trkpt lat="43.8051" lon="5.26817">
        <ele>691.81</ele>
        <time>2019-01-25T10:28:40Z</time>
      </trkpt>
      <trkpt lat="43.80503" lon="5.26814">
        <ele>693.25</ele>
        <time>2019-01-25T10:28:54Z</time>
      </trkpt>
      <trkpt lat="43.8049" lon="5.26808">
        <ele>694.69</ele>
        <time>2019-01-25T10:29:08Z</time>
      </trkpt>
      <trkpt lat="43.80488" lon="5.26807">
        <ele>695.17</ele>
        <time>2019-01-25T10:29:24Z</time>
      </trkpt>
      <trkpt lat="43.80489" lon="5.26804">
        <ele>694.21</ele>
        <time>2019-01-25T10:29:45Z</time>
      </trkpt>
      <trkpt lat="43.80488" lon="5.26806">
        <ele>694.69</ele>
        <time>2019-01-25T10:30:03Z</time>
      </trkpt>
      <trkpt lat="43.80487" lon="5.26806">
        <ele>694.69</ele>
        <time>2019-01-25T10:30:15Z</time>
      </trkpt>
      <trkpt lat="43.80482" lon="5.26808">
        <ele>696.13</ele>
        <time>2019-01-25T10:30:32Z</time>
      </trkpt>
      <trkpt lat="43.80479" lon="5.26808">
        <ele>696.13</ele>
        <time>2019-01-25T10:30:56Z</time>
      </trkpt>
      <trkpt lat="43.80479" lon="5.26805">
        <ele>696.13</ele>
        <time>2019-01-25T10:31:21Z</time>
      </trkpt>
      <trkpt lat="43.80479" lon="5.26806">
        <ele>696.61</ele>
        <time>2019-01-25T10:31:48Z</time>
      </trkpt>
      <trkpt lat="43.80479" lon="5.26806">
        <ele>696.13</ele>
        <time>2019-01-25T10:32:13Z</time>
      </trkpt>
      <trkpt lat="43.8048" lon="5.26805">
        <ele>696.13</ele>
        <time>2019-01-25T10:32:39Z</time>
      </trkpt>
      <trkpt lat="43.8048" lon="5.26805">
        <ele>696.61</ele>
        <time>2019-01-25T10:33:07Z</time>
      </trkpt>
      <trkpt lat="43.80479" lon="5.26804">
        <ele>696.13</ele>
        <time>2019-01-25T10:33:31Z</time>
      </trkpt>
      <trkpt lat="43.80479" lon="5.26804">
        <ele>696.13</ele>
        <time>2019-01-25T10:33:47Z</time>
      </trkpt>
      <trkpt lat="43.80479" lon="5.26804">
        <ele>695.65</ele>
        <time>2019-01-25T10:34:13Z</time>
      </trkpt>
      <trkpt lat="43.8048" lon="5.26805">
        <ele>696.13</ele>
        <time>2019-01-25T10:34:32Z</time>
      </trkpt>
      <trkpt lat="43.8048" lon="5.26805">
        <ele>695.65</ele>
        <time>2019-01-25T10:35:01Z</time>
      </trkpt>
      <trkpt lat="43.8048" lon="5.26804">
        <ele>695.65</ele>
        <time>2019-01-25T10:35:29Z</time>
      </trkpt>
      <trkpt lat="43.80479" lon="5.26803">
        <ele>696.13</ele>
        <time>2019-01-25T10:35:55Z</time>
      </trkpt>
      <trkpt lat="43.80479" lon="5.26803">
        <ele>696.13</ele>
        <time>2019-01-25T10:36:16Z</time>
      </trkpt>
      <trkpt lat="43.80479" lon="5.26803">
        <ele>696.13</ele>
        <time>2019-01-25T10:36:40Z</time>
      </trkpt>
      <trkpt lat="43.80477" lon="5.268">
        <ele>696.13</ele>
        <time>2019-01-25T10:36:57Z</time>
      </trkpt>
      <trkpt lat="43.80473" lon="5.26792">
        <ele>697.09</ele>
        <time>2019-01-25T10:37:06Z</time>
      </trkpt>
      <trkpt lat="43.80465" lon="5.26774">
        <ele>697.57</ele>
        <time>2019-01-25T10:37:20Z</time>
      </trkpt>
      <trkpt lat="43.80463" lon="5.26771">
        <ele>698.05</ele>
        <time>2019-01-25T10:37:23Z</time>
      </trkpt>
      <trkpt lat="43.80462" lon="5.26768">
        <ele>698.05</ele>
        <time>2019-01-25T10:37:25Z</time>
      </trkpt>
      <trkpt lat="43.80451" lon="5.26761">
        <ele>699.5</ele>
        <time>2019-01-25T10:37:39Z</time>
      </trkpt>
      <trkpt lat="43.80443" lon="5.26757">
        <ele>700.46</ele>
        <time>2019-01-25T10:37:52Z</time>
      </trkpt>
      <trkpt lat="43.80436" lon="5.26752">
        <ele>701.42</ele>
        <time>2019-01-25T10:38:00Z</time>
      </trkpt>
      <trkpt lat="43.80424" lon="5.26749">
        <ele>702.86</ele>
        <time>2019-01-25T10:38:14Z</time>
      </trkpt>
      <trkpt lat="43.80414" lon="5.26749">
        <ele>704.3</ele>
        <time>2019-01-25T10:38:26Z</time>
      </trkpt>
      <trkpt lat="43.80407" lon="5.26745">
        <ele>704.3</ele>
        <time>2019-01-25T10:38:34Z</time>
      </trkpt>
      <trkpt lat="43.80395" lon="5.26738">
        <ele>704.3</ele>
        <time>2019-01-25T10:38:48Z</time>
      </trkpt>
      <trkpt lat="43.80385" lon="5.26738">
        <ele>705.26</ele>
        <time>2019-01-25T10:38:56Z</time>
      </trkpt>
      <trkpt lat="43.8037" lon="5.2673">
        <ele>706.23</ele>
        <time>2019-01-25T10:39:10Z</time>
      </trkpt>
      <trkpt lat="43.80361" lon="5.26721">
        <ele>706.23</ele>
        <time>2019-01-25T10:39:15Z</time>
      </trkpt>
      <trkpt lat="43.8035" lon="5.26717">
        <ele>706.71</ele>
        <time>2019-01-25T10:39:28Z</time>
      </trkpt>
      <trkpt lat="43.80337" lon="5.26716">
        <ele>706.71</ele>
        <time>2019-01-25T10:39:41Z</time>
      </trkpt>
      <trkpt lat="43.80331" lon="5.26714">
        <ele>707.67</ele>
        <time>2019-01-25T10:39:46Z</time>
      </trkpt>
      <trkpt lat="43.8032" lon="5.26708">
        <ele>708.15</ele>
        <time>2019-01-25T10:39:58Z</time>
      </trkpt>
      <trkpt lat="43.80309" lon="5.26703">
        <ele>708.15</ele>
        <time>2019-01-25T10:40:10Z</time>
      </trkpt>
      <trkpt lat="43.80304" lon="5.26704">
        <ele>708.63</ele>
        <time>2019-01-25T10:40:14Z</time>
      </trkpt>
      <trkpt lat="43.80288" lon="5.26697">
        <ele>709.11</ele>
        <time>2019-01-25T10:40:26Z</time>
      </trkpt>
      <trkpt lat="43.80286" lon="5.26697">
        <ele>709.11</ele>
        <time>2019-01-25T10:40:28Z</time>
      </trkpt>
      <trkpt lat="43.80279" lon="5.26695">
        <ele>709.59</ele>
        <time>2019-01-25T10:40:32Z</time>
      </trkpt>
      <trkpt lat="43.80276" lon="5.26694">
        <ele>709.59</ele>
        <time>2019-01-25T10:40:36Z</time>
      </trkpt>
      <trkpt lat="43.80256" lon="5.26699">
        <ele>710.55</ele>
        <time>2019-01-25T10:40:50Z</time>
      </trkpt>
      <trkpt lat="43.80231" lon="5.26686">
        <ele>711.03</ele>
        <time>2019-01-25T10:41:06Z</time>
      </trkpt>
      <trkpt lat="43.80214" lon="5.26683">
        <ele>711.51</ele>
        <time>2019-01-25T10:41:21Z</time>
      </trkpt>
      <trkpt lat="43.802" lon="5.26685">
        <ele>711.03</ele>
        <time>2019-01-25T10:41:35Z</time>
      </trkpt>
      <trkpt lat="43.80188" lon="5.26688">
        <ele>711.03</ele>
        <time>2019-01-25T10:41:51Z</time>
      </trkpt>
      <trkpt lat="43.80179" lon="5.26691">
        <ele>710.55</ele>
        <time>2019-01-25T10:42:03Z</time>
      </trkpt>
      <trkpt lat="43.80165" lon="5.26697">
        <ele>711.03</ele>
        <time>2019-01-25T10:42:17Z</time>
      </trkpt>
      <trkpt lat="43.80158" lon="5.26701">
        <ele>711.03</ele>
        <time>2019-01-25T10:42:26Z</time>
      </trkpt>
      <trkpt lat="43.80153" lon="5.26709">
        <ele>710.55</ele>
        <time>2019-01-25T10:42:33Z</time>
      </trkpt>
      <trkpt lat="43.80148" lon="5.26719">
        <ele>711.51</ele>
        <time>2019-01-25T10:42:38Z</time>
      </trkpt>
      <trkpt lat="43.80139" lon="5.26733">
        <ele>711.03</ele>
        <time>2019-01-25T10:42:54Z</time>
      </trkpt>
      <trkpt lat="43.80141" lon="5.26731">
        <ele>711.03</ele>
        <time>2019-01-25T10:43:19Z</time>
      </trkpt>
      <trkpt lat="43.8014" lon="5.2673">
        <ele>711.03</ele>
        <time>2019-01-25T10:43:46Z</time>
      </trkpt>
      <trkpt lat="43.8014" lon="5.2673">
        <ele>711.51</ele>
        <time>2019-01-25T10:43:49Z</time>
      </trkpt>
      <trkpt lat="43.80142" lon="5.26727">
        <ele>711.03</ele>
        <time>2019-01-25T10:44:04Z</time>
      </trkpt>
      <trkpt lat="43.80143" lon="5.26728">
        <ele>711.03</ele>
        <time>2019-01-25T10:44:19Z</time>
      </trkpt>
      <trkpt lat="43.80143" lon="5.26728">
        <ele>710.55</ele>
        <time>2019-01-25T10:44:43Z</time>
      </trkpt>
      <trkpt lat="43.80144" lon="5.26728">
        <ele>710.55</ele>
        <time>2019-01-25T10:45:09Z</time>
      </trkpt>
      <trkpt lat="43.80143" lon="5.26727">
        <ele>711.03</ele>
        <time>2019-01-25T10:45:35Z</time>
      </trkpt>
      <trkpt lat="43.80137" lon="5.26733">
        <ele>709.11</ele>
        <time>2019-01-25T10:45:49Z</time>
      </trkpt>
      <trkpt lat="43.80132" lon="5.26736">
        <ele>711.03</ele>
        <time>2019-01-25T10:45:56Z</time>
      </trkpt>
      <trkpt lat="43.80123" lon="5.26746">
        <ele>709.11</ele>
        <time>2019-01-25T10:46:09Z</time>
      </trkpt>
      <trkpt lat="43.80119" lon="5.26751">
        <ele>709.11</ele>
        <time>2019-01-25T10:46:28Z</time>
      </trkpt>
      <trkpt lat="43.8012" lon="5.26751">
        <ele>709.59</ele>
        <time>2019-01-25T10:46:52Z</time>
      </trkpt>
      <trkpt lat="43.80119" lon="5.26751">
        <ele>709.11</ele>
        <time>2019-01-25T10:47:09Z</time>
      </trkpt>
      <trkpt lat="43.80118" lon="5.26751">
        <ele>709.11</ele>
        <time>2019-01-25T10:47:30Z</time>
      </trkpt>
      <trkpt lat="43.80118" lon="5.26752">
        <ele>709.11</ele>
        <time>2019-01-25T10:47:51Z</time>
      </trkpt>
      <trkpt lat="43.80117" lon="5.26757">
        <ele>709.11</ele>
        <time>2019-01-25T10:47:58Z</time>
      </trkpt>
      <trkpt lat="43.80117" lon="5.26765">
        <ele>709.11</ele>
        <time>2019-01-25T10:48:12Z</time>
      </trkpt>
      <trkpt lat="43.80119" lon="5.2677">
        <ele>708.63</ele>
        <time>2019-01-25T10:48:15Z</time>
      </trkpt>
      <trkpt lat="43.80122" lon="5.26779">
        <ele>709.59</ele>
        <time>2019-01-25T10:48:30Z</time>
      </trkpt>
      <trkpt lat="43.80123" lon="5.26781">
        <ele>709.59</ele>
        <time>2019-01-25T10:48:32Z</time>
      </trkpt>
      <trkpt lat="43.80127" lon="5.26794">
        <ele>709.59</ele>
        <time>2019-01-25T10:48:45Z</time>
      </trkpt>
      <trkpt lat="43.80127" lon="5.26796">
        <ele>709.11</ele>
        <time>2019-01-25T10:48:46Z</time>
      </trkpt>
      <trkpt lat="43.80129" lon="5.26816">
        <ele>710.07</ele>
        <time>2019-01-25T10:49:00Z</time>
      </trkpt>
      <trkpt lat="43.80127" lon="5.26825">
        <ele>709.59</ele>
        <time>2019-01-25T10:49:06Z</time>
      </trkpt>
      <trkpt lat="43.80125" lon="5.26832">
        <ele>709.59</ele>
        <time>2019-01-25T10:49:10Z</time>
      </trkpt>
      <trkpt lat="43.80122" lon="5.26839">
        <ele>710.07</ele>
        <time>2019-01-25T10:49:14Z</time>
      </trkpt>
      <trkpt lat="43.8012" lon="5.26846">
        <ele>710.07</ele>
        <time>2019-01-25T10:49:18Z</time>
      </trkpt>
      <trkpt lat="43.80117" lon="5.26856">
        <ele>710.07</ele>
        <time>2019-01-25T10:49:25Z</time>
      </trkpt>
      <trkpt lat="43.80108" lon="5.26879">
        <ele>710.07</ele>
        <time>2019-01-25T10:49:42Z</time>
      </trkpt>
      <trkpt lat="43.80107" lon="5.26883">
        <ele>710.07</ele>
        <time>2019-01-25T10:49:45Z</time>
      </trkpt>
      <trkpt lat="43.80106" lon="5.26889">
        <ele>709.59</ele>
        <time>2019-01-25T10:49:50Z</time>
      </trkpt>
      <trkpt lat="43.80103" lon="5.269">
        <ele>710.07</ele>
        <time>2019-01-25T10:50:02Z</time>
      </trkpt>
      <trkpt lat="43.80102" lon="5.26915">
        <ele>710.07</ele>
        <time>2019-01-25T10:50:15Z</time>
      </trkpt>
      <trkpt lat="43.80102" lon="5.2692">
        <ele>709.59</ele>
        <time>2019-01-25T10:50:19Z</time>
      </trkpt>
      <trkpt lat="43.80098" lon="5.26928">
        <ele>710.07</ele>
        <time>2019-01-25T10:50:38Z</time>
      </trkpt>
      <trkpt lat="43.80097" lon="5.26931">
        <ele>710.07</ele>
        <time>2019-01-25T10:50:39Z</time>
      </trkpt>
      <trkpt lat="43.80084" lon="5.26971">
        <ele>709.59</ele>
        <time>2019-01-25T10:50:58Z</time>
      </trkpt>
      <trkpt lat="43.80082" lon="5.26983">
        <ele>709.11</ele>
        <time>2019-01-25T10:51:06Z</time>
      </trkpt>
      <trkpt lat="43.80081" lon="5.26991">
        <ele>709.59</ele>
        <time>2019-01-25T10:51:10Z</time>
      </trkpt>
      <trkpt lat="43.80076" lon="5.27004">
        <ele>709.11</ele>
        <time>2019-01-25T10:51:16Z</time>
      </trkpt>
      <trkpt lat="43.80075" lon="5.27015">
        <ele>709.11</ele>
        <time>2019-01-25T10:51:31Z</time>
      </trkpt>
      <trkpt lat="43.80075" lon="5.27015">
        <ele>709.11</ele>
        <time>2019-01-25T10:51:54Z</time>
      </trkpt>
      <trkpt lat="43.80076" lon="5.27015">
        <ele>709.11</ele>
        <time>2019-01-25T10:52:17Z</time>
      </trkpt>
      <trkpt lat="43.80073" lon="5.27021">
        <ele>709.11</ele>
        <time>2019-01-25T10:52:23Z</time>
      </trkpt>
      <trkpt lat="43.8007" lon="5.27027">
        <ele>709.11</ele>
        <time>2019-01-25T10:52:28Z</time>
      </trkpt>
      <trkpt lat="43.80063" lon="5.27033">
        <ele>709.11</ele>
        <time>2019-01-25T10:52:42Z</time>
      </trkpt>
      <trkpt lat="43.80051" lon="5.27036">
        <ele>708.63</ele>
        <time>2019-01-25T10:52:56Z</time>
      </trkpt>
      <trkpt lat="43.80045" lon="5.27038">
        <ele>708.63</ele>
        <time>2019-01-25T10:53:12Z</time>
      </trkpt>
      <trkpt lat="43.80042" lon="5.27043">
        <ele>707.67</ele>
        <time>2019-01-25T10:53:30Z</time>
      </trkpt>
      <trkpt lat="43.80041" lon="5.27045">
        <ele>708.15</ele>
        <time>2019-01-25T10:53:47Z</time>
      </trkpt>
      <trkpt lat="43.8004" lon="5.27046">
        <ele>708.63</ele>
        <time>2019-01-25T10:54:10Z</time>
      </trkpt>
      <trkpt lat="43.80037" lon="5.27055">
        <ele>708.63</ele>
        <time>2019-01-25T10:54:36Z</time>
      </trkpt>
      <trkpt lat="43.8003" lon="5.27069">
        <ele>708.15</ele>
        <time>2019-01-25T10:54:47Z</time>
      </trkpt>
      <trkpt lat="43.80024" lon="5.27082">
        <ele>708.15</ele>
        <time>2019-01-25T10:55:00Z</time>
      </trkpt>
      <trkpt lat="43.8002" lon="5.27098">
        <ele>708.15</ele>
        <time>2019-01-25T10:55:11Z</time>
      </trkpt>
      <trkpt lat="43.80016" lon="5.27113">
        <ele>707.67</ele>
        <time>2019-01-25T10:55:25Z</time>
      </trkpt>
      <trkpt lat="43.80009" lon="5.27121">
        <ele>707.19</ele>
        <time>2019-01-25T10:55:37Z</time>
      </trkpt>
      <trkpt lat="43.79994" lon="5.27132">
        <ele>706.23</ele>
        <time>2019-01-25T10:55:55Z</time>
      </trkpt>
      <trkpt lat="43.79994" lon="5.27134">
        <ele>708.15</ele>
        <time>2019-01-25T10:56:01Z</time>
      </trkpt>
      <trkpt lat="43.79993" lon="5.27139">
        <ele>707.19</ele>
        <time>2019-01-25T10:56:22Z</time>
      </trkpt>
      <trkpt lat="43.79988" lon="5.27156">
        <ele>705.75</ele>
        <time>2019-01-25T10:56:37Z</time>
      </trkpt>
      <trkpt lat="43.79985" lon="5.27164">
        <ele>706.23</ele>
        <time>2019-01-25T10:56:49Z</time>
      </trkpt>
      <trkpt lat="43.79987" lon="5.27164">
        <ele>705.26</ele>
        <time>2019-01-25T10:57:03Z</time>
      </trkpt>
      <trkpt lat="43.79987" lon="5.27161">
        <ele>706.23</ele>
        <time>2019-01-25T10:57:24Z</time>
      </trkpt>
      <trkpt lat="43.79988" lon="5.2716">
        <ele>707.67</ele>
        <time>2019-01-25T10:57:25Z</time>
      </trkpt>
      <trkpt lat="43.79991" lon="5.27154">
        <ele>706.23</ele>
        <time>2019-01-25T10:57:41Z</time>
      </trkpt>
      <trkpt lat="43.79991" lon="5.27153">
        <ele>706.23</ele>
        <time>2019-01-25T10:57:43Z</time>
      </trkpt>
      <trkpt lat="43.79993" lon="5.27147">
        <ele>705.75</ele>
        <time>2019-01-25T10:57:48Z</time>
      </trkpt>
      <trkpt lat="43.79991" lon="5.27134">
        <ele>706.23</ele>
        <time>2019-01-25T10:57:55Z</time>
      </trkpt>
      <trkpt lat="43.79982" lon="5.27125">
        <ele>704.78</ele>
        <time>2019-01-25T10:58:09Z</time>
      </trkpt>
      <trkpt lat="43.7997" lon="5.2712">
        <ele>703.34</ele>
        <time>2019-01-25T10:58:24Z</time>
      </trkpt>
      <trkpt lat="43.79969" lon="5.27117">
        <ele>704.3</ele>
        <time>2019-01-25T10:58:39Z</time>
      </trkpt>
      <trkpt lat="43.79969" lon="5.27115">
        <ele>703.34</ele>
        <time>2019-01-25T10:58:57Z</time>
      </trkpt>
      <trkpt lat="43.79969" lon="5.27111">
        <ele>703.34</ele>
        <time>2019-01-25T10:59:12Z</time>
      </trkpt>
      <trkpt lat="43.79969" lon="5.27107">
        <ele>701.9</ele>
        <time>2019-01-25T10:59:29Z</time>
      </trkpt>
      <trkpt lat="43.79966" lon="5.27093">
        <ele>701.42</ele>
        <time>2019-01-25T10:59:40Z</time>
      </trkpt>
      <trkpt lat="43.79968" lon="5.27067">
        <ele>700.94</ele>
        <time>2019-01-25T10:59:58Z</time>
      </trkpt>
      <trkpt lat="43.79968" lon="5.2705">
        <ele>700.46</ele>
        <time>2019-01-25T11:00:11Z</time>
      </trkpt>
      <trkpt lat="43.79971" lon="5.27036">
        <ele>699.02</ele>
        <time>2019-01-25T11:00:26Z</time>
      </trkpt>
      <trkpt lat="43.79973" lon="5.27025">
        <ele>698.05</ele>
        <time>2019-01-25T11:00:39Z</time>
      </trkpt>
      <trkpt lat="43.79975" lon="5.2701">
        <ele>696.13</ele>
        <time>2019-01-25T11:00:54Z</time>
      </trkpt>
      <trkpt lat="43.79975" lon="5.26992">
        <ele>694.69</ele>
        <time>2019-01-25T11:01:07Z</time>
      </trkpt>
      <trkpt lat="43.79975" lon="5.26972">
        <ele>693.73</ele>
        <time>2019-01-25T11:01:20Z</time>
      </trkpt>
      <trkpt lat="43.7998" lon="5.2696">
        <ele>691.33</ele>
        <time>2019-01-25T11:01:34Z</time>
      </trkpt>
      <trkpt lat="43.79984" lon="5.26946">
        <ele>690.36</ele>
        <time>2019-01-25T11:01:48Z</time>
      </trkpt>
      <trkpt lat="43.79995" lon="5.26934">
        <ele>688.92</ele>
        <time>2019-01-25T11:02:03Z</time>
      </trkpt>
      <trkpt lat="43.79997" lon="5.26933">
        <ele>688.44</ele>
        <time>2019-01-25T11:02:05Z</time>
      </trkpt>
      <trkpt lat="43.80006" lon="5.26929">
        <ele>687.96</ele>
        <time>2019-01-25T11:02:11Z</time>
      </trkpt>
      <trkpt lat="43.80004" lon="5.26924">
        <ele>687.48</ele>
        <time>2019-01-25T11:02:15Z</time>
      </trkpt>
      <trkpt lat="43.80006" lon="5.26918">
        <ele>687</ele>
        <time>2019-01-25T11:02:19Z</time>
      </trkpt>
      <trkpt lat="43.8001" lon="5.26902">
        <ele>685.56</ele>
        <time>2019-01-25T11:02:35Z</time>
      </trkpt>
      <trkpt lat="43.79989" lon="5.26885">
        <ele>685.08</ele>
        <time>2019-01-25T11:02:48Z</time>
      </trkpt>
      <trkpt lat="43.79988" lon="5.26886">
        <ele>685.08</ele>
        <time>2019-01-25T11:02:50Z</time>
      </trkpt>
      <trkpt lat="43.79982" lon="5.2689">
        <ele>683.15</ele>
        <time>2019-01-25T11:03:05Z</time>
      </trkpt>
      <trkpt lat="43.79971" lon="5.26899">
        <ele>681.23</ele>
        <time>2019-01-25T11:03:24Z</time>
      </trkpt>
      <trkpt lat="43.79962" lon="5.26904">
        <ele>679.31</ele>
        <time>2019-01-25T11:03:38Z</time>
      </trkpt>
      <trkpt lat="43.79951" lon="5.26913">
        <ele>677.39</ele>
        <time>2019-01-25T11:03:54Z</time>
      </trkpt>
      <trkpt lat="43.79948" lon="5.26916">
        <ele>676.42</ele>
        <time>2019-01-25T11:03:58Z</time>
      </trkpt>
      <trkpt lat="43.79938" lon="5.2693">
        <ele>674.5</ele>
        <time>2019-01-25T11:04:11Z</time>
      </trkpt>
      <trkpt lat="43.79931" lon="5.26942">
        <ele>673.06</ele>
        <time>2019-01-25T11:04:22Z</time>
      </trkpt>
      <trkpt lat="43.79924" lon="5.26957">
        <ele>671.62</ele>
        <time>2019-01-25T11:04:36Z</time>
      </trkpt>
      <trkpt lat="43.79921" lon="5.26964">
        <ele>670.18</ele>
        <time>2019-01-25T11:04:44Z</time>
      </trkpt>
      <trkpt lat="43.79914" lon="5.26981">
        <ele>668.73</ele>
        <time>2019-01-25T11:04:59Z</time>
      </trkpt>
      <trkpt lat="43.7991" lon="5.2699">
        <ele>667.29</ele>
        <time>2019-01-25T11:05:12Z</time>
      </trkpt>
      <trkpt lat="43.79904" lon="5.27003">
        <ele>665.37</ele>
        <time>2019-01-25T11:05:27Z</time>
      </trkpt>
      <trkpt lat="43.799" lon="5.27009">
        <ele>663.93</ele>
        <time>2019-01-25T11:05:42Z</time>
      </trkpt>
      <trkpt lat="43.799" lon="5.27015">
        <ele>663.93</ele>
        <time>2019-01-25T11:05:57Z</time>
      </trkpt>
      <trkpt lat="43.79895" lon="5.27018">
        <ele>663.45</ele>
        <time>2019-01-25T11:06:13Z</time>
      </trkpt>
      <trkpt lat="43.79888" lon="5.27021">
        <ele>662.49</ele>
        <time>2019-01-25T11:06:29Z</time>
      </trkpt>
      <trkpt lat="43.79883" lon="5.27024">
        <ele>661.04</ele>
        <time>2019-01-25T11:06:40Z</time>
      </trkpt>
      <trkpt lat="43.79875" lon="5.27028">
        <ele>659.6</ele>
        <time>2019-01-25T11:06:55Z</time>
      </trkpt>
      <trkpt lat="43.79863" lon="5.27035">
        <ele>658.16</ele>
        <time>2019-01-25T11:07:09Z</time>
      </trkpt>
      <trkpt lat="43.79852" lon="5.27047">
        <ele>655.76</ele>
        <time>2019-01-25T11:07:24Z</time>
      </trkpt>
      <trkpt lat="43.79842" lon="5.27054">
        <ele>654.31</ele>
        <time>2019-01-25T11:07:39Z</time>
      </trkpt>
      <trkpt lat="43.79833" lon="5.27065">
        <ele>652.39</ele>
        <time>2019-01-25T11:07:54Z</time>
      </trkpt>
      <trkpt lat="43.79823" lon="5.27075">
        <ele>650.95</ele>
        <time>2019-01-25T11:08:08Z</time>
      </trkpt>
      <trkpt lat="43.79814" lon="5.27085">
        <ele>649.51</ele>
        <time>2019-01-25T11:08:22Z</time>
      </trkpt>
      <trkpt lat="43.79807" lon="5.27089">
        <ele>647.59</ele>
        <time>2019-01-25T11:08:35Z</time>
      </trkpt>
      <trkpt lat="43.79796" lon="5.27098">
        <ele>646.14</ele>
        <time>2019-01-25T11:08:49Z</time>
      </trkpt>
      <trkpt lat="43.79788" lon="5.27106">
        <ele>645.18</ele>
        <time>2019-01-25T11:09:01Z</time>
      </trkpt>
      <trkpt lat="43.79785" lon="5.27108">
        <ele>644.22</ele>
        <time>2019-01-25T11:09:18Z</time>
      </trkpt>
      <trkpt lat="43.79775" lon="5.27116">
        <ele>642.78</ele>
        <time>2019-01-25T11:09:33Z</time>
      </trkpt>
      <trkpt lat="43.79762" lon="5.27118">
        <ele>641.34</ele>
        <time>2019-01-25T11:09:48Z</time>
      </trkpt>
      <trkpt lat="43.79749" lon="5.27126">
        <ele>639.89</ele>
        <time>2019-01-25T11:10:02Z</time>
      </trkpt>
      <trkpt lat="43.79741" lon="5.27125">
        <ele>639.41</ele>
        <time>2019-01-25T11:10:08Z</time>
      </trkpt>
      <trkpt lat="43.79731" lon="5.27127">
        <ele>638.45</ele>
        <time>2019-01-25T11:10:21Z</time>
      </trkpt>
      <trkpt lat="43.79727" lon="5.2713">
        <ele>637.01</ele>
        <time>2019-01-25T11:10:33Z</time>
      </trkpt>
      <trkpt lat="43.79717" lon="5.27126">
        <ele>635.09</ele>
        <time>2019-01-25T11:10:47Z</time>
      </trkpt>
      <trkpt lat="43.79707" lon="5.27118">
        <ele>634.13</ele>
        <time>2019-01-25T11:11:03Z</time>
      </trkpt>
      <trkpt lat="43.79694" lon="5.27111">
        <ele>633.65</ele>
        <time>2019-01-25T11:11:18Z</time>
      </trkpt>
      <trkpt lat="43.79671" lon="5.27094">
        <ele>633.17</ele>
        <time>2019-01-25T11:11:32Z</time>
      </trkpt>
      <trkpt lat="43.79671" lon="5.27094">
        <ele>633.17</ele>
        <time>2019-01-25T11:11:53Z</time>
      </trkpt>
      <trkpt lat="43.79672" lon="5.27093">
        <ele>634.13</ele>
        <time>2019-01-25T11:12:09Z</time>
      </trkpt>
      <trkpt lat="43.79668" lon="5.27093">
        <ele>633.17</ele>
        <time>2019-01-25T11:12:23Z</time>
      </trkpt>
      <trkpt lat="43.79661" lon="5.27092">
        <ele>632.68</ele>
        <time>2019-01-25T11:12:51Z</time>
      </trkpt>
      <trkpt lat="43.79651" lon="5.27084">
        <ele>631.72</ele>
        <time>2019-01-25T11:13:06Z</time>
      </trkpt>
      <trkpt lat="43.79642" lon="5.27076">
        <ele>631.24</ele>
        <time>2019-01-25T11:13:21Z</time>
      </trkpt>
      <trkpt lat="43.79635" lon="5.27075">
        <ele>629.8</ele>
        <time>2019-01-25T11:13:34Z</time>
      </trkpt>
      <trkpt lat="43.79628" lon="5.27073">
        <ele>628.36</ele>
        <time>2019-01-25T11:13:47Z</time>
      </trkpt>
      <trkpt lat="43.79617" lon="5.27073">
        <ele>625.47</ele>
        <time>2019-01-25T11:14:04Z</time>
      </trkpt>
      <trkpt lat="43.79603" lon="5.27076">
        <ele>624.03</ele>
        <time>2019-01-25T11:14:19Z</time>
      </trkpt>
      <trkpt lat="43.796" lon="5.27077">
        <ele>623.55</ele>
        <time>2019-01-25T11:14:22Z</time>
      </trkpt>
      <trkpt lat="43.79579" lon="5.27073">
        <ele>623.07</ele>
        <time>2019-01-25T11:14:37Z</time>
      </trkpt>
      <trkpt lat="43.79574" lon="5.27076">
        <ele>622.11</ele>
        <time>2019-01-25T11:14:45Z</time>
      </trkpt>
      <trkpt lat="43.79565" lon="5.27075">
        <ele>621.15</ele>
        <time>2019-01-25T11:15:00Z</time>
      </trkpt>
      <trkpt lat="43.79554" lon="5.27074">
        <ele>620.19</ele>
        <time>2019-01-25T11:15:11Z</time>
      </trkpt>
      <trkpt lat="43.79542" lon="5.27076">
        <ele>619.23</ele>
        <time>2019-01-25T11:15:26Z</time>
      </trkpt>
      <trkpt lat="43.79532" lon="5.27075">
        <ele>618.75</ele>
        <time>2019-01-25T11:15:41Z</time>
      </trkpt>
      <trkpt lat="43.79517" lon="5.27071">
        <ele>617.3</ele>
        <time>2019-01-25T11:15:57Z</time>
      </trkpt>
      <trkpt lat="43.79508" lon="5.2707">
        <ele>616.34</ele>
        <time>2019-01-25T11:16:10Z</time>
      </trkpt>
      <trkpt lat="43.79496" lon="5.27066">
        <ele>614.9</ele>
        <time>2019-01-25T11:16:22Z</time>
      </trkpt>
      <trkpt lat="43.79488" lon="5.27064">
        <ele>615.86</ele>
        <time>2019-01-25T11:16:35Z</time>
      </trkpt>
      <trkpt lat="43.79484" lon="5.27052">
        <ele>617.3</ele>
        <time>2019-01-25T11:16:46Z</time>
      </trkpt>
      <trkpt lat="43.79479" lon="5.27047">
        <ele>618.75</ele>
        <time>2019-01-25T11:17:00Z</time>
      </trkpt>
      <trkpt lat="43.79474" lon="5.27052">
        <ele>620.67</ele>
        <time>2019-01-25T11:17:12Z</time>
      </trkpt>
      <trkpt lat="43.79469" lon="5.27058">
        <ele>622.59</ele>
        <time>2019-01-25T11:17:28Z</time>
      </trkpt>
      <trkpt lat="43.79464" lon="5.27065">
        <ele>624.99</ele>
        <time>2019-01-25T11:17:43Z</time>
      </trkpt>
      <trkpt lat="43.79458" lon="5.27071">
        <ele>626.44</ele>
        <time>2019-01-25T11:17:59Z</time>
      </trkpt>
      <trkpt lat="43.79455" lon="5.27083">
        <ele>627.88</ele>
        <time>2019-01-25T11:18:12Z</time>
      </trkpt>
      <trkpt lat="43.79448" lon="5.27091">
        <ele>628.84</ele>
        <time>2019-01-25T11:18:28Z</time>
      </trkpt>
      <trkpt lat="43.79445" lon="5.27101">
        <ele>632.2</ele>
        <time>2019-01-25T11:18:43Z</time>
      </trkpt>
      <trkpt lat="43.79444" lon="5.27097">
        <ele>633.17</ele>
        <time>2019-01-25T11:18:59Z</time>
      </trkpt>
      <trkpt lat="43.79437" lon="5.2709">
        <ele>635.09</ele>
        <time>2019-01-25T11:19:11Z</time>
      </trkpt>
      <trkpt lat="43.79436" lon="5.27087">
        <ele>635.57</ele>
        <time>2019-01-25T11:19:16Z</time>
      </trkpt>
      <trkpt lat="43.79433" lon="5.27079">
        <ele>637.01</ele>
        <time>2019-01-25T11:19:31Z</time>
      </trkpt>
      <trkpt lat="43.79427" lon="5.27066">
        <ele>638.93</ele>
        <time>2019-01-25T11:19:45Z</time>
      </trkpt>
      <trkpt lat="43.79429" lon="5.27055">
        <ele>640.38</ele>
        <time>2019-01-25T11:20:01Z</time>
      </trkpt>
      <trkpt lat="43.79426" lon="5.27047">
        <ele>642.3</ele>
        <time>2019-01-25T11:20:14Z</time>
      </trkpt>
      <trkpt lat="43.79425" lon="5.27045">
        <ele>643.26</ele>
        <time>2019-01-25T11:20:25Z</time>
      </trkpt>
      <trkpt lat="43.79422" lon="5.27054">
        <ele>646.14</ele>
        <time>2019-01-25T11:20:40Z</time>
      </trkpt>
      <trkpt lat="43.79419" lon="5.27059">
        <ele>649.03</ele>
        <time>2019-01-25T11:20:55Z</time>
      </trkpt>
      <trkpt lat="43.79417" lon="5.27063">
        <ele>650.47</ele>
        <time>2019-01-25T11:21:08Z</time>
      </trkpt>
      <trkpt lat="43.79415" lon="5.27064">
        <ele>650.95</ele>
        <time>2019-01-25T11:21:24Z</time>
      </trkpt>
      <trkpt lat="43.79413" lon="5.27061">
        <ele>653.35</ele>
        <time>2019-01-25T11:21:39Z</time>
      </trkpt>
      <trkpt lat="43.79412" lon="5.27058">
        <ele>655.76</ele>
        <time>2019-01-25T11:21:53Z</time>
      </trkpt>
      <trkpt lat="43.7941" lon="5.27054">
        <ele>656.72</ele>
        <time>2019-01-25T11:22:07Z</time>
      </trkpt>
      <trkpt lat="43.79409" lon="5.27054">
        <ele>657.2</ele>
        <time>2019-01-25T11:22:08Z</time>
      </trkpt>
      <trkpt lat="43.79396" lon="5.27044">
        <ele>657.68</ele>
        <time>2019-01-25T11:22:20Z</time>
      </trkpt>
      <trkpt lat="43.79394" lon="5.27043">
        <ele>658.64</ele>
        <time>2019-01-25T11:22:33Z</time>
      </trkpt>
      <trkpt lat="43.79392" lon="5.27047">
        <ele>657.2</ele>
        <time>2019-01-25T11:22:49Z</time>
      </trkpt>
      <trkpt lat="43.79391" lon="5.27047">
        <ele>657.2</ele>
        <time>2019-01-25T11:22:50Z</time>
      </trkpt>
      <trkpt lat="43.79391" lon="5.27048">
        <ele>658.64</ele>
        <time>2019-01-25T11:22:54Z</time>
      </trkpt>
      <trkpt lat="43.79391" lon="5.27049">
        <ele>658.64</ele>
        <time>2019-01-25T11:22:58Z</time>
      </trkpt>
      <trkpt lat="43.7939" lon="5.27055">
        <ele>662.01</ele>
        <time>2019-01-25T11:23:12Z</time>
      </trkpt>
      <trkpt lat="43.79388" lon="5.27056">
        <ele>664.41</ele>
        <time>2019-01-25T11:23:27Z</time>
      </trkpt>
      <trkpt lat="43.79385" lon="5.27058">
        <ele>666.81</ele>
        <time>2019-01-25T11:23:35Z</time>
      </trkpt>
      <trkpt lat="43.79379" lon="5.27078">
        <ele>667.77</ele>
        <time>2019-01-25T11:23:50Z</time>
      </trkpt>
      <trkpt lat="43.79379" lon="5.27079">
        <ele>668.25</ele>
        <time>2019-01-25T11:24:01Z</time>
      </trkpt>
      <trkpt lat="43.79377" lon="5.27073">
        <ele>666.81</ele>
        <time>2019-01-25T11:24:20Z</time>
      </trkpt>
      <trkpt lat="43.79373" lon="5.27066">
        <ele>668.73</ele>
        <time>2019-01-25T11:24:32Z</time>
      </trkpt>
      <trkpt lat="43.79373" lon="5.27065">
        <ele>668.73</ele>
        <time>2019-01-25T11:24:33Z</time>
      </trkpt>
      <trkpt lat="43.79372" lon="5.2706">
        <ele>669.22</ele>
        <time>2019-01-25T11:24:38Z</time>
      </trkpt>
      <trkpt lat="43.79368" lon="5.27047">
        <ele>667.77</ele>
        <time>2019-01-25T11:24:51Z</time>
      </trkpt>
      <trkpt lat="43.79362" lon="5.27039">
        <ele>668.25</ele>
        <time>2019-01-25T11:25:00Z</time>
      </trkpt>
      <trkpt lat="43.79356" lon="5.27026">
        <ele>669.22</ele>
        <time>2019-01-25T11:25:11Z</time>
      </trkpt>
      <trkpt lat="43.79349" lon="5.27013">
        <ele>667.77</ele>
        <time>2019-01-25T11:25:23Z</time>
      </trkpt>
      <trkpt lat="43.79346" lon="5.27002">
        <ele>668.25</ele>
        <time>2019-01-25T11:25:36Z</time>
      </trkpt>
      <trkpt lat="43.79345" lon="5.26994">
        <ele>671.14</ele>
        <time>2019-01-25T11:25:42Z</time>
      </trkpt>
      <trkpt lat="43.79343" lon="5.26982">
        <ele>669.7</ele>
        <time>2019-01-25T11:25:48Z</time>
      </trkpt>
      <trkpt lat="43.79345" lon="5.26968">
        <ele>671.62</ele>
        <time>2019-01-25T11:25:58Z</time>
      </trkpt>
      <trkpt lat="43.79342" lon="5.26948">
        <ele>673.06</ele>
        <time>2019-01-25T11:26:11Z</time>
      </trkpt>
      <trkpt lat="43.79342" lon="5.26946">
        <ele>674.02</ele>
        <time>2019-01-25T11:26:13Z</time>
      </trkpt>
      <trkpt lat="43.79337" lon="5.26929">
        <ele>675.46</ele>
        <time>2019-01-25T11:26:24Z</time>
      </trkpt>
      <trkpt lat="43.79338" lon="5.26924">
        <ele>675.94</ele>
        <time>2019-01-25T11:26:28Z</time>
      </trkpt>
      <trkpt lat="43.79338" lon="5.26921">
        <ele>675.46</ele>
        <time>2019-01-25T11:26:30Z</time>
      </trkpt>
      <trkpt lat="43.79341" lon="5.26917">
        <ele>677.39</ele>
        <time>2019-01-25T11:26:34Z</time>
      </trkpt>
      <trkpt lat="43.79342" lon="5.26905">
        <ele>677.87</ele>
        <time>2019-01-25T11:26:46Z</time>
      </trkpt>
      <trkpt lat="43.79343" lon="5.26899">
        <ele>680.27</ele>
        <time>2019-01-25T11:26:59Z</time>
      </trkpt>
      <trkpt lat="43.79346" lon="5.26893">
        <ele>681.71</ele>
        <time>2019-01-25T11:27:12Z</time>
      </trkpt>
      <trkpt lat="43.7935" lon="5.26889">
        <ele>682.67</ele>
        <time>2019-01-25T11:27:27Z</time>
      </trkpt>
      <trkpt lat="43.79357" lon="5.26885">
        <ele>682.67</ele>
        <time>2019-01-25T11:27:46Z</time>
      </trkpt>
      <trkpt lat="43.79359" lon="5.26885">
        <ele>683.63</ele>
        <time>2019-01-25T11:28:00Z</time>
      </trkpt>
      <trkpt lat="43.79361" lon="5.26886">
        <ele>682.19</ele>
        <time>2019-01-25T11:28:23Z</time>
      </trkpt>
      <trkpt lat="43.79362" lon="5.26884">
        <ele>682.67</ele>
        <time>2019-01-25T11:28:51Z</time>
      </trkpt>
      <trkpt lat="43.79362" lon="5.26883">
        <ele>682.67</ele>
        <time>2019-01-25T11:29:19Z</time>
      </trkpt>
      <trkpt lat="43.79363" lon="5.26883">
        <ele>683.15</ele>
        <time>2019-01-25T11:29:52Z</time>
      </trkpt>
      <trkpt lat="43.79363" lon="5.26882">
        <ele>682.67</ele>
        <time>2019-01-25T11:30:21Z</time>
      </trkpt>
      <trkpt lat="43.79364" lon="5.26882">
        <ele>682.19</ele>
        <time>2019-01-25T11:30:50Z</time>
      </trkpt>
      <trkpt lat="43.79365" lon="5.26876">
        <ele>682.19</ele>
        <time>2019-01-25T11:31:04Z</time>
      </trkpt>
      <trkpt lat="43.79365" lon="5.26869">
        <ele>683.15</ele>
        <time>2019-01-25T11:31:10Z</time>
      </trkpt>
      <trkpt lat="43.79366" lon="5.26867">
        <ele>682.67</ele>
        <time>2019-01-25T11:31:15Z</time>
      </trkpt>
      <trkpt lat="43.7937" lon="5.26856">
        <ele>683.15</ele>
        <time>2019-01-25T11:31:28Z</time>
      </trkpt>
      <trkpt lat="43.79371" lon="5.26852">
        <ele>683.63</ele>
        <time>2019-01-25T11:31:31Z</time>
      </trkpt>
      <trkpt lat="43.79373" lon="5.26835">
        <ele>683.63</ele>
        <time>2019-01-25T11:31:45Z</time>
      </trkpt>
      <trkpt lat="43.79376" lon="5.26829">
        <ele>684.12</ele>
        <time>2019-01-25T11:31:56Z</time>
      </trkpt>
      <trkpt lat="43.79381" lon="5.2682">
        <ele>684.6</ele>
        <time>2019-01-25T11:32:03Z</time>
      </trkpt>
      <trkpt lat="43.7938" lon="5.26807">
        <ele>684.6</ele>
        <time>2019-01-25T11:32:16Z</time>
      </trkpt>
      <trkpt lat="43.7938" lon="5.26801">
        <ele>686.04</ele>
        <time>2019-01-25T11:32:21Z</time>
      </trkpt>
      <trkpt lat="43.79383" lon="5.26791">
        <ele>687.48</ele>
        <time>2019-01-25T11:32:32Z</time>
      </trkpt>
      <trkpt lat="43.79383" lon="5.2678">
        <ele>689.4</ele>
        <time>2019-01-25T11:32:45Z</time>
      </trkpt>
      <trkpt lat="43.7938" lon="5.2677">
        <ele>690.84</ele>
        <time>2019-01-25T11:32:59Z</time>
      </trkpt>
      <trkpt lat="43.79378" lon="5.26755">
        <ele>691.81</ele>
        <time>2019-01-25T11:33:11Z</time>
      </trkpt>
      <trkpt lat="43.79374" lon="5.26736">
        <ele>692.29</ele>
        <time>2019-01-25T11:33:26Z</time>
      </trkpt>
      <trkpt lat="43.79373" lon="5.26731">
        <ele>693.73</ele>
        <time>2019-01-25T11:33:30Z</time>
      </trkpt>
      <trkpt lat="43.79367" lon="5.26716">
        <ele>694.21</ele>
        <time>2019-01-25T11:33:44Z</time>
      </trkpt>
      <trkpt lat="43.79368" lon="5.26713">
        <ele>693.25</ele>
        <time>2019-01-25T11:34:01Z</time>
      </trkpt>
      <trkpt lat="43.79367" lon="5.26712">
        <ele>692.29</ele>
        <time>2019-01-25T11:34:05Z</time>
      </trkpt>
      <trkpt lat="43.79366" lon="5.2671">
        <ele>694.69</ele>
        <time>2019-01-25T11:34:07Z</time>
      </trkpt>
      <trkpt lat="43.79364" lon="5.26705">
        <ele>693.25</ele>
        <time>2019-01-25T11:34:11Z</time>
      </trkpt>
      <trkpt lat="43.79359" lon="5.26694">
        <ele>693.73</ele>
        <time>2019-01-25T11:34:21Z</time>
      </trkpt>
      <trkpt lat="43.79351" lon="5.26685">
        <ele>695.17</ele>
        <time>2019-01-25T11:34:32Z</time>
      </trkpt>
      <trkpt lat="43.7935" lon="5.26682">
        <ele>695.17</ele>
        <time>2019-01-25T11:34:56Z</time>
      </trkpt>
      <trkpt lat="43.7935" lon="5.26681">
        <ele>695.17</ele>
        <time>2019-01-25T11:35:03Z</time>
      </trkpt>
      <trkpt lat="43.79348" lon="5.26681">
        <ele>695.17</ele>
        <time>2019-01-25T11:35:20Z</time>
      </trkpt>
      <trkpt lat="43.79348" lon="5.26681">
        <ele>694.21</ele>
        <time>2019-01-25T11:35:52Z</time>
      </trkpt>
      <trkpt lat="43.79348" lon="5.26681">
        <ele>694.69</ele>
        <time>2019-01-25T11:36:19Z</time>
      </trkpt>
      <trkpt lat="43.79351" lon="5.2668">
        <ele>691.33</ele>
        <time>2019-01-25T11:36:24Z</time>
      </trkpt>
      <trkpt lat="43.79355" lon="5.26675">
        <ele>693.73</ele>
        <time>2019-01-25T11:36:30Z</time>
      </trkpt>
      <trkpt lat="43.79355" lon="5.26657">
        <ele>695.17</ele>
        <time>2019-01-25T11:36:46Z</time>
      </trkpt>
      <trkpt lat="43.79354" lon="5.26651">
        <ele>694.21</ele>
        <time>2019-01-25T11:36:50Z</time>
      </trkpt>
      <trkpt lat="43.79353" lon="5.26645">
        <ele>693.73</ele>
        <time>2019-01-25T11:36:54Z</time>
      </trkpt>
      <trkpt lat="43.79353" lon="5.26631">
        <ele>693.25</ele>
        <time>2019-01-25T11:37:05Z</time>
      </trkpt>
      <trkpt lat="43.79351" lon="5.2661">
        <ele>691.33</ele>
        <time>2019-01-25T11:37:22Z</time>
      </trkpt>
      <trkpt lat="43.7935" lon="5.26609">
        <ele>691.33</ele>
        <time>2019-01-25T11:37:23Z</time>
      </trkpt>
      <trkpt lat="43.79346" lon="5.26603">
        <ele>689.4</ele>
        <time>2019-01-25T11:37:37Z</time>
      </trkpt>
      <trkpt lat="43.79345" lon="5.26601">
        <ele>692.77</ele>
        <time>2019-01-25T11:37:50Z</time>
      </trkpt>
      <trkpt lat="43.79345" lon="5.26601">
        <ele>691.81</ele>
        <time>2019-01-25T11:37:51Z</time>
      </trkpt>
      <trkpt lat="43.79344" lon="5.26599">
        <ele>691.33</ele>
        <time>2019-01-25T11:38:11Z</time>
      </trkpt>
      <trkpt lat="43.79343" lon="5.266">
        <ele>689.4</ele>
        <time>2019-01-25T11:38:39Z</time>
      </trkpt>
      <trkpt lat="43.79343" lon="5.266">
        <ele>689.88</ele>
        <time>2019-01-25T11:39:06Z</time>
      </trkpt>
      <trkpt lat="43.79344" lon="5.266">
        <ele>688.92</ele>
        <time>2019-01-25T11:39:29Z</time>
      </trkpt>
      <trkpt lat="43.79344" lon="5.266">
        <ele>690.36</ele>
        <time>2019-01-25T11:39:55Z</time>
      </trkpt>
      <trkpt lat="43.79344" lon="5.266">
        <ele>692.29</ele>
        <time>2019-01-25T11:40:04Z</time>
      </trkpt>
      <trkpt lat="43.79344" lon="5.266">
        <ele>690.84</ele>
        <time>2019-01-25T11:40:06Z</time>
      </trkpt>
      <trkpt lat="43.79347" lon="5.26602">
        <ele>690.84</ele>
        <time>2019-01-25T11:40:23Z</time>
      </trkpt>
      <trkpt lat="43.79351" lon="5.26608">
        <ele>691.33</ele>
        <time>2019-01-25T11:40:39Z</time>
      </trkpt>
      <trkpt lat="43.79351" lon="5.26616">
        <ele>691.33</ele>
        <time>2019-01-25T11:40:52Z</time>
      </trkpt>
      <trkpt lat="43.79353" lon="5.26621">
        <ele>692.77</ele>
        <time>2019-01-25T11:41:00Z</time>
      </trkpt>
      <trkpt lat="43.79356" lon="5.26628">
        <ele>692.77</ele>
        <time>2019-01-25T11:41:11Z</time>
      </trkpt>
      <trkpt lat="43.79358" lon="5.26634">
        <ele>689.88</ele>
        <time>2019-01-25T11:41:21Z</time>
      </trkpt>
      <trkpt lat="43.7936" lon="5.26637">
        <ele>692.29</ele>
        <time>2019-01-25T11:41:24Z</time>
      </trkpt>
      <trkpt lat="43.79361" lon="5.26638">
        <ele>693.73</ele>
        <time>2019-01-25T11:41:27Z</time>
      </trkpt>
      <trkpt lat="43.79361" lon="5.26638">
        <ele>691.81</ele>
        <time>2019-01-25T11:41:32Z</time>
      </trkpt>
      <trkpt lat="43.79362" lon="5.2664">
        <ele>692.77</ele>
        <time>2019-01-25T11:41:35Z</time>
      </trkpt>
      <trkpt lat="43.79367" lon="5.26642">
        <ele>690.36</ele>
        <time>2019-01-25T11:41:39Z</time>
      </trkpt>
      <trkpt lat="43.79371" lon="5.26643">
        <ele>691.81</ele>
        <time>2019-01-25T11:41:44Z</time>
      </trkpt>
      <trkpt lat="43.79377" lon="5.26643">
        <ele>692.29</ele>
        <time>2019-01-25T11:41:51Z</time>
      </trkpt>
      <trkpt lat="43.79378" lon="5.26639">
        <ele>689.88</ele>
        <time>2019-01-25T11:41:55Z</time>
      </trkpt>
      <trkpt lat="43.7938" lon="5.26637">
        <ele>686.52</ele>
        <time>2019-01-25T11:41:58Z</time>
      </trkpt>
      <trkpt lat="43.7938" lon="5.26634">
        <ele>690.36</ele>
        <time>2019-01-25T11:42:00Z</time>
      </trkpt>
      <trkpt lat="43.79381" lon="5.26632">
        <ele>691.81</ele>
        <time>2019-01-25T11:42:02Z</time>
      </trkpt>
      <trkpt lat="43.79383" lon="5.26632">
        <ele>690.36</ele>
        <time>2019-01-25T11:42:05Z</time>
      </trkpt>
      <trkpt lat="43.79385" lon="5.26634">
        <ele>690.84</ele>
        <time>2019-01-25T11:42:09Z</time>
      </trkpt>
      <trkpt lat="43.79388" lon="5.26637">
        <ele>689.88</ele>
        <time>2019-01-25T11:42:14Z</time>
      </trkpt>
      <trkpt lat="43.7939" lon="5.26638">
        <ele>690.36</ele>
        <time>2019-01-25T11:42:15Z</time>
      </trkpt>
      <trkpt lat="43.79392" lon="5.26639">
        <ele>691.81</ele>
        <time>2019-01-25T11:42:25Z</time>
      </trkpt>
      <trkpt lat="43.79404" lon="5.26642">
        <ele>691.81</ele>
        <time>2019-01-25T11:42:37Z</time>
      </trkpt>
      <trkpt lat="43.79406" lon="5.26643">
        <ele>691.33</ele>
        <time>2019-01-25T11:42:39Z</time>
      </trkpt>
      <trkpt lat="43.79411" lon="5.26651">
        <ele>691.81</ele>
        <time>2019-01-25T11:42:46Z</time>
      </trkpt>
      <trkpt lat="43.79421" lon="5.26658">
        <ele>691.81</ele>
        <time>2019-01-25T11:42:58Z</time>
      </trkpt>
      <trkpt lat="43.79438" lon="5.2666">
        <ele>691.81</ele>
        <time>2019-01-25T11:43:12Z</time>
      </trkpt>
      <trkpt lat="43.79444" lon="5.26658">
        <ele>691.33</ele>
        <time>2019-01-25T11:43:25Z</time>
      </trkpt>
      <trkpt lat="43.79449" lon="5.26656">
        <ele>691.81</ele>
        <time>2019-01-25T11:43:35Z</time>
      </trkpt>
      <trkpt lat="43.79448" lon="5.26657">
        <ele>690.84</ele>
        <time>2019-01-25T11:43:52Z</time>
      </trkpt>
      <trkpt lat="43.79449" lon="5.26657">
        <ele>691.81</ele>
        <time>2019-01-25T11:44:10Z</time>
      </trkpt>
      <trkpt lat="43.79449" lon="5.26657">
        <ele>689.88</ele>
        <time>2019-01-25T11:44:19Z</time>
      </trkpt>
      <trkpt lat="43.79449" lon="5.26657">
        <ele>691.33</ele>
        <time>2019-01-25T11:44:22Z</time>
      </trkpt>
      <trkpt lat="43.79449" lon="5.26657">
        <ele>690.84</ele>
        <time>2019-01-25T11:44:43Z</time>
      </trkpt>
      <trkpt lat="43.79449" lon="5.26658">
        <ele>691.33</ele>
        <time>2019-01-25T11:44:58Z</time>
      </trkpt>
      <trkpt lat="43.79448" lon="5.26659">
        <ele>690.84</ele>
        <time>2019-01-25T11:45:15Z</time>
      </trkpt>
      <trkpt lat="43.79448" lon="5.26659">
        <ele>690.36</ele>
        <time>2019-01-25T11:45:34Z</time>
      </trkpt>
      <trkpt lat="43.79448" lon="5.2666">
        <ele>690.36</ele>
        <time>2019-01-25T11:45:52Z</time>
      </trkpt>
      <trkpt lat="43.79448" lon="5.2666">
        <ele>689.88</ele>
        <time>2019-01-25T11:46:12Z</time>
      </trkpt>
      <trkpt lat="43.79448" lon="5.26659">
        <ele>691.33</ele>
        <time>2019-01-25T11:46:15Z</time>
      </trkpt>
      <trkpt lat="43.79449" lon="5.26661">
        <ele>691.33</ele>
        <time>2019-01-25T11:46:31Z</time>
      </trkpt>
      <trkpt lat="43.79448" lon="5.26659">
        <ele>691.81</ele>
        <time>2019-01-25T11:46:49Z</time>
      </trkpt>
      <trkpt lat="43.79449" lon="5.26659">
        <ele>691.33</ele>
        <time>2019-01-25T11:47:09Z</time>
      </trkpt>
      <trkpt lat="43.79448" lon="5.26658">
        <ele>691.81</ele>
        <time>2019-01-25T11:47:30Z</time>
      </trkpt>
      <trkpt lat="43.7945" lon="5.26658">
        <ele>691.33</ele>
        <time>2019-01-25T11:47:51Z</time>
      </trkpt>
      <trkpt lat="43.79449" lon="5.26658">
        <ele>690.84</ele>
        <time>2019-01-25T11:48:12Z</time>
      </trkpt>
      <trkpt lat="43.79449" lon="5.26659">
        <ele>690.36</ele>
        <time>2019-01-25T11:48:33Z</time>
      </trkpt>
      <trkpt lat="43.79449" lon="5.26659">
        <ele>691.33</ele>
        <time>2019-01-25T11:48:52Z</time>
      </trkpt>
      <trkpt lat="43.79448" lon="5.26659">
        <ele>690.36</ele>
        <time>2019-01-25T11:49:09Z</time>
      </trkpt>
      <trkpt lat="43.79449" lon="5.26658">
        <ele>690.36</ele>
        <time>2019-01-25T11:49:35Z</time>
      </trkpt>
      <trkpt lat="43.79449" lon="5.2666">
        <ele>689.88</ele>
        <time>2019-01-25T11:49:51Z</time>
      </trkpt>
      <trkpt lat="43.7945" lon="5.26657">
        <ele>690.36</ele>
        <time>2019-01-25T11:50:08Z</time>
      </trkpt>
      <trkpt lat="43.79449" lon="5.26658">
        <ele>690.36</ele>
        <time>2019-01-25T11:50:36Z</time>
      </trkpt>
      <trkpt lat="43.79449" lon="5.26658">
        <ele>690.84</ele>
        <time>2019-01-25T11:51:03Z</time>
      </trkpt>
      <trkpt lat="43.79449" lon="5.26658">
        <ele>690.84</ele>
        <time>2019-01-25T11:51:36Z</time>
      </trkpt>
      <trkpt lat="43.79449" lon="5.26658">
        <ele>690.36</ele>
        <time>2019-01-25T11:52:08Z</time>
      </trkpt>
      <trkpt lat="43.79449" lon="5.26658">
        <ele>690.84</ele>
        <time>2019-01-25T11:52:31Z</time>
      </trkpt>
      <trkpt lat="43.79449" lon="5.26658">
        <ele>690.84</ele>
        <time>2019-01-25T11:52:47Z</time>
      </trkpt>
      <trkpt lat="43.79449" lon="5.26658">
        <ele>690.36</ele>
        <time>2019-01-25T11:53:23Z</time>
      </trkpt>
      <trkpt lat="43.79449" lon="5.26658">
        <ele>689.4</ele>
        <time>2019-01-25T11:53:49Z</time>
      </trkpt>
      <trkpt lat="43.79449" lon="5.26659">
        <ele>690.84</ele>
        <time>2019-01-25T11:54:33Z</time>
      </trkpt>
      <trkpt lat="43.79449" lon="5.26659">
        <ele>692.29</ele>
        <time>2019-01-25T11:55:06Z</time>
      </trkpt>
      <trkpt lat="43.79449" lon="5.26659">
        <ele>692.29</ele>
        <time>2019-01-25T11:55:28Z</time>
      </trkpt>
      <trkpt lat="43.7945" lon="5.26659">
        <ele>691.33</ele>
        <time>2019-01-25T11:55:52Z</time>
      </trkpt>
      <trkpt lat="43.7945" lon="5.2666">
        <ele>690.84</ele>
        <time>2019-01-25T11:56:07Z</time>
      </trkpt>
      <trkpt lat="43.7945" lon="5.26661">
        <ele>691.81</ele>
        <time>2019-01-25T11:56:35Z</time>
      </trkpt>
      <trkpt lat="43.7945" lon="5.2666">
        <ele>690.36</ele>
        <time>2019-01-25T11:57:04Z</time>
      </trkpt>
      <trkpt lat="43.79449" lon="5.2666">
        <ele>691.81</ele>
        <time>2019-01-25T11:57:29Z</time>
      </trkpt>
      <trkpt lat="43.79448" lon="5.26659">
        <ele>692.77</ele>
        <time>2019-01-25T11:57:33Z</time>
      </trkpt>
      <trkpt lat="43.79447" lon="5.26658">
        <ele>691.81</ele>
        <time>2019-01-25T11:57:57Z</time>
      </trkpt>
      <trkpt lat="43.79447" lon="5.26658">
        <ele>691.81</ele>
        <time>2019-01-25T11:58:15Z</time>
      </trkpt>
      <trkpt lat="43.79448" lon="5.26658">
        <ele>691.33</ele>
        <time>2019-01-25T11:58:36Z</time>
      </trkpt>
      <trkpt lat="43.79448" lon="5.26658">
        <ele>691.33</ele>
        <time>2019-01-25T11:59:04Z</time>
      </trkpt>
      <trkpt lat="43.79448" lon="5.2666">
        <ele>691.81</ele>
        <time>2019-01-25T11:59:35Z</time>
      </trkpt>
      <trkpt lat="43.79448" lon="5.2666">
        <ele>692.77</ele>
        <time>2019-01-25T11:59:43Z</time>
      </trkpt>
      <trkpt lat="43.79449" lon="5.26661">
        <ele>691.81</ele>
        <time>2019-01-25T12:00:17Z</time>
      </trkpt>
      <trkpt lat="43.7945" lon="5.2666">
        <ele>691.81</ele>
        <time>2019-01-25T12:00:45Z</time>
      </trkpt>
      <trkpt lat="43.7945" lon="5.2666">
        <ele>691.33</ele>
        <time>2019-01-25T12:01:18Z</time>
      </trkpt>
      <trkpt lat="43.7945" lon="5.26659">
        <ele>691.81</ele>
        <time>2019-01-25T12:01:34Z</time>
      </trkpt>
      <trkpt lat="43.79451" lon="5.2666">
        <ele>691.81</ele>
        <time>2019-01-25T12:02:01Z</time>
      </trkpt>
      <trkpt lat="43.7945" lon="5.26659">
        <ele>691.81</ele>
        <time>2019-01-25T12:02:25Z</time>
      </trkpt>
      <trkpt lat="43.7945" lon="5.26659">
        <ele>691.81</ele>
        <time>2019-01-25T12:02:56Z</time>
      </trkpt>
      <trkpt lat="43.7945" lon="5.2666">
        <ele>692.29</ele>
        <time>2019-01-25T12:03:23Z</time>
      </trkpt>
      <trkpt lat="43.7945" lon="5.26658">
        <ele>691.81</ele>
        <time>2019-01-25T12:03:43Z</time>
      </trkpt>
      <trkpt lat="43.79449" lon="5.26659">
        <ele>692.29</ele>
        <time>2019-01-25T12:03:59Z</time>
      </trkpt>
      <trkpt lat="43.79448" lon="5.26659">
        <ele>693.73</ele>
        <time>2019-01-25T12:04:12Z</time>
      </trkpt>
      <trkpt lat="43.79445" lon="5.26659">
        <ele>692.77</ele>
        <time>2019-01-25T12:04:28Z</time>
      </trkpt>
      <trkpt lat="43.79448" lon="5.26659">
        <ele>692.77</ele>
        <time>2019-01-25T12:04:41Z</time>
      </trkpt>
      <trkpt lat="43.79449" lon="5.26658">
        <ele>692.29</ele>
        <time>2019-01-25T12:05:03Z</time>
      </trkpt>
      <trkpt lat="43.79449" lon="5.26657">
        <ele>692.29</ele>
        <time>2019-01-25T12:05:23Z</time>
      </trkpt>
      <trkpt lat="43.79449" lon="5.26657">
        <ele>692.29</ele>
        <time>2019-01-25T12:05:46Z</time>
      </trkpt>
      <trkpt lat="43.79449" lon="5.26657">
        <ele>691.81</ele>
        <time>2019-01-25T12:06:04Z</time>
      </trkpt>
      <trkpt lat="43.79449" lon="5.26658">
        <ele>692.77</ele>
        <time>2019-01-25T12:06:23Z</time>
      </trkpt>
      <trkpt lat="43.79449" lon="5.26659">
        <ele>691.81</ele>
        <time>2019-01-25T12:06:38Z</time>
      </trkpt>
      <trkpt lat="43.79451" lon="5.26659">
        <ele>692.29</ele>
        <time>2019-01-25T12:07:00Z</time>
      </trkpt>
      <trkpt lat="43.79451" lon="5.2666">
        <ele>693.25</ele>
        <time>2019-01-25T12:07:14Z</time>
      </trkpt>
      <trkpt lat="43.79451" lon="5.2666">
        <ele>692.77</ele>
        <time>2019-01-25T12:07:35Z</time>
      </trkpt>
      <trkpt lat="43.79451" lon="5.2666">
        <ele>692.77</ele>
        <time>2019-01-25T12:08:04Z</time>
      </trkpt>
      <trkpt lat="43.79451" lon="5.2666">
        <ele>692.29</ele>
        <time>2019-01-25T12:08:21Z</time>
      </trkpt>
      <trkpt lat="43.79451" lon="5.2666">
        <ele>691.81</ele>
        <time>2019-01-25T12:08:45Z</time>
      </trkpt>
      <trkpt lat="43.7945" lon="5.2666">
        <ele>692.29</ele>
        <time>2019-01-25T12:09:22Z</time>
      </trkpt>
      <trkpt lat="43.7945" lon="5.26657">
        <ele>691.33</ele>
        <time>2019-01-25T12:09:51Z</time>
      </trkpt>
      <trkpt lat="43.7945" lon="5.26657">
        <ele>693.25</ele>
        <time>2019-01-25T12:10:12Z</time>
      </trkpt>
      <trkpt lat="43.7945" lon="5.26658">
        <ele>692.29</ele>
        <time>2019-01-25T12:10:44Z</time>
      </trkpt>
      <trkpt lat="43.7945" lon="5.26658">
        <ele>692.77</ele>
        <time>2019-01-25T12:11:08Z</time>
      </trkpt>
      <trkpt lat="43.7945" lon="5.26658">
        <ele>692.29</ele>
        <time>2019-01-25T12:11:24Z</time>
      </trkpt>
      <trkpt lat="43.7945" lon="5.26659">
        <ele>694.21</ele>
        <time>2019-01-25T12:11:55Z</time>
      </trkpt>
      <trkpt lat="43.7945" lon="5.26659">
        <ele>693.25</ele>
        <time>2019-01-25T12:12:30Z</time>
      </trkpt>
      <trkpt lat="43.7945" lon="5.2666">
        <ele>693.25</ele>
        <time>2019-01-25T12:12:55Z</time>
      </trkpt>
      <trkpt lat="43.7945" lon="5.26661">
        <ele>692.77</ele>
        <time>2019-01-25T12:13:17Z</time>
      </trkpt>
      <trkpt lat="43.79448" lon="5.26661">
        <ele>692.29</ele>
        <time>2019-01-25T12:13:30Z</time>
      </trkpt>
      <trkpt lat="43.79447" lon="5.26661">
        <ele>692.29</ele>
        <time>2019-01-25T12:13:48Z</time>
      </trkpt>
      <trkpt lat="43.79447" lon="5.2666">
        <ele>692.29</ele>
        <time>2019-01-25T12:14:07Z</time>
      </trkpt>
      <trkpt lat="43.79448" lon="5.2666">
        <ele>694.21</ele>
        <time>2019-01-25T12:14:24Z</time>
      </trkpt>
      <trkpt lat="43.79448" lon="5.2666">
        <ele>693.25</ele>
        <time>2019-01-25T12:14:43Z</time>
      </trkpt>
      <trkpt lat="43.79448" lon="5.26659">
        <ele>692.77</ele>
        <time>2019-01-25T12:15:00Z</time>
      </trkpt>
      <trkpt lat="43.79448" lon="5.26659">
        <ele>692.29</ele>
        <time>2019-01-25T12:15:02Z</time>
      </trkpt>
      <trkpt lat="43.79447" lon="5.26658">
        <ele>692.29</ele>
        <time>2019-01-25T12:15:25Z</time>
      </trkpt>
      <trkpt lat="43.79448" lon="5.26659">
        <ele>691.81</ele>
        <time>2019-01-25T12:15:44Z</time>
      </trkpt>
      <trkpt lat="43.79448" lon="5.26659">
        <ele>693.25</ele>
        <time>2019-01-25T12:15:47Z</time>
      </trkpt>
      <trkpt lat="43.79448" lon="5.26659">
        <ele>693.25</ele>
        <time>2019-01-25T12:16:07Z</time>
      </trkpt>
      <trkpt lat="43.79448" lon="5.26659">
        <ele>693.73</ele>
        <time>2019-01-25T12:16:09Z</time>
      </trkpt>
      <trkpt lat="43.7945" lon="5.26659">
        <ele>692.29</ele>
        <time>2019-01-25T12:16:35Z</time>
      </trkpt>
      <trkpt lat="43.79452" lon="5.26659">
        <ele>692.29</ele>
        <time>2019-01-25T12:16:53Z</time>
      </trkpt>
      <trkpt lat="43.79452" lon="5.26659">
        <ele>692.29</ele>
        <time>2019-01-25T12:17:22Z</time>
      </trkpt>
      <trkpt lat="43.79451" lon="5.2666">
        <ele>691.81</ele>
        <time>2019-01-25T12:17:41Z</time>
      </trkpt>
      <trkpt lat="43.7945" lon="5.2666">
        <ele>692.29</ele>
        <time>2019-01-25T12:18:00Z</time>
      </trkpt>
      <trkpt lat="43.79449" lon="5.26659">
        <ele>692.77</ele>
        <time>2019-01-25T12:18:16Z</time>
      </trkpt>
      <trkpt lat="43.79446" lon="5.26658">
        <ele>693.25</ele>
        <time>2019-01-25T12:18:30Z</time>
      </trkpt>
      <trkpt lat="43.79446" lon="5.26659">
        <ele>692.77</ele>
        <time>2019-01-25T12:18:50Z</time>
      </trkpt>
      <trkpt lat="43.79446" lon="5.26659">
        <ele>692.77</ele>
        <time>2019-01-25T12:19:17Z</time>
      </trkpt>
      <trkpt lat="43.79447" lon="5.26659">
        <ele>693.25</ele>
        <time>2019-01-25T12:19:39Z</time>
      </trkpt>
      <trkpt lat="43.79449" lon="5.2666">
        <ele>693.25</ele>
        <time>2019-01-25T12:20:09Z</time>
      </trkpt>
      <trkpt lat="43.79449" lon="5.26661">
        <ele>692.77</ele>
        <time>2019-01-25T12:20:36Z</time>
      </trkpt>
      <trkpt lat="43.79449" lon="5.2666">
        <ele>693.25</ele>
        <time>2019-01-25T12:20:56Z</time>
      </trkpt>
      <trkpt lat="43.7945" lon="5.2666">
        <ele>693.25</ele>
        <time>2019-01-25T12:21:21Z</time>
      </trkpt>
      <trkpt lat="43.79449" lon="5.26659">
        <ele>693.25</ele>
        <time>2019-01-25T12:21:46Z</time>
      </trkpt>
      <trkpt lat="43.79449" lon="5.2666">
        <ele>694.21</ele>
        <time>2019-01-25T12:22:02Z</time>
      </trkpt>
      <trkpt lat="43.79449" lon="5.2666">
        <ele>693.25</ele>
        <time>2019-01-25T12:22:31Z</time>
      </trkpt>
      <trkpt lat="43.79449" lon="5.26659">
        <ele>693.25</ele>
        <time>2019-01-25T12:23:02Z</time>
      </trkpt>
      <trkpt lat="43.7945" lon="5.2666">
        <ele>693.73</ele>
        <time>2019-01-25T12:23:27Z</time>
      </trkpt>
      <trkpt lat="43.79449" lon="5.26659">
        <ele>693.73</ele>
        <time>2019-01-25T12:23:46Z</time>
      </trkpt>
      <trkpt lat="43.79449" lon="5.2666">
        <ele>693.25</ele>
        <time>2019-01-25T12:24:20Z</time>
      </trkpt>
      <trkpt lat="43.79449" lon="5.2666">
        <ele>695.17</ele>
        <time>2019-01-25T12:24:24Z</time>
      </trkpt>
      <trkpt lat="43.79449" lon="5.2666">
        <ele>693.25</ele>
        <time>2019-01-25T12:24:45Z</time>
      </trkpt>
      <trkpt lat="43.7945" lon="5.2666">
        <ele>692.77</ele>
        <time>2019-01-25T12:25:14Z</time>
      </trkpt>
      <trkpt lat="43.7945" lon="5.2666">
        <ele>693.73</ele>
        <time>2019-01-25T12:25:36Z</time>
      </trkpt>
      <trkpt lat="43.7945" lon="5.26661">
        <ele>694.21</ele>
        <time>2019-01-25T12:26:07Z</time>
      </trkpt>
      <trkpt lat="43.79451" lon="5.26661">
        <ele>693.73</ele>
        <time>2019-01-25T12:26:38Z</time>
      </trkpt>
      <trkpt lat="43.79451" lon="5.2666">
        <ele>694.21</ele>
        <time>2019-01-25T12:27:11Z</time>
      </trkpt>
      <trkpt lat="43.79451" lon="5.2666">
        <ele>694.21</ele>
        <time>2019-01-25T12:27:41Z</time>
      </trkpt>
      <trkpt lat="43.7945" lon="5.26661">
        <ele>694.21</ele>
        <time>2019-01-25T12:28:15Z</time>
      </trkpt>
      <trkpt lat="43.79451" lon="5.26661">
        <ele>693.73</ele>
        <time>2019-01-25T12:28:32Z</time>
      </trkpt>
      <trkpt lat="43.79451" lon="5.2666">
        <ele>694.69</ele>
        <time>2019-01-25T12:29:02Z</time>
      </trkpt>
      <trkpt lat="43.79451" lon="5.2666">
        <ele>693.73</ele>
        <time>2019-01-25T12:29:18Z</time>
      </trkpt>
      <trkpt lat="43.79451" lon="5.2666">
        <ele>694.69</ele>
        <time>2019-01-25T12:29:41Z</time>
      </trkpt>
      <trkpt lat="43.79451" lon="5.2666">
        <ele>693.25</ele>
        <time>2019-01-25T12:30:02Z</time>
      </trkpt>
      <trkpt lat="43.7945" lon="5.2666">
        <ele>693.25</ele>
        <time>2019-01-25T12:30:22Z</time>
      </trkpt>
      <trkpt lat="43.7945" lon="5.2666">
        <ele>693.25</ele>
        <time>2019-01-25T12:30:40Z</time>
      </trkpt>
      <trkpt lat="43.7945" lon="5.26661">
        <ele>692.77</ele>
        <time>2019-01-25T12:31:00Z</time>
      </trkpt>
      <trkpt lat="43.7945" lon="5.26661">
        <ele>694.69</ele>
        <time>2019-01-25T12:31:22Z</time>
      </trkpt>
      <trkpt lat="43.79448" lon="5.26661">
        <ele>694.21</ele>
        <time>2019-01-25T12:31:41Z</time>
      </trkpt>
      <trkpt lat="43.79448" lon="5.2666">
        <ele>694.21</ele>
        <time>2019-01-25T12:31:56Z</time>
      </trkpt>
      <trkpt lat="43.79448" lon="5.2666">
        <ele>695.17</ele>
        <time>2019-01-25T12:32:20Z</time>
      </trkpt>
      <trkpt lat="43.79449" lon="5.2666">
        <ele>695.17</ele>
        <time>2019-01-25T12:32:36Z</time>
      </trkpt>
      <trkpt lat="43.7945" lon="5.26661">
        <ele>695.65</ele>
        <time>2019-01-25T12:32:55Z</time>
      </trkpt>
      <trkpt lat="43.79451" lon="5.2666">
        <ele>695.65</ele>
        <time>2019-01-25T12:33:18Z</time>
      </trkpt>
      <trkpt lat="43.7945" lon="5.2666">
        <ele>695.65</ele>
        <time>2019-01-25T12:33:37Z</time>
      </trkpt>
      <trkpt lat="43.7945" lon="5.2666">
        <ele>695.17</ele>
        <time>2019-01-25T12:33:52Z</time>
      </trkpt>
      <trkpt lat="43.7945" lon="5.26659">
        <ele>696.13</ele>
        <time>2019-01-25T12:33:54Z</time>
      </trkpt>
      <trkpt lat="43.79449" lon="5.2666">
        <ele>695.17</ele>
        <time>2019-01-25T12:34:11Z</time>
      </trkpt>
      <trkpt lat="43.79449" lon="5.26661">
        <ele>697.09</ele>
        <time>2019-01-25T12:34:33Z</time>
      </trkpt>
      <trkpt lat="43.79449" lon="5.26661">
        <ele>695.17</ele>
        <time>2019-01-25T12:34:39Z</time>
      </trkpt>
      <trkpt lat="43.79449" lon="5.2666">
        <ele>696.13</ele>
        <time>2019-01-25T12:34:53Z</time>
      </trkpt>
      <trkpt lat="43.79449" lon="5.26659">
        <ele>695.17</ele>
        <time>2019-01-25T12:35:18Z</time>
      </trkpt>
      <trkpt lat="43.79449" lon="5.26659">
        <ele>695.65</ele>
        <time>2019-01-25T12:35:38Z</time>
      </trkpt>
      <trkpt lat="43.79449" lon="5.26659">
        <ele>696.13</ele>
        <time>2019-01-25T12:36:05Z</time>
      </trkpt>
      <trkpt lat="43.79449" lon="5.26659">
        <ele>696.13</ele>
        <time>2019-01-25T12:36:27Z</time>
      </trkpt>
      <trkpt lat="43.79449" lon="5.2666">
        <ele>696.13</ele>
        <time>2019-01-25T12:36:45Z</time>
      </trkpt>
      <trkpt lat="43.79449" lon="5.26659">
        <ele>696.13</ele>
        <time>2019-01-25T12:37:05Z</time>
      </trkpt>
      <trkpt lat="43.79448" lon="5.26659">
        <ele>695.17</ele>
        <time>2019-01-25T12:37:33Z</time>
      </trkpt>
      <trkpt lat="43.79448" lon="5.26659">
        <ele>695.65</ele>
        <time>2019-01-25T12:38:05Z</time>
      </trkpt>
      <trkpt lat="43.79448" lon="5.26659">
        <ele>695.17</ele>
        <time>2019-01-25T12:38:31Z</time>
      </trkpt>
      <trkpt lat="43.79448" lon="5.26659">
        <ele>694.69</ele>
        <time>2019-01-25T12:38:36Z</time>
      </trkpt>
      <trkpt lat="43.7945" lon="5.26661">
        <ele>694.69</ele>
        <time>2019-01-25T12:38:40Z</time>
      </trkpt>
      <trkpt lat="43.79452" lon="5.26662">
        <ele>693.73</ele>
        <time>2019-01-25T12:38:44Z</time>
      </trkpt>
      <trkpt lat="43.79463" lon="5.26665">
        <ele>695.17</ele>
        <time>2019-01-25T12:38:59Z</time>
      </trkpt>
      <trkpt lat="43.79469" lon="5.26667">
        <ele>694.21</ele>
        <time>2019-01-25T12:39:07Z</time>
      </trkpt>
      <trkpt lat="43.79471" lon="5.26667">
        <ele>695.65</ele>
        <time>2019-01-25T12:39:10Z</time>
      </trkpt>
      <trkpt lat="43.79473" lon="5.26667">
        <ele>695.65</ele>
        <time>2019-01-25T12:39:12Z</time>
      </trkpt>
      <trkpt lat="43.79476" lon="5.26665">
        <ele>694.21</ele>
        <time>2019-01-25T12:39:19Z</time>
      </trkpt>
      <trkpt lat="43.79492" lon="5.26667">
        <ele>693.73</ele>
        <time>2019-01-25T12:39:32Z</time>
      </trkpt>
      <trkpt lat="43.79493" lon="5.26667">
        <ele>693.25</ele>
        <time>2019-01-25T12:39:37Z</time>
      </trkpt>
      <trkpt lat="43.79496" lon="5.26668">
        <ele>693.73</ele>
        <time>2019-01-25T12:39:39Z</time>
      </trkpt>
      <trkpt lat="43.79513" lon="5.26676">
        <ele>692.77</ele>
        <time>2019-01-25T12:39:51Z</time>
      </trkpt>
      <trkpt lat="43.79515" lon="5.26676">
        <ele>692.77</ele>
        <time>2019-01-25T12:39:55Z</time>
      </trkpt>
      <trkpt lat="43.79524" lon="5.26676">
        <ele>693.25</ele>
        <time>2019-01-25T12:40:01Z</time>
      </trkpt>
      <trkpt lat="43.7953" lon="5.26674">
        <ele>691.81</ele>
        <time>2019-01-25T12:40:11Z</time>
      </trkpt>
      <trkpt lat="43.79533" lon="5.26672">
        <ele>693.73</ele>
        <time>2019-01-25T12:40:16Z</time>
      </trkpt>
      <trkpt lat="43.79536" lon="5.26671">
        <ele>692.77</ele>
        <time>2019-01-25T12:40:19Z</time>
      </trkpt>
      <trkpt lat="43.79549" lon="5.2667">
        <ele>692.77</ele>
        <time>2019-01-25T12:40:34Z</time>
      </trkpt>
      <trkpt lat="43.79564" lon="5.26669">
        <ele>692.77</ele>
        <time>2019-01-25T12:40:44Z</time>
      </trkpt>
      <trkpt lat="43.79588" lon="5.26666">
        <ele>692.77</ele>
        <time>2019-01-25T12:40:58Z</time>
      </trkpt>
      <trkpt lat="43.7959" lon="5.26666">
        <ele>693.25</ele>
        <time>2019-01-25T12:41:00Z</time>
      </trkpt>
      <trkpt lat="43.79606" lon="5.26669">
        <ele>692.77</ele>
        <time>2019-01-25T12:41:14Z</time>
      </trkpt>
      <trkpt lat="43.79618" lon="5.26669">
        <ele>693.73</ele>
        <time>2019-01-25T12:41:21Z</time>
      </trkpt>
      <trkpt lat="43.79635" lon="5.26671">
        <ele>693.25</ele>
        <time>2019-01-25T12:41:35Z</time>
      </trkpt>
      <trkpt lat="43.79642" lon="5.2667">
        <ele>694.21</ele>
        <time>2019-01-25T12:41:46Z</time>
      </trkpt>
      <trkpt lat="43.79647" lon="5.26667">
        <ele>695.17</ele>
        <time>2019-01-25T12:42:00Z</time>
      </trkpt>
      <trkpt lat="43.79652" lon="5.26665">
        <ele>694.69</ele>
        <time>2019-01-25T12:42:12Z</time>
      </trkpt>
      <trkpt lat="43.79659" lon="5.26662">
        <ele>696.61</ele>
        <time>2019-01-25T12:42:18Z</time>
      </trkpt>
      <trkpt lat="43.79669" lon="5.26657">
        <ele>697.09</ele>
        <time>2019-01-25T12:42:27Z</time>
      </trkpt>
      <trkpt lat="43.79679" lon="5.26656">
        <ele>696.61</ele>
        <time>2019-01-25T12:42:37Z</time>
      </trkpt>
      <trkpt lat="43.79682" lon="5.26656">
        <ele>697.57</ele>
        <time>2019-01-25T12:42:40Z</time>
      </trkpt>
      <trkpt lat="43.79684" lon="5.26656">
        <ele>697.57</ele>
        <time>2019-01-25T12:42:42Z</time>
      </trkpt>
      <trkpt lat="43.79697" lon="5.26658">
        <ele>698.05</ele>
        <time>2019-01-25T12:42:55Z</time>
      </trkpt>
      <trkpt lat="43.79699" lon="5.26659">
        <ele>698.05</ele>
        <time>2019-01-25T12:42:56Z</time>
      </trkpt>
      <trkpt lat="43.7972" lon="5.26664">
        <ele>699.5</ele>
        <time>2019-01-25T12:43:10Z</time>
      </trkpt>
      <trkpt lat="43.79722" lon="5.26665">
        <ele>699.5</ele>
        <time>2019-01-25T12:43:11Z</time>
      </trkpt>
      <trkpt lat="43.79736" lon="5.26671">
        <ele>699.98</ele>
        <time>2019-01-25T12:43:23Z</time>
      </trkpt>
      <trkpt lat="43.79743" lon="5.26674">
        <ele>699.5</ele>
        <time>2019-01-25T12:43:36Z</time>
      </trkpt>
      <trkpt lat="43.79756" lon="5.26677">
        <ele>699.98</ele>
        <time>2019-01-25T12:43:49Z</time>
      </trkpt>
      <trkpt lat="43.79762" lon="5.26679">
        <ele>700.46</ele>
        <time>2019-01-25T12:43:54Z</time>
      </trkpt>
      <trkpt lat="43.79764" lon="5.26679">
        <ele>700.94</ele>
        <time>2019-01-25T12:43:56Z</time>
      </trkpt>
      <trkpt lat="43.79772" lon="5.26683">
        <ele>699.98</ele>
        <time>2019-01-25T12:44:03Z</time>
      </trkpt>
      <trkpt lat="43.79775" lon="5.26683">
        <ele>699.5</ele>
        <time>2019-01-25T12:44:06Z</time>
      </trkpt>
      <trkpt lat="43.79779" lon="5.26684">
        <ele>700.46</ele>
        <time>2019-01-25T12:44:09Z</time>
      </trkpt>
      <trkpt lat="43.79796" lon="5.2669">
        <ele>700.94</ele>
        <time>2019-01-25T12:44:21Z</time>
      </trkpt>
      <trkpt lat="43.79797" lon="5.2669">
        <ele>700.94</ele>
        <time>2019-01-25T12:44:22Z</time>
      </trkpt>
      <trkpt lat="43.79816" lon="5.26694">
        <ele>701.9</ele>
        <time>2019-01-25T12:44:35Z</time>
      </trkpt>
      <trkpt lat="43.79817" lon="5.26696">
        <ele>701.9</ele>
        <time>2019-01-25T12:44:36Z</time>
      </trkpt>
      <trkpt lat="43.79833" lon="5.26698">
        <ele>702.38</ele>
        <time>2019-01-25T12:44:50Z</time>
      </trkpt>
      <trkpt lat="43.79837" lon="5.26701">
        <ele>702.38</ele>
        <time>2019-01-25T12:44:54Z</time>
      </trkpt>
      <trkpt lat="43.79844" lon="5.26703">
        <ele>702.86</ele>
        <time>2019-01-25T12:44:59Z</time>
      </trkpt>
      <trkpt lat="43.79859" lon="5.26709">
        <ele>703.34</ele>
        <time>2019-01-25T12:45:10Z</time>
      </trkpt>
      <trkpt lat="43.7986" lon="5.26709">
        <ele>704.3</ele>
        <time>2019-01-25T12:45:13Z</time>
      </trkpt>
      <trkpt lat="43.79869" lon="5.26712">
        <ele>703.34</ele>
        <time>2019-01-25T12:45:19Z</time>
      </trkpt>
      <trkpt lat="43.79877" lon="5.26714">
        <ele>703.34</ele>
        <time>2019-01-25T12:45:23Z</time>
      </trkpt>
      <trkpt lat="43.79893" lon="5.26716">
        <ele>704.3</ele>
        <time>2019-01-25T12:45:38Z</time>
      </trkpt>
      <trkpt lat="43.79908" lon="5.26717">
        <ele>704.78</ele>
        <time>2019-01-25T12:45:52Z</time>
      </trkpt>
      <trkpt lat="43.79918" lon="5.26719">
        <ele>704.78</ele>
        <time>2019-01-25T12:45:59Z</time>
      </trkpt>
      <trkpt lat="43.79938" lon="5.26723">
        <ele>704.78</ele>
        <time>2019-01-25T12:46:15Z</time>
      </trkpt>
      <trkpt lat="43.79943" lon="5.26725">
        <ele>705.26</ele>
        <time>2019-01-25T12:46:32Z</time>
      </trkpt>
      <trkpt lat="43.79944" lon="5.26724">
        <ele>704.78</ele>
        <time>2019-01-25T12:46:35Z</time>
      </trkpt>
      <trkpt lat="43.79959" lon="5.26725">
        <ele>705.75</ele>
        <time>2019-01-25T12:46:49Z</time>
      </trkpt>
      <trkpt lat="43.7998" lon="5.26726">
        <ele>705.26</ele>
        <time>2019-01-25T12:47:01Z</time>
      </trkpt>
      <trkpt lat="43.79988" lon="5.26727">
        <ele>705.75</ele>
        <time>2019-01-25T12:47:09Z</time>
      </trkpt>
      <trkpt lat="43.80006" lon="5.26727">
        <ele>706.23</ele>
        <time>2019-01-25T12:47:24Z</time>
      </trkpt>
      <trkpt lat="43.80012" lon="5.26729">
        <ele>705.75</ele>
        <time>2019-01-25T12:47:27Z</time>
      </trkpt>
      <trkpt lat="43.80017" lon="5.26729">
        <ele>706.23</ele>
        <time>2019-01-25T12:47:40Z</time>
      </trkpt>
      <trkpt lat="43.80038" lon="5.26729">
        <ele>706.71</ele>
        <time>2019-01-25T12:47:54Z</time>
      </trkpt>
      <trkpt lat="43.80055" lon="5.26728">
        <ele>707.67</ele>
        <time>2019-01-25T12:48:05Z</time>
      </trkpt>
      <trkpt lat="43.80066" lon="5.26725">
        <ele>707.67</ele>
        <time>2019-01-25T12:48:15Z</time>
      </trkpt>
      <trkpt lat="43.80069" lon="5.26724">
        <ele>707.67</ele>
        <time>2019-01-25T12:48:20Z</time>
      </trkpt>
      <trkpt lat="43.80071" lon="5.26723">
        <ele>707.67</ele>
        <time>2019-01-25T12:48:22Z</time>
      </trkpt>
      <trkpt lat="43.80092" lon="5.2672">
        <ele>708.63</ele>
        <time>2019-01-25T12:48:37Z</time>
      </trkpt>
      <trkpt lat="43.80097" lon="5.2672">
        <ele>708.15</ele>
        <time>2019-01-25T12:48:51Z</time>
      </trkpt>
      <trkpt lat="43.80095" lon="5.26714">
        <ele>708.15</ele>
        <time>2019-01-25T12:48:55Z</time>
      </trkpt>
      <trkpt lat="43.80091" lon="5.267">
        <ele>709.11</ele>
        <time>2019-01-25T12:49:08Z</time>
      </trkpt>
      <trkpt lat="43.8009" lon="5.26699">
        <ele>709.11</ele>
        <time>2019-01-25T12:49:09Z</time>
      </trkpt>
      <trkpt lat="43.80087" lon="5.26692">
        <ele>709.11</ele>
        <time>2019-01-25T12:49:15Z</time>
      </trkpt>
      <trkpt lat="43.8008" lon="5.26676">
        <ele>709.11</ele>
        <time>2019-01-25T12:49:26Z</time>
      </trkpt>
      <trkpt lat="43.80077" lon="5.26667">
        <ele>709.11</ele>
        <time>2019-01-25T12:49:30Z</time>
      </trkpt>
      <trkpt lat="43.80073" lon="5.26655">
        <ele>708.63</ele>
        <time>2019-01-25T12:49:37Z</time>
      </trkpt>
      <trkpt lat="43.80071" lon="5.26651">
        <ele>708.63</ele>
        <time>2019-01-25T12:49:40Z</time>
      </trkpt>
      <trkpt lat="43.80069" lon="5.26645">
        <ele>708.63</ele>
        <time>2019-01-25T12:49:44Z</time>
      </trkpt>
      <trkpt lat="43.8006" lon="5.26622">
        <ele>707.67</ele>
        <time>2019-01-25T12:49:59Z</time>
      </trkpt>
      <trkpt lat="43.80054" lon="5.26604">
        <ele>707.19</ele>
        <time>2019-01-25T12:50:12Z</time>
      </trkpt>
      <trkpt lat="43.80052" lon="5.26597">
        <ele>706.71</ele>
        <time>2019-01-25T12:50:17Z</time>
      </trkpt>
      <trkpt lat="43.80046" lon="5.26571">
        <ele>705.75</ele>
        <time>2019-01-25T12:50:32Z</time>
      </trkpt>
      <trkpt lat="43.80044" lon="5.26557">
        <ele>704.3</ele>
        <time>2019-01-25T12:50:47Z</time>
      </trkpt>
      <trkpt lat="43.80038" lon="5.26526">
        <ele>703.82</ele>
        <time>2019-01-25T12:51:02Z</time>
      </trkpt>
      <trkpt lat="43.80032" lon="5.26494">
        <ele>702.86</ele>
        <time>2019-01-25T12:51:19Z</time>
      </trkpt>
      <trkpt lat="43.80024" lon="5.26461">
        <ele>702.38</ele>
        <time>2019-01-25T12:51:36Z</time>
      </trkpt>
      <trkpt lat="43.80022" lon="5.26456">
        <ele>701.9</ele>
        <time>2019-01-25T12:51:38Z</time>
      </trkpt>
      <trkpt lat="43.80014" lon="5.26429">
        <ele>700.46</ele>
        <time>2019-01-25T12:51:54Z</time>
      </trkpt>
      <trkpt lat="43.80008" lon="5.26404">
        <ele>699.5</ele>
        <time>2019-01-25T12:52:08Z</time>
      </trkpt>
      <trkpt lat="43.80004" lon="5.26392">
        <ele>698.05</ele>
        <time>2019-01-25T12:52:17Z</time>
      </trkpt>
      <trkpt lat="43.79997" lon="5.26361">
        <ele>698.53</ele>
        <time>2019-01-25T12:52:35Z</time>
      </trkpt>
      <trkpt lat="43.79989" lon="5.2634">
        <ele>698.05</ele>
        <time>2019-01-25T12:52:47Z</time>
      </trkpt>
      <trkpt lat="43.79984" lon="5.26331">
        <ele>697.57</ele>
        <time>2019-01-25T12:52:53Z</time>
      </trkpt>
      <trkpt lat="43.79976" lon="5.26306">
        <ele>696.61</ele>
        <time>2019-01-25T12:53:09Z</time>
      </trkpt>
      <trkpt lat="43.79975" lon="5.26304">
        <ele>696.13</ele>
        <time>2019-01-25T12:53:10Z</time>
      </trkpt>
      <trkpt lat="43.79969" lon="5.26293">
        <ele>696.13</ele>
        <time>2019-01-25T12:53:17Z</time>
      </trkpt>
      <trkpt lat="43.79963" lon="5.26275">
        <ele>695.17</ele>
        <time>2019-01-25T12:53:28Z</time>
      </trkpt>
      <trkpt lat="43.7996" lon="5.2626">
        <ele>695.65</ele>
        <time>2019-01-25T12:53:40Z</time>
      </trkpt>
      <trkpt lat="43.79954" lon="5.26245">
        <ele>695.17</ele>
        <time>2019-01-25T12:53:53Z</time>
      </trkpt>
      <trkpt lat="43.79946" lon="5.26214">
        <ele>691.81</ele>
        <time>2019-01-25T12:54:12Z</time>
      </trkpt>
      <trkpt lat="43.79938" lon="5.26187">
        <ele>691.33</ele>
        <time>2019-01-25T12:54:27Z</time>
      </trkpt>
      <trkpt lat="43.79937" lon="5.26183">
        <ele>690.84</ele>
        <time>2019-01-25T12:54:30Z</time>
      </trkpt>
      <trkpt lat="43.79929" lon="5.26152">
        <ele>688.92</ele>
        <time>2019-01-25T12:54:47Z</time>
      </trkpt>
      <trkpt lat="43.79926" lon="5.26137">
        <ele>688.44</ele>
        <time>2019-01-25T12:54:57Z</time>
      </trkpt>
      <trkpt lat="43.79918" lon="5.26106">
        <ele>686.04</ele>
        <time>2019-01-25T12:55:14Z</time>
      </trkpt>
      <trkpt lat="43.79917" lon="5.26102">
        <ele>687.48</ele>
        <time>2019-01-25T12:55:17Z</time>
      </trkpt>
      <trkpt lat="43.79915" lon="5.26093">
        <ele>688.44</ele>
        <time>2019-01-25T12:55:22Z</time>
      </trkpt>
      <trkpt lat="43.7991" lon="5.26073">
        <ele>685.08</ele>
        <time>2019-01-25T12:55:35Z</time>
      </trkpt>
      <trkpt lat="43.79908" lon="5.26058">
        <ele>683.63</ele>
        <time>2019-01-25T12:55:44Z</time>
      </trkpt>
      <trkpt lat="43.79904" lon="5.26047">
        <ele>683.15</ele>
        <time>2019-01-25T12:55:51Z</time>
      </trkpt>
      <trkpt lat="43.79901" lon="5.26033">
        <ele>682.19</ele>
        <time>2019-01-25T12:56:00Z</time>
      </trkpt>
      <trkpt lat="43.799" lon="5.26031">
        <ele>683.63</ele>
        <time>2019-01-25T12:56:02Z</time>
      </trkpt>
      <trkpt lat="43.79898" lon="5.26024">
        <ele>683.15</ele>
        <time>2019-01-25T12:56:07Z</time>
      </trkpt>
      <trkpt lat="43.79898" lon="5.26023">
        <ele>678.83</ele>
        <time>2019-01-25T12:56:10Z</time>
      </trkpt>
      <trkpt lat="43.79898" lon="5.26023">
        <ele>679.79</ele>
        <time>2019-01-25T12:56:11Z</time>
      </trkpt>
      <trkpt lat="43.79897" lon="5.26021">
        <ele>682.19</ele>
        <time>2019-01-25T12:56:14Z</time>
      </trkpt>
      <trkpt lat="43.79891" lon="5.25998">
        <ele>680.75</ele>
        <time>2019-01-25T12:56:29Z</time>
      </trkpt>
      <trkpt lat="43.7989" lon="5.25993">
        <ele>680.75</ele>
        <time>2019-01-25T12:56:32Z</time>
      </trkpt>
      <trkpt lat="43.79882" lon="5.25964">
        <ele>679.79</ele>
        <time>2019-01-25T12:56:48Z</time>
      </trkpt>
      <trkpt lat="43.79881" lon="5.25961">
        <ele>679.31</ele>
        <time>2019-01-25T12:56:53Z</time>
      </trkpt>
      <trkpt lat="43.7988" lon="5.25959">
        <ele>681.23</ele>
        <time>2019-01-25T12:56:55Z</time>
      </trkpt>
      <trkpt lat="43.79879" lon="5.25953">
        <ele>680.75</ele>
        <time>2019-01-25T12:56:59Z</time>
      </trkpt>
      <trkpt lat="43.79878" lon="5.25941">
        <ele>679.31</ele>
        <time>2019-01-25T12:57:05Z</time>
      </trkpt>
      <trkpt lat="43.79878" lon="5.25938">
        <ele>682.19</ele>
        <time>2019-01-25T12:57:07Z</time>
      </trkpt>
      <trkpt lat="43.79877" lon="5.25934">
        <ele>679.79</ele>
        <time>2019-01-25T12:57:09Z</time>
      </trkpt>
      <trkpt lat="43.79876" lon="5.25921">
        <ele>679.31</ele>
        <time>2019-01-25T12:57:16Z</time>
      </trkpt>
      <trkpt lat="43.79876" lon="5.25917">
        <ele>678.83</ele>
        <time>2019-01-25T12:57:19Z</time>
      </trkpt>
      <trkpt lat="43.79878" lon="5.25902">
        <ele>679.31</ele>
        <time>2019-01-25T12:57:28Z</time>
      </trkpt>
      <trkpt lat="43.79879" lon="5.25897">
        <ele>677.87</ele>
        <time>2019-01-25T12:57:31Z</time>
      </trkpt>
      <trkpt lat="43.79884" lon="5.2589">
        <ele>678.83</ele>
        <time>2019-01-25T12:57:36Z</time>
      </trkpt>
      <trkpt lat="43.79895" lon="5.25873">
        <ele>677.39</ele>
        <time>2019-01-25T12:57:49Z</time>
      </trkpt>
      <trkpt lat="43.79907" lon="5.2586">
        <ele>677.39</ele>
        <time>2019-01-25T12:58:00Z</time>
      </trkpt>
      <trkpt lat="43.79909" lon="5.25854">
        <ele>678.35</ele>
        <time>2019-01-25T12:58:04Z</time>
      </trkpt>
      <trkpt lat="43.79914" lon="5.25851">
        <ele>679.31</ele>
        <time>2019-01-25T12:58:08Z</time>
      </trkpt>
      <trkpt lat="43.79924" lon="5.25844">
        <ele>676.42</ele>
        <time>2019-01-25T12:58:18Z</time>
      </trkpt>
      <trkpt lat="43.79928" lon="5.25841">
        <ele>678.83</ele>
        <time>2019-01-25T12:58:21Z</time>
      </trkpt>
      <trkpt lat="43.79946" lon="5.2583">
        <ele>677.87</ele>
        <time>2019-01-25T12:58:33Z</time>
      </trkpt>
      <trkpt lat="43.79958" lon="5.2582">
        <ele>677.87</ele>
        <time>2019-01-25T12:58:48Z</time>
      </trkpt>
      <trkpt lat="43.79964" lon="5.25815">
        <ele>677.87</ele>
        <time>2019-01-25T12:58:55Z</time>
      </trkpt>
      <trkpt lat="43.79981" lon="5.25799">
        <ele>677.39</ele>
        <time>2019-01-25T12:59:11Z</time>
      </trkpt>
      <trkpt lat="43.79994" lon="5.25781">
        <ele>677.39</ele>
        <time>2019-01-25T12:59:21Z</time>
      </trkpt>
      <trkpt lat="43.79996" lon="5.25749">
        <ele>677.87</ele>
        <time>2019-01-25T12:59:38Z</time>
      </trkpt>
      <trkpt lat="43.79998" lon="5.2573">
        <ele>677.87</ele>
        <time>2019-01-25T12:59:53Z</time>
      </trkpt>
      <trkpt lat="43.8" lon="5.25723">
        <ele>677.39</ele>
        <time>2019-01-25T13:00:12Z</time>
      </trkpt>
      <trkpt lat="43.8" lon="5.25718">
        <ele>677.39</ele>
        <time>2019-01-25T13:00:32Z</time>
      </trkpt>
      <trkpt lat="43.80002" lon="5.25703">
        <ele>677.39</ele>
        <time>2019-01-25T13:00:46Z</time>
      </trkpt>
      <trkpt lat="43.80006" lon="5.25684">
        <ele>676.42</ele>
        <time>2019-01-25T13:01:02Z</time>
      </trkpt>
      <trkpt lat="43.80011" lon="5.25673">
        <ele>676.91</ele>
        <time>2019-01-25T13:01:17Z</time>
      </trkpt>
      <trkpt lat="43.8001" lon="5.25671">
        <ele>677.39</ele>
        <time>2019-01-25T13:01:22Z</time>
      </trkpt>
      <trkpt lat="43.80011" lon="5.2567">
        <ele>677.39</ele>
        <time>2019-01-25T13:01:24Z</time>
      </trkpt>
      <trkpt lat="43.80016" lon="5.2567">
        <ele>677.87</ele>
        <time>2019-01-25T13:01:29Z</time>
      </trkpt>
      <trkpt lat="43.80024" lon="5.2567">
        <ele>677.39</ele>
        <time>2019-01-25T13:01:36Z</time>
      </trkpt>
      <trkpt lat="43.80029" lon="5.25668">
        <ele>676.91</ele>
        <time>2019-01-25T13:01:42Z</time>
      </trkpt>
      <trkpt lat="43.80034" lon="5.25663">
        <ele>677.39</ele>
        <time>2019-01-25T13:01:49Z</time>
      </trkpt>
      <trkpt lat="43.80048" lon="5.25661">
        <ele>676.91</ele>
        <time>2019-01-25T13:02:03Z</time>
      </trkpt>
      <trkpt lat="43.80056" lon="5.25656">
        <ele>676.42</ele>
        <time>2019-01-25T13:02:14Z</time>
      </trkpt>
      <trkpt lat="43.80074" lon="5.25652">
        <ele>676.91</ele>
        <time>2019-01-25T13:02:27Z</time>
      </trkpt>
      <trkpt lat="43.80079" lon="5.2565">
        <ele>676.42</ele>
        <time>2019-01-25T13:02:30Z</time>
      </trkpt>
      <trkpt lat="43.80101" lon="5.2565">
        <ele>675.94</ele>
        <time>2019-01-25T13:02:45Z</time>
      </trkpt>
      <trkpt lat="43.80115" lon="5.25647">
        <ele>675.94</ele>
        <time>2019-01-25T13:02:58Z</time>
      </trkpt>
      <trkpt lat="43.80116" lon="5.25647">
        <ele>675.94</ele>
        <time>2019-01-25T13:02:59Z</time>
      </trkpt>
      <trkpt lat="43.8012" lon="5.25645">
        <ele>675.94</ele>
        <time>2019-01-25T13:03:01Z</time>
      </trkpt>
      <trkpt lat="43.80122" lon="5.25644">
        <ele>675.46</ele>
        <time>2019-01-25T13:03:03Z</time>
      </trkpt>
      <trkpt lat="43.80137" lon="5.25642">
        <ele>674.98</ele>
        <time>2019-01-25T13:03:20Z</time>
      </trkpt>
      <trkpt lat="43.80146" lon="5.25629">
        <ele>674.98</ele>
        <time>2019-01-25T13:03:35Z</time>
      </trkpt>
      <trkpt lat="43.8015" lon="5.25623">
        <ele>674.5</ele>
        <time>2019-01-25T13:03:48Z</time>
      </trkpt>
      <trkpt lat="43.80152" lon="5.2562">
        <ele>674.5</ele>
        <time>2019-01-25T13:03:55Z</time>
      </trkpt>
      <trkpt lat="43.80155" lon="5.25615">
        <ele>673.54</ele>
        <time>2019-01-25T13:03:59Z</time>
      </trkpt>
      <trkpt lat="43.80159" lon="5.2561">
        <ele>672.58</ele>
        <time>2019-01-25T13:04:06Z</time>
      </trkpt>
      <trkpt lat="43.80166" lon="5.25603">
        <ele>673.06</ele>
        <time>2019-01-25T13:04:14Z</time>
      </trkpt>
      <trkpt lat="43.80171" lon="5.25598">
        <ele>671.62</ele>
        <time>2019-01-25T13:04:29Z</time>
      </trkpt>
      <trkpt lat="43.80176" lon="5.25583">
        <ele>671.14</ele>
        <time>2019-01-25T13:04:42Z</time>
      </trkpt>
      <trkpt lat="43.80186" lon="5.2557">
        <ele>670.18</ele>
        <time>2019-01-25T13:04:56Z</time>
      </trkpt>
      <trkpt lat="43.80189" lon="5.25569">
        <ele>670.18</ele>
        <time>2019-01-25T13:05:00Z</time>
      </trkpt>
      <trkpt lat="43.80193" lon="5.25567">
        <ele>669.7</ele>
        <time>2019-01-25T13:05:05Z</time>
      </trkpt>
      <trkpt lat="43.80198" lon="5.25563">
        <ele>669.22</ele>
        <time>2019-01-25T13:05:10Z</time>
      </trkpt>
      <trkpt lat="43.80208" lon="5.25558">
        <ele>667.77</ele>
        <time>2019-01-25T13:05:21Z</time>
      </trkpt>
      <trkpt lat="43.80216" lon="5.25552">
        <ele>666.81</ele>
        <time>2019-01-25T13:05:31Z</time>
      </trkpt>
      <trkpt lat="43.80222" lon="5.25546">
        <ele>666.81</ele>
        <time>2019-01-25T13:05:40Z</time>
      </trkpt>
      <trkpt lat="43.80224" lon="5.25544">
        <ele>665.37</ele>
        <time>2019-01-25T13:05:42Z</time>
      </trkpt>
      <trkpt lat="43.80234" lon="5.25534">
        <ele>665.85</ele>
        <time>2019-01-25T13:05:56Z</time>
      </trkpt>
      <trkpt lat="43.8024" lon="5.25531">
        <ele>664.41</ele>
        <time>2019-01-25T13:06:12Z</time>
      </trkpt>
      <trkpt lat="43.80245" lon="5.25531">
        <ele>663.45</ele>
        <time>2019-01-25T13:06:36Z</time>
      </trkpt>
      <trkpt lat="43.80251" lon="5.25527">
        <ele>662.97</ele>
        <time>2019-01-25T13:06:44Z</time>
      </trkpt>
      <trkpt lat="43.80258" lon="5.25525">
        <ele>663.93</ele>
        <time>2019-01-25T13:06:53Z</time>
      </trkpt>
      <trkpt lat="43.8027" lon="5.25527">
        <ele>662.97</ele>
        <time>2019-01-25T13:07:09Z</time>
      </trkpt>
      <trkpt lat="43.80273" lon="5.25528">
        <ele>663.45</ele>
        <time>2019-01-25T13:07:16Z</time>
      </trkpt>
      <trkpt lat="43.80278" lon="5.25536">
        <ele>663.93</ele>
        <time>2019-01-25T13:07:29Z</time>
      </trkpt>
      <trkpt lat="43.80289" lon="5.25544">
        <ele>663.93</ele>
        <time>2019-01-25T13:07:40Z</time>
      </trkpt>
      <trkpt lat="43.80295" lon="5.25548">
        <ele>663.93</ele>
        <time>2019-01-25T13:07:47Z</time>
      </trkpt>
      <trkpt lat="43.80317" lon="5.25557">
        <ele>663.45</ele>
        <time>2019-01-25T13:08:02Z</time>
      </trkpt>
      <trkpt lat="43.80326" lon="5.25558">
        <ele>662.49</ele>
        <time>2019-01-25T13:08:19Z</time>
      </trkpt>
      <trkpt lat="43.80334" lon="5.25556">
        <ele>662.01</ele>
        <time>2019-01-25T13:08:36Z</time>
      </trkpt>
      <trkpt lat="43.80339" lon="5.25552">
        <ele>660.56</ele>
        <time>2019-01-25T13:08:47Z</time>
      </trkpt>
      <trkpt lat="43.80346" lon="5.25546">
        <ele>658.16</ele>
        <time>2019-01-25T13:08:59Z</time>
      </trkpt>
      <trkpt lat="43.80356" lon="5.25542">
        <ele>658.64</ele>
        <time>2019-01-25T13:09:15Z</time>
      </trkpt>
      <trkpt lat="43.80367" lon="5.25529">
        <ele>657.68</ele>
        <time>2019-01-25T13:09:29Z</time>
      </trkpt>
      <trkpt lat="43.80371" lon="5.25521">
        <ele>655.76</ele>
        <time>2019-01-25T13:09:44Z</time>
      </trkpt>
      <trkpt lat="43.8038" lon="5.2551">
        <ele>654.31</ele>
        <time>2019-01-25T13:09:56Z</time>
      </trkpt>
      <trkpt lat="43.80381" lon="5.25508">
        <ele>654.31</ele>
        <time>2019-01-25T13:10:00Z</time>
      </trkpt>
      <trkpt lat="43.80384" lon="5.25504">
        <ele>650.95</ele>
        <time>2019-01-25T13:10:07Z</time>
      </trkpt>
      <trkpt lat="43.80391" lon="5.25494">
        <ele>650.95</ele>
        <time>2019-01-25T13:10:22Z</time>
      </trkpt>
      <trkpt lat="43.80397" lon="5.2548">
        <ele>649.51</ele>
        <time>2019-01-25T13:10:35Z</time>
      </trkpt>
      <trkpt lat="43.80402" lon="5.25466">
        <ele>648.07</ele>
        <time>2019-01-25T13:10:49Z</time>
      </trkpt>
      <trkpt lat="43.80405" lon="5.25459">
        <ele>645.66</ele>
        <time>2019-01-25T13:11:03Z</time>
      </trkpt>
      <trkpt lat="43.8041" lon="5.25447">
        <ele>644.7</ele>
        <time>2019-01-25T13:11:17Z</time>
      </trkpt>
      <trkpt lat="43.80413" lon="5.25435">
        <ele>643.26</ele>
        <time>2019-01-25T13:11:30Z</time>
      </trkpt>
      <trkpt lat="43.8042" lon="5.25425">
        <ele>641.82</ele>
        <time>2019-01-25T13:11:44Z</time>
      </trkpt>
      <trkpt lat="43.80425" lon="5.25418">
        <ele>639.89</ele>
        <time>2019-01-25T13:11:57Z</time>
      </trkpt>
      <trkpt lat="43.80428" lon="5.25417">
        <ele>639.89</ele>
        <time>2019-01-25T13:12:00Z</time>
      </trkpt>
      <trkpt lat="43.80437" lon="5.25419">
        <ele>638.93</ele>
        <time>2019-01-25T13:12:13Z</time>
      </trkpt>
      <trkpt lat="43.80439" lon="5.25419">
        <ele>637.97</ele>
        <time>2019-01-25T13:12:30Z</time>
      </trkpt>
      <trkpt lat="43.80443" lon="5.2542">
        <ele>637.97</ele>
        <time>2019-01-25T13:12:45Z</time>
      </trkpt>
      <trkpt lat="43.80449" lon="5.25419">
        <ele>635.57</ele>
        <time>2019-01-25T13:13:01Z</time>
      </trkpt>
      <trkpt lat="43.80452" lon="5.25422">
        <ele>635.09</ele>
        <time>2019-01-25T13:13:13Z</time>
      </trkpt>
      <trkpt lat="43.80459" lon="5.25425">
        <ele>633.17</ele>
        <time>2019-01-25T13:13:20Z</time>
      </trkpt>
      <trkpt lat="43.8047" lon="5.25423">
        <ele>631.72</ele>
        <time>2019-01-25T13:13:29Z</time>
      </trkpt>
      <trkpt lat="43.80476" lon="5.25423">
        <ele>632.68</ele>
        <time>2019-01-25T13:13:50Z</time>
      </trkpt>
      <trkpt lat="43.80484" lon="5.25429">
        <ele>631.24</ele>
        <time>2019-01-25T13:14:04Z</time>
      </trkpt>
      <trkpt lat="43.80488" lon="5.25428">
        <ele>628.36</ele>
        <time>2019-01-25T13:14:17Z</time>
      </trkpt>
      <trkpt lat="43.8049" lon="5.25428">
        <ele>628.36</ele>
        <time>2019-01-25T13:14:22Z</time>
      </trkpt>
      <trkpt lat="43.80494" lon="5.25427">
        <ele>625.47</ele>
        <time>2019-01-25T13:14:37Z</time>
      </trkpt>
      <trkpt lat="43.80497" lon="5.25426">
        <ele>623.55</ele>
        <time>2019-01-25T13:14:46Z</time>
      </trkpt>
      <trkpt lat="43.805" lon="5.25425">
        <ele>624.03</ele>
        <time>2019-01-25T13:14:54Z</time>
      </trkpt>
      <trkpt lat="43.80501" lon="5.25425">
        <ele>622.11</ele>
        <time>2019-01-25T13:14:58Z</time>
      </trkpt>
      <trkpt lat="43.80503" lon="5.25425">
        <ele>620.19</ele>
        <time>2019-01-25T13:15:10Z</time>
      </trkpt>
      <trkpt lat="43.80505" lon="5.25428">
        <ele>618.75</ele>
        <time>2019-01-25T13:15:24Z</time>
      </trkpt>
      <trkpt lat="43.80508" lon="5.25433">
        <ele>617.78</ele>
        <time>2019-01-25T13:15:32Z</time>
      </trkpt>
      <trkpt lat="43.80511" lon="5.2544">
        <ele>616.34</ele>
        <time>2019-01-25T13:15:46Z</time>
      </trkpt>
      <trkpt lat="43.80513" lon="5.2545">
        <ele>614.42</ele>
        <time>2019-01-25T13:15:59Z</time>
      </trkpt>
      <trkpt lat="43.80512" lon="5.25462">
        <ele>612.98</ele>
        <time>2019-01-25T13:16:12Z</time>
      </trkpt>
      <trkpt lat="43.80502" lon="5.25463">
        <ele>612.5</ele>
        <time>2019-01-25T13:16:39Z</time>
      </trkpt>
      <trkpt lat="43.80507" lon="5.25472">
        <ele>610.09</ele>
        <time>2019-01-25T13:16:52Z</time>
      </trkpt>
      <trkpt lat="43.80507" lon="5.25477">
        <ele>609.61</ele>
        <time>2019-01-25T13:17:20Z</time>
      </trkpt>
      <trkpt lat="43.80511" lon="5.25487">
        <ele>606.73</ele>
        <time>2019-01-25T13:17:35Z</time>
      </trkpt>
      <trkpt lat="43.80515" lon="5.25494">
        <ele>604.81</ele>
        <time>2019-01-25T13:17:45Z</time>
      </trkpt>
      <trkpt lat="43.80523" lon="5.25507">
        <ele>601.92</ele>
        <time>2019-01-25T13:17:59Z</time>
      </trkpt>
      <trkpt lat="43.80528" lon="5.25517">
        <ele>600</ele>
        <time>2019-01-25T13:18:12Z</time>
      </trkpt>
      <trkpt lat="43.8054" lon="5.25519">
        <ele>597.12</ele>
        <time>2019-01-25T13:18:27Z</time>
      </trkpt>
      <trkpt lat="43.80543" lon="5.25517">
        <ele>595.67</ele>
        <time>2019-01-25T13:18:40Z</time>
      </trkpt>
      <trkpt lat="43.80549" lon="5.25515">
        <ele>593.75</ele>
        <time>2019-01-25T13:18:56Z</time>
      </trkpt>
      <trkpt lat="43.80556" lon="5.25508">
        <ele>592.31</ele>
        <time>2019-01-25T13:19:18Z</time>
      </trkpt>
      <trkpt lat="43.80563" lon="5.25493">
        <ele>589.43</ele>
        <time>2019-01-25T13:19:34Z</time>
      </trkpt>
      <trkpt lat="43.80569" lon="5.2548">
        <ele>587.02</ele>
        <time>2019-01-25T13:19:49Z</time>
      </trkpt>
      <trkpt lat="43.80574" lon="5.25471">
        <ele>586.54</ele>
        <time>2019-01-25T13:20:06Z</time>
      </trkpt>
      <trkpt lat="43.80576" lon="5.25466">
        <ele>585.58</ele>
        <time>2019-01-25T13:20:12Z</time>
      </trkpt>
      <trkpt lat="43.80584" lon="5.25456">
        <ele>582.22</ele>
        <time>2019-01-25T13:20:26Z</time>
      </trkpt>
      <trkpt lat="43.80588" lon="5.25451">
        <ele>580.77</ele>
        <time>2019-01-25T13:20:39Z</time>
      </trkpt>
      <trkpt lat="43.80589" lon="5.25449">
        <ele>577.89</ele>
        <time>2019-01-25T13:20:51Z</time>
      </trkpt>
      <trkpt lat="43.80592" lon="5.25443">
        <ele>575.01</ele>
        <time>2019-01-25T13:21:08Z</time>
      </trkpt>
      <trkpt lat="43.80595" lon="5.25438">
        <ele>573.08</ele>
        <time>2019-01-25T13:21:23Z</time>
      </trkpt>
      <trkpt lat="43.80598" lon="5.25434">
        <ele>570.2</ele>
        <time>2019-01-25T13:21:37Z</time>
      </trkpt>
      <trkpt lat="43.80608" lon="5.25428">
        <ele>568.76</ele>
        <time>2019-01-25T13:21:43Z</time>
      </trkpt>
      <trkpt lat="43.80616" lon="5.25419">
        <ele>566.83</ele>
        <time>2019-01-25T13:21:57Z</time>
      </trkpt>
      <trkpt lat="43.80625" lon="5.25412">
        <ele>564.91</ele>
        <time>2019-01-25T13:22:11Z</time>
      </trkpt>
      <trkpt lat="43.80631" lon="5.25405">
        <ele>562.51</ele>
        <time>2019-01-25T13:22:27Z</time>
      </trkpt>
      <trkpt lat="43.80636" lon="5.25395">
        <ele>560.59</ele>
        <time>2019-01-25T13:22:42Z</time>
      </trkpt>
      <trkpt lat="43.80639" lon="5.25386">
        <ele>558.18</ele>
        <time>2019-01-25T13:22:55Z</time>
      </trkpt>
      <trkpt lat="43.80639" lon="5.25381">
        <ele>557.22</ele>
        <time>2019-01-25T13:23:01Z</time>
      </trkpt>
      <trkpt lat="43.80644" lon="5.25363">
        <ele>555.78</ele>
        <time>2019-01-25T13:23:19Z</time>
      </trkpt>
      <trkpt lat="43.80646" lon="5.25354">
        <ele>554.34</ele>
        <time>2019-01-25T13:23:34Z</time>
      </trkpt>
      <trkpt lat="43.80647" lon="5.25348">
        <ele>551.93</ele>
        <time>2019-01-25T13:23:47Z</time>
      </trkpt>
      <trkpt lat="43.80651" lon="5.25337">
        <ele>549.53</ele>
        <time>2019-01-25T13:24:03Z</time>
      </trkpt>
      <trkpt lat="43.80652" lon="5.25327">
        <ele>547.61</ele>
        <time>2019-01-25T13:24:15Z</time>
      </trkpt>
      <trkpt lat="43.80654" lon="5.25322">
        <ele>544.24</ele>
        <time>2019-01-25T13:24:25Z</time>
      </trkpt>
      <trkpt lat="43.80658" lon="5.25315">
        <ele>543.28</ele>
        <time>2019-01-25T13:24:41Z</time>
      </trkpt>
      <trkpt lat="43.80661" lon="5.2531">
        <ele>542.32</ele>
        <time>2019-01-25T13:24:48Z</time>
      </trkpt>
      <trkpt lat="43.80661" lon="5.25304">
        <ele>540.4</ele>
        <time>2019-01-25T13:25:01Z</time>
      </trkpt>
      <trkpt lat="43.80663" lon="5.25292">
        <ele>538.48</ele>
        <time>2019-01-25T13:25:14Z</time>
      </trkpt>
      <trkpt lat="43.80665" lon="5.25284">
        <ele>537.03</ele>
        <time>2019-01-25T13:25:28Z</time>
      </trkpt>
      <trkpt lat="43.80668" lon="5.25282">
        <ele>535.11</ele>
        <time>2019-01-25T13:25:41Z</time>
      </trkpt>
      <trkpt lat="43.80671" lon="5.25283">
        <ele>535.11</ele>
        <time>2019-01-25T13:25:44Z</time>
      </trkpt>
      <trkpt lat="43.80678" lon="5.2529">
        <ele>532.71</ele>
        <time>2019-01-25T13:25:58Z</time>
      </trkpt>
      <trkpt lat="43.80682" lon="5.25293">
        <ele>530.79</ele>
        <time>2019-01-25T13:26:11Z</time>
      </trkpt>
      <trkpt lat="43.80686" lon="5.25294">
        <ele>528.86</ele>
        <time>2019-01-25T13:26:26Z</time>
      </trkpt>
      <trkpt lat="43.80689" lon="5.25293">
        <ele>526.46</ele>
        <time>2019-01-25T13:26:40Z</time>
      </trkpt>
      <trkpt lat="43.80689" lon="5.25291">
        <ele>524.54</ele>
        <time>2019-01-25T13:26:56Z</time>
      </trkpt>
      <trkpt lat="43.80689" lon="5.25284">
        <ele>522.13</ele>
        <time>2019-01-25T13:27:12Z</time>
      </trkpt>
      <trkpt lat="43.80692" lon="5.25277">
        <ele>520.21</ele>
        <time>2019-01-25T13:27:26Z</time>
      </trkpt>
      <trkpt lat="43.80694" lon="5.25269">
        <ele>517.81</ele>
        <time>2019-01-25T13:27:46Z</time>
      </trkpt>
      <trkpt lat="43.80698" lon="5.25262">
        <ele>515.4</ele>
        <time>2019-01-25T13:28:00Z</time>
      </trkpt>
      <trkpt lat="43.80702" lon="5.25258">
        <ele>513</ele>
        <time>2019-01-25T13:28:15Z</time>
      </trkpt>
      <trkpt lat="43.80707" lon="5.25258">
        <ele>512.04</ele>
        <time>2019-01-25T13:28:28Z</time>
      </trkpt>
      <trkpt lat="43.80711" lon="5.25259">
        <ele>510.6</ele>
        <time>2019-01-25T13:28:41Z</time>
      </trkpt>
      <trkpt lat="43.80716" lon="5.2526">
        <ele>507.71</ele>
        <time>2019-01-25T13:28:59Z</time>
      </trkpt>
      <trkpt lat="43.80724" lon="5.2526">
        <ele>506.75</ele>
        <time>2019-01-25T13:29:12Z</time>
      </trkpt>
      <trkpt lat="43.80731" lon="5.25263">
        <ele>505.79</ele>
        <time>2019-01-25T13:29:24Z</time>
      </trkpt>
      <trkpt lat="43.80733" lon="5.25266">
        <ele>505.31</ele>
        <time>2019-01-25T13:29:31Z</time>
      </trkpt>
      <trkpt lat="43.80731" lon="5.25271">
        <ele>506.27</ele>
        <time>2019-01-25T13:29:44Z</time>
      </trkpt>
      <trkpt lat="43.80726" lon="5.25281">
        <ele>505.79</ele>
        <time>2019-01-25T13:30:11Z</time>
      </trkpt>
      <trkpt lat="43.80729" lon="5.25277">
        <ele>505.79</ele>
        <time>2019-01-25T13:30:42Z</time>
      </trkpt>
      <trkpt lat="43.8073" lon="5.25267">
        <ele>505.31</ele>
        <time>2019-01-25T13:30:56Z</time>
      </trkpt>
      <trkpt lat="43.80733" lon="5.25265">
        <ele>505.31</ele>
        <time>2019-01-25T13:31:16Z</time>
      </trkpt>
      <trkpt lat="43.80737" lon="5.25263">
        <ele>505.31</ele>
        <time>2019-01-25T13:31:44Z</time>
      </trkpt>
      <trkpt lat="43.80735" lon="5.25263">
        <ele>505.79</ele>
        <time>2019-01-25T13:32:05Z</time>
      </trkpt>
      <trkpt lat="43.80737" lon="5.25262">
        <ele>506.27</ele>
        <time>2019-01-25T13:32:31Z</time>
      </trkpt>
      <trkpt lat="43.80736" lon="5.25261">
        <ele>506.27</ele>
        <time>2019-01-25T13:32:58Z</time>
      </trkpt>
      <trkpt lat="43.80735" lon="5.25263">
        <ele>505.79</ele>
        <time>2019-01-25T13:33:12Z</time>
      </trkpt>
      <trkpt lat="43.80735" lon="5.25262">
        <ele>505.79</ele>
        <time>2019-01-25T13:33:35Z</time>
      </trkpt>
      <trkpt lat="43.80737" lon="5.25261">
        <ele>505.79</ele>
        <time>2019-01-25T13:33:47Z</time>
      </trkpt>
      <trkpt lat="43.80734" lon="5.25252">
        <ele>504.35</ele>
        <time>2019-01-25T13:34:01Z</time>
      </trkpt>
      <trkpt lat="43.80736" lon="5.2524">
        <ele>501.95</ele>
        <time>2019-01-25T13:34:18Z</time>
      </trkpt>
      <trkpt lat="43.80739" lon="5.25234">
        <ele>501.95</ele>
        <time>2019-01-25T13:34:25Z</time>
      </trkpt>
      <trkpt lat="43.80743" lon="5.2522">
        <ele>500.02</ele>
        <time>2019-01-25T13:34:37Z</time>
      </trkpt>
      <trkpt lat="43.80743" lon="5.25216">
        <ele>499.06</ele>
        <time>2019-01-25T13:34:49Z</time>
      </trkpt>
      <trkpt lat="43.80743" lon="5.25212">
        <ele>499.06</ele>
        <time>2019-01-25T13:35:05Z</time>
      </trkpt>
      <trkpt lat="43.8074" lon="5.25209">
        <ele>498.1</ele>
        <time>2019-01-25T13:35:21Z</time>
      </trkpt>
      <trkpt lat="43.80737" lon="5.25206">
        <ele>495.7</ele>
        <time>2019-01-25T13:35:37Z</time>
      </trkpt>
      <trkpt lat="43.80736" lon="5.25204">
        <ele>494.26</ele>
        <time>2019-01-25T13:35:45Z</time>
      </trkpt>
      <trkpt lat="43.80729" lon="5.25192">
        <ele>491.85</ele>
        <time>2019-01-25T13:35:59Z</time>
      </trkpt>
      <trkpt lat="43.80726" lon="5.25183">
        <ele>491.37</ele>
        <time>2019-01-25T13:36:08Z</time>
      </trkpt>
      <trkpt lat="43.80724" lon="5.25181">
        <ele>490.89</ele>
        <time>2019-01-25T13:36:09Z</time>
      </trkpt>
      <trkpt lat="43.80721" lon="5.25178">
        <ele>490.41</ele>
        <time>2019-01-25T13:36:12Z</time>
      </trkpt>
      <trkpt lat="43.8072" lon="5.25176">
        <ele>489.93</ele>
        <time>2019-01-25T13:36:14Z</time>
      </trkpt>
      <trkpt lat="43.80716" lon="5.25174">
        <ele>489.45</ele>
        <time>2019-01-25T13:36:18Z</time>
      </trkpt>
      <trkpt lat="43.80715" lon="5.25163">
        <ele>487.05</ele>
        <time>2019-01-25T13:36:33Z</time>
      </trkpt>
      <trkpt lat="43.80715" lon="5.25162">
        <ele>486.56</ele>
        <time>2019-01-25T13:36:35Z</time>
      </trkpt>
      <trkpt lat="43.80714" lon="5.25153">
        <ele>485.12</ele>
        <time>2019-01-25T13:36:47Z</time>
      </trkpt>
      <trkpt lat="43.80714" lon="5.25141">
        <ele>484.16</ele>
        <time>2019-01-25T13:36:59Z</time>
      </trkpt>
      <trkpt lat="43.80716" lon="5.25128">
        <ele>481.28</ele>
        <time>2019-01-25T13:37:13Z</time>
      </trkpt>
      <trkpt lat="43.80716" lon="5.25128">
        <ele>480.8</ele>
        <time>2019-01-25T13:37:14Z</time>
      </trkpt>
      <trkpt lat="43.80716" lon="5.25127">
        <ele>480.8</ele>
        <time>2019-01-25T13:37:16Z</time>
      </trkpt>
      <trkpt lat="43.80718" lon="5.25117">
        <ele>479.84</ele>
        <time>2019-01-25T13:37:31Z</time>
      </trkpt>
      <trkpt lat="43.80719" lon="5.25108">
        <ele>479.35</ele>
        <time>2019-01-25T13:37:44Z</time>
      </trkpt>
      <trkpt lat="43.80724" lon="5.25097">
        <ele>477.91</ele>
        <time>2019-01-25T13:37:56Z</time>
      </trkpt>
      <trkpt lat="43.80727" lon="5.25092">
        <ele>475.99</ele>
        <time>2019-01-25T13:38:11Z</time>
      </trkpt>
      <trkpt lat="43.80734" lon="5.25081">
        <ele>474.55</ele>
        <time>2019-01-25T13:38:24Z</time>
      </trkpt>
      <trkpt lat="43.80743" lon="5.25077">
        <ele>472.63</ele>
        <time>2019-01-25T13:38:40Z</time>
      </trkpt>
      <trkpt lat="43.80746" lon="5.25064">
        <ele>470.22</ele>
        <time>2019-01-25T13:38:55Z</time>
      </trkpt>
      <trkpt lat="43.80755" lon="5.25053">
        <ele>468.3</ele>
        <time>2019-01-25T13:39:09Z</time>
      </trkpt>
      <trkpt lat="43.80755" lon="5.25049">
        <ele>467.82</ele>
        <time>2019-01-25T13:39:19Z</time>
      </trkpt>
      <trkpt lat="43.8075" lon="5.2504">
        <ele>466.38</ele>
        <time>2019-01-25T13:39:44Z</time>
      </trkpt>
      <trkpt lat="43.80746" lon="5.25035">
        <ele>464.93</ele>
        <time>2019-01-25T13:40:02Z</time>
      </trkpt>
      <trkpt lat="43.80744" lon="5.25031">
        <ele>464.45</ele>
        <time>2019-01-25T13:40:25Z</time>
      </trkpt>
      <trkpt lat="43.80742" lon="5.25021">
        <ele>461.57</ele>
        <time>2019-01-25T13:40:41Z</time>
      </trkpt>
      <trkpt lat="43.80738" lon="5.25007">
        <ele>460.13</ele>
        <time>2019-01-25T13:40:56Z</time>
      </trkpt>
      <trkpt lat="43.80738" lon="5.24996">
        <ele>457.72</ele>
        <time>2019-01-25T13:41:13Z</time>
      </trkpt>
      <trkpt lat="43.80739" lon="5.24983">
        <ele>456.76</ele>
        <time>2019-01-25T13:41:28Z</time>
      </trkpt>
      <trkpt lat="43.80738" lon="5.2497">
        <ele>456.76</ele>
        <time>2019-01-25T13:41:42Z</time>
      </trkpt>
      <trkpt lat="43.80738" lon="5.24967">
        <ele>454.84</ele>
        <time>2019-01-25T13:41:56Z</time>
      </trkpt>
      <trkpt lat="43.80742" lon="5.24955">
        <ele>452.44</ele>
        <time>2019-01-25T13:42:09Z</time>
      </trkpt>
      <trkpt lat="43.80744" lon="5.24949">
        <ele>451.48</ele>
        <time>2019-01-25T13:42:22Z</time>
      </trkpt>
      <trkpt lat="43.80748" lon="5.24941">
        <ele>450.03</ele>
        <time>2019-01-25T13:42:33Z</time>
      </trkpt>
      <trkpt lat="43.80753" lon="5.24936">
        <ele>448.59</ele>
        <time>2019-01-25T13:42:47Z</time>
      </trkpt>
      <trkpt lat="43.80764" lon="5.24921">
        <ele>447.63</ele>
        <time>2019-01-25T13:43:01Z</time>
      </trkpt>
      <trkpt lat="43.80766" lon="5.24907">
        <ele>445.71</ele>
        <time>2019-01-25T13:43:15Z</time>
      </trkpt>
      <trkpt lat="43.80771" lon="5.24899">
        <ele>445.23</ele>
        <time>2019-01-25T13:43:30Z</time>
      </trkpt>
      <trkpt lat="43.80772" lon="5.24893">
        <ele>444.75</ele>
        <time>2019-01-25T13:43:53Z</time>
      </trkpt>
      <trkpt lat="43.80773" lon="5.24895">
        <ele>444.75</ele>
        <time>2019-01-25T13:44:17Z</time>
      </trkpt>
      <trkpt lat="43.8077" lon="5.24893">
        <ele>444.75</ele>
        <time>2019-01-25T13:44:48Z</time>
      </trkpt>
      <trkpt lat="43.80769" lon="5.24892">
        <ele>444.75</ele>
        <time>2019-01-25T13:45:14Z</time>
      </trkpt>
      <trkpt lat="43.80766" lon="5.2489">
        <ele>444.75</ele>
        <time>2019-01-25T13:45:38Z</time>
      </trkpt>
      <trkpt lat="43.80763" lon="5.24884">
        <ele>443.79</ele>
        <time>2019-01-25T13:45:44Z</time>
      </trkpt>
      <trkpt lat="43.80767" lon="5.24877">
        <ele>443.31</ele>
        <time>2019-01-25T13:46:01Z</time>
      </trkpt>
      <trkpt lat="43.80764" lon="5.24869">
        <ele>442.34</ele>
        <time>2019-01-25T13:46:18Z</time>
      </trkpt>
      <trkpt lat="43.80762" lon="5.24859">
        <ele>440.42</ele>
        <time>2019-01-25T13:46:34Z</time>
      </trkpt>
      <trkpt lat="43.80764" lon="5.24853">
        <ele>439.94</ele>
        <time>2019-01-25T13:46:49Z</time>
      </trkpt>
      <trkpt lat="43.80762" lon="5.24841">
        <ele>438.02</ele>
        <time>2019-01-25T13:47:04Z</time>
      </trkpt>
      <trkpt lat="43.80767" lon="5.24836">
        <ele>436.58</ele>
        <time>2019-01-25T13:47:23Z</time>
      </trkpt>
      <trkpt lat="43.80771" lon="5.24831">
        <ele>435.13</ele>
        <time>2019-01-25T13:47:37Z</time>
      </trkpt>
      <trkpt lat="43.80782" lon="5.24831">
        <ele>433.21</ele>
        <time>2019-01-25T13:47:52Z</time>
      </trkpt>
      <trkpt lat="43.80791" lon="5.24837">
        <ele>432.25</ele>
        <time>2019-01-25T13:48:07Z</time>
      </trkpt>
      <trkpt lat="43.808" lon="5.24839">
        <ele>430.81</ele>
        <time>2019-01-25T13:48:23Z</time>
      </trkpt>
      <trkpt lat="43.80809" lon="5.24839">
        <ele>429.37</ele>
        <time>2019-01-25T13:48:39Z</time>
      </trkpt>
      <trkpt lat="43.80821" lon="5.24839">
        <ele>427.92</ele>
        <time>2019-01-25T13:48:57Z</time>
      </trkpt>
      <trkpt lat="43.80829" lon="5.24832">
        <ele>426.48</ele>
        <time>2019-01-25T13:49:11Z</time>
      </trkpt>
      <trkpt lat="43.80841" lon="5.24824">
        <ele>424.56</ele>
        <time>2019-01-25T13:49:26Z</time>
      </trkpt>
      <trkpt lat="43.80847" lon="5.24817">
        <ele>423.6</ele>
        <time>2019-01-25T13:49:34Z</time>
      </trkpt>
      <trkpt lat="43.80857" lon="5.24806">
        <ele>423.12</ele>
        <time>2019-01-25T13:49:48Z</time>
      </trkpt>
      <trkpt lat="43.80867" lon="5.248">
        <ele>420.71</ele>
        <time>2019-01-25T13:50:01Z</time>
      </trkpt>
      <trkpt lat="43.80877" lon="5.24798">
        <ele>418.31</ele>
        <time>2019-01-25T13:50:15Z</time>
      </trkpt>
      <trkpt lat="43.80885" lon="5.24797">
        <ele>417.35</ele>
        <time>2019-01-25T13:50:29Z</time>
      </trkpt>
      <trkpt lat="43.8089" lon="5.24798">
        <ele>416.39</ele>
        <time>2019-01-25T13:50:42Z</time>
      </trkpt>
      <trkpt lat="43.80894" lon="5.24795">
        <ele>414.47</ele>
        <time>2019-01-25T13:50:55Z</time>
      </trkpt>
      <trkpt lat="43.80904" lon="5.24791">
        <ele>413.02</ele>
        <time>2019-01-25T13:51:12Z</time>
      </trkpt>
      <trkpt lat="43.80906" lon="5.2479">
        <ele>411.58</ele>
        <time>2019-01-25T13:51:25Z</time>
      </trkpt>
      <trkpt lat="43.80909" lon="5.24789">
        <ele>410.14</ele>
        <time>2019-01-25T13:51:31Z</time>
      </trkpt>
      <trkpt lat="43.80918" lon="5.24787">
        <ele>409.18</ele>
        <time>2019-01-25T13:51:45Z</time>
      </trkpt>
      <trkpt lat="43.80926" lon="5.24788">
        <ele>408.22</ele>
        <time>2019-01-25T13:52:03Z</time>
      </trkpt>
      <trkpt lat="43.80935" lon="5.24784">
        <ele>407.74</ele>
        <time>2019-01-25T13:52:19Z</time>
      </trkpt>
      <trkpt lat="43.80945" lon="5.24779">
        <ele>406.29</ele>
        <time>2019-01-25T13:52:34Z</time>
      </trkpt>
      <trkpt lat="43.80949" lon="5.24775">
        <ele>405.33</ele>
        <time>2019-01-25T13:52:46Z</time>
      </trkpt>
      <trkpt lat="43.8096" lon="5.24775">
        <ele>404.37</ele>
        <time>2019-01-25T13:53:02Z</time>
      </trkpt>
      <trkpt lat="43.80961" lon="5.24775">
        <ele>403.89</ele>
        <time>2019-01-25T13:53:06Z</time>
      </trkpt>
      <trkpt lat="43.80972" lon="5.24773">
        <ele>402.45</ele>
        <time>2019-01-25T13:53:19Z</time>
      </trkpt>
      <trkpt lat="43.80978" lon="5.24769">
        <ele>401.97</ele>
        <time>2019-01-25T13:53:32Z</time>
      </trkpt>
      <trkpt lat="43.8099" lon="5.24764">
        <ele>401.01</ele>
        <time>2019-01-25T13:53:47Z</time>
      </trkpt>
      <trkpt lat="43.80991" lon="5.24761">
        <ele>400.53</ele>
        <time>2019-01-25T13:54:09Z</time>
      </trkpt>
      <trkpt lat="43.80994" lon="5.24758">
        <ele>400.53</ele>
        <time>2019-01-25T13:54:31Z</time>
      </trkpt>
      <trkpt lat="43.80995" lon="5.24755">
        <ele>400.53</ele>
        <time>2019-01-25T13:54:53Z</time>
      </trkpt>
      <trkpt lat="43.80999" lon="5.24756">
        <ele>400.05</ele>
        <time>2019-01-25T13:55:18Z</time>
      </trkpt>
      <trkpt lat="43.81007" lon="5.24759">
        <ele>399.57</ele>
        <time>2019-01-25T13:55:51Z</time>
      </trkpt>
      <trkpt lat="43.81005" lon="5.24754">
        <ele>398.6</ele>
        <time>2019-01-25T13:56:00Z</time>
      </trkpt>
      <trkpt lat="43.81001" lon="5.24747">
        <ele>398.12</ele>
        <time>2019-01-25T13:56:06Z</time>
      </trkpt>
      <trkpt lat="43.80998" lon="5.24739">
        <ele>396.68</ele>
        <time>2019-01-25T13:56:19Z</time>
      </trkpt>
      <trkpt lat="43.80985" lon="5.24723">
        <ele>395.24</ele>
        <time>2019-01-25T13:56:31Z</time>
      </trkpt>
      <trkpt lat="43.80966" lon="5.24699">
        <ele>394.76</ele>
        <time>2019-01-25T13:56:48Z</time>
      </trkpt>
      <trkpt lat="43.80966" lon="5.24698">
        <ele>394.76</ele>
        <time>2019-01-25T13:56:49Z</time>
      </trkpt>
      <trkpt lat="43.80967" lon="5.24691">
        <ele>392.36</ele>
        <time>2019-01-25T13:56:55Z</time>
      </trkpt>
      <trkpt lat="43.80967" lon="5.24688">
        <ele>391.87</ele>
        <time>2019-01-25T13:56:59Z</time>
      </trkpt>
      <trkpt lat="43.80971" lon="5.24683">
        <ele>392.36</ele>
        <time>2019-01-25T13:57:05Z</time>
      </trkpt>
      <trkpt lat="43.80974" lon="5.24673">
        <ele>391.87</ele>
        <time>2019-01-25T13:57:18Z</time>
      </trkpt>
      <trkpt lat="43.80975" lon="5.24662">
        <ele>390.91</ele>
        <time>2019-01-25T13:57:32Z</time>
      </trkpt>
      <trkpt lat="43.80962" lon="5.24649">
        <ele>389.47</ele>
        <time>2019-01-25T13:57:45Z</time>
      </trkpt>
      <trkpt lat="43.80961" lon="5.24647">
        <ele>390.43</ele>
        <time>2019-01-25T13:57:48Z</time>
      </trkpt>
      <trkpt lat="43.80961" lon="5.24634">
        <ele>388.99</ele>
        <time>2019-01-25T13:58:00Z</time>
      </trkpt>
      <trkpt lat="43.80977" lon="5.24629">
        <ele>387.55</ele>
        <time>2019-01-25T13:58:15Z</time>
      </trkpt>
      <trkpt lat="43.80983" lon="5.24621">
        <ele>387.07</ele>
        <time>2019-01-25T13:58:34Z</time>
      </trkpt>
      <trkpt lat="43.80983" lon="5.2461">
        <ele>385.15</ele>
        <time>2019-01-25T13:58:47Z</time>
      </trkpt>
      <trkpt lat="43.80986" lon="5.24598">
        <ele>384.18</ele>
        <time>2019-01-25T13:59:01Z</time>
      </trkpt>
      <trkpt lat="43.80989" lon="5.24592">
        <ele>382.74</ele>
        <time>2019-01-25T13:59:15Z</time>
      </trkpt>
      <trkpt lat="43.8099" lon="5.24578">
        <ele>380.82</ele>
        <time>2019-01-25T13:59:28Z</time>
      </trkpt>
      <trkpt lat="43.80995" lon="5.24567">
        <ele>379.38</ele>
        <time>2019-01-25T13:59:42Z</time>
      </trkpt>
      <trkpt lat="43.81002" lon="5.2455">
        <ele>377.45</ele>
        <time>2019-01-25T13:59:57Z</time>
      </trkpt>
      <trkpt lat="43.81007" lon="5.24542">
        <ele>376.97</ele>
        <time>2019-01-25T14:00:09Z</time>
      </trkpt>
      <trkpt lat="43.81018" lon="5.24536">
        <ele>375.05</ele>
        <time>2019-01-25T14:00:28Z</time>
      </trkpt>
      <trkpt lat="43.81028" lon="5.24526">
        <ele>373.61</ele>
        <time>2019-01-25T14:00:42Z</time>
      </trkpt>
      <trkpt lat="43.81036" lon="5.24518">
        <ele>371.69</ele>
        <time>2019-01-25T14:00:57Z</time>
      </trkpt>
      <trkpt lat="43.81046" lon="5.24512">
        <ele>370.24</ele>
        <time>2019-01-25T14:01:12Z</time>
      </trkpt>
      <trkpt lat="43.8106" lon="5.24511">
        <ele>369.28</ele>
        <time>2019-01-25T14:01:27Z</time>
      </trkpt>
      <trkpt lat="43.81071" lon="5.24516">
        <ele>367.36</ele>
        <time>2019-01-25T14:01:42Z</time>
      </trkpt>
      <trkpt lat="43.81077" lon="5.24518">
        <ele>365.92</ele>
        <time>2019-01-25T14:01:56Z</time>
      </trkpt>
      <trkpt lat="43.81083" lon="5.24518">
        <ele>364</ele>
        <time>2019-01-25T14:02:10Z</time>
      </trkpt>
      <trkpt lat="43.81091" lon="5.24517">
        <ele>361.59</ele>
        <time>2019-01-25T14:02:25Z</time>
      </trkpt>
      <trkpt lat="43.81098" lon="5.24515">
        <ele>360.15</ele>
        <time>2019-01-25T14:02:40Z</time>
      </trkpt>
      <trkpt lat="43.8111" lon="5.24503">
        <ele>358.71</ele>
        <time>2019-01-25T14:02:55Z</time>
      </trkpt>
      <trkpt lat="43.8111" lon="5.24498">
        <ele>357.75</ele>
        <time>2019-01-25T14:03:09Z</time>
      </trkpt>
      <trkpt lat="43.81116" lon="5.24482">
        <ele>356.31</ele>
        <time>2019-01-25T14:03:24Z</time>
      </trkpt>
      <trkpt lat="43.81118" lon="5.24474">
        <ele>355.34</ele>
        <time>2019-01-25T14:03:38Z</time>
      </trkpt>
      <trkpt lat="43.81124" lon="5.24469">
        <ele>353.42</ele>
        <time>2019-01-25T14:03:51Z</time>
      </trkpt>
      <trkpt lat="43.81142" lon="5.24464">
        <ele>351.5</ele>
        <time>2019-01-25T14:04:07Z</time>
      </trkpt>
      <trkpt lat="43.81149" lon="5.24464">
        <ele>349.58</ele>
        <time>2019-01-25T14:04:24Z</time>
      </trkpt>
      <trkpt lat="43.81155" lon="5.24464">
        <ele>348.62</ele>
        <time>2019-01-25T14:04:36Z</time>
      </trkpt>
      <trkpt lat="43.81175" lon="5.24466">
        <ele>346.69</ele>
        <time>2019-01-25T14:04:52Z</time>
      </trkpt>
      <trkpt lat="43.81183" lon="5.24467">
        <ele>345.73</ele>
        <time>2019-01-25T14:05:07Z</time>
      </trkpt>
      <trkpt lat="43.81185" lon="5.24468">
        <ele>344.29</ele>
        <time>2019-01-25T14:05:24Z</time>
      </trkpt>
      <trkpt lat="43.81188" lon="5.24466">
        <ele>342.85</ele>
        <time>2019-01-25T14:05:38Z</time>
      </trkpt>
      <trkpt lat="43.81189" lon="5.24464">
        <ele>342.85</ele>
        <time>2019-01-25T14:05:41Z</time>
      </trkpt>
      <trkpt lat="43.812" lon="5.24447">
        <ele>341.89</ele>
        <time>2019-01-25T14:05:54Z</time>
      </trkpt>
      <trkpt lat="43.81207" lon="5.24438">
        <ele>340.44</ele>
        <time>2019-01-25T14:06:08Z</time>
      </trkpt>
      <trkpt lat="43.81212" lon="5.2443">
        <ele>339</ele>
        <time>2019-01-25T14:06:20Z</time>
      </trkpt>
      <trkpt lat="43.81213" lon="5.24428">
        <ele>338.52</ele>
        <time>2019-01-25T14:06:32Z</time>
      </trkpt>
      <trkpt lat="43.81216" lon="5.2442">
        <ele>337.56</ele>
        <time>2019-01-25T14:06:41Z</time>
      </trkpt>
      <trkpt lat="43.81229" lon="5.24414">
        <ele>337.08</ele>
        <time>2019-01-25T14:06:55Z</time>
      </trkpt>
      <trkpt lat="43.81236" lon="5.2441">
        <ele>335.64</ele>
        <time>2019-01-25T14:07:09Z</time>
      </trkpt>
      <trkpt lat="43.81246" lon="5.244">
        <ele>334.2</ele>
        <time>2019-01-25T14:07:24Z</time>
      </trkpt>
      <trkpt lat="43.81257" lon="5.24396">
        <ele>332.75</ele>
        <time>2019-01-25T14:07:41Z</time>
      </trkpt>
      <trkpt lat="43.81268" lon="5.24392">
        <ele>331.79</ele>
        <time>2019-01-25T14:07:56Z</time>
      </trkpt>
      <trkpt lat="43.81275" lon="5.24389">
        <ele>330.35</ele>
        <time>2019-01-25T14:08:09Z</time>
      </trkpt>
      <trkpt lat="43.81291" lon="5.24388">
        <ele>328.91</ele>
        <time>2019-01-25T14:08:27Z</time>
      </trkpt>
      <trkpt lat="43.81306" lon="5.24386">
        <ele>328.43</ele>
        <time>2019-01-25T14:08:42Z</time>
      </trkpt>
      <trkpt lat="43.81316" lon="5.24384">
        <ele>327.47</ele>
        <time>2019-01-25T14:08:56Z</time>
      </trkpt>
      <trkpt lat="43.81322" lon="5.24378">
        <ele>325.54</ele>
        <time>2019-01-25T14:09:11Z</time>
      </trkpt>
      <trkpt lat="43.81325" lon="5.24371">
        <ele>324.58</ele>
        <time>2019-01-25T14:09:26Z</time>
      </trkpt>
      <trkpt lat="43.81333" lon="5.24366">
        <ele>323.62</ele>
        <time>2019-01-25T14:09:39Z</time>
      </trkpt>
      <trkpt lat="43.81346" lon="5.24361">
        <ele>321.7</ele>
        <time>2019-01-25T14:09:53Z</time>
      </trkpt>
      <trkpt lat="43.81361" lon="5.24354">
        <ele>320.26</ele>
        <time>2019-01-25T14:10:12Z</time>
      </trkpt>
      <trkpt lat="43.81369" lon="5.24355">
        <ele>319.78</ele>
        <time>2019-01-25T14:10:25Z</time>
      </trkpt>
      <trkpt lat="43.8138" lon="5.24347">
        <ele>318.33</ele>
        <time>2019-01-25T14:10:42Z</time>
      </trkpt>
      <trkpt lat="43.8139" lon="5.24342">
        <ele>317.37</ele>
        <time>2019-01-25T14:10:58Z</time>
      </trkpt>
      <trkpt lat="43.81409" lon="5.24346">
        <ele>315.93</ele>
        <time>2019-01-25T14:11:13Z</time>
      </trkpt>
      <trkpt lat="43.81414" lon="5.24354">
        <ele>314.97</ele>
        <time>2019-01-25T14:11:26Z</time>
      </trkpt>
      <trkpt lat="43.81417" lon="5.24363">
        <ele>314.01</ele>
        <time>2019-01-25T14:11:38Z</time>
      </trkpt>
      <trkpt lat="43.81421" lon="5.24363">
        <ele>312.57</ele>
        <time>2019-01-25T14:11:53Z</time>
      </trkpt>
      <trkpt lat="43.81425" lon="5.24357">
        <ele>311.12</ele>
        <time>2019-01-25T14:12:06Z</time>
      </trkpt>
      <trkpt lat="43.81435" lon="5.24347">
        <ele>310.16</ele>
        <time>2019-01-25T14:12:19Z</time>
      </trkpt>
      <trkpt lat="43.81439" lon="5.24344">
        <ele>309.68</ele>
        <time>2019-01-25T14:12:22Z</time>
      </trkpt>
      <trkpt lat="43.81457" lon="5.24343">
        <ele>309.2</ele>
        <time>2019-01-25T14:12:39Z</time>
      </trkpt>
      <trkpt lat="43.81466" lon="5.24349">
        <ele>307.76</ele>
        <time>2019-01-25T14:12:54Z</time>
      </trkpt>
      <trkpt lat="43.81476" lon="5.24353">
        <ele>306.32</ele>
        <time>2019-01-25T14:13:08Z</time>
      </trkpt>
      <trkpt lat="43.81479" lon="5.24354">
        <ele>305.36</ele>
        <time>2019-01-25T14:13:13Z</time>
      </trkpt>
      <trkpt lat="43.81479" lon="5.2435">
        <ele>304.39</ele>
        <time>2019-01-25T14:13:28Z</time>
      </trkpt>
      <trkpt lat="43.81486" lon="5.24349">
        <ele>302.95</ele>
        <time>2019-01-25T14:13:43Z</time>
      </trkpt>
      <trkpt lat="43.81491" lon="5.24345">
        <ele>301.99</ele>
        <time>2019-01-25T14:13:56Z</time>
      </trkpt>
      <trkpt lat="43.81505" lon="5.24341">
        <ele>300.55</ele>
        <time>2019-01-25T14:14:10Z</time>
      </trkpt>
      <trkpt lat="43.81508" lon="5.24342">
        <ele>300.07</ele>
        <time>2019-01-25T14:14:13Z</time>
      </trkpt>
      <trkpt lat="43.81523" lon="5.24344">
        <ele>299.11</ele>
        <time>2019-01-25T14:14:24Z</time>
      </trkpt>
      <trkpt lat="43.81529" lon="5.2434">
        <ele>298.15</ele>
        <time>2019-01-25T14:14:38Z</time>
      </trkpt>
      <trkpt lat="43.81538" lon="5.24334">
        <ele>297.18</ele>
        <time>2019-01-25T14:14:52Z</time>
      </trkpt>
      <trkpt lat="43.81544" lon="5.2433">
        <ele>296.22</ele>
        <time>2019-01-25T14:15:03Z</time>
      </trkpt>
      <trkpt lat="43.8156" lon="5.24323">
        <ele>294.78</ele>
        <time>2019-01-25T14:15:19Z</time>
      </trkpt>
      <trkpt lat="43.81575" lon="5.24322">
        <ele>293.82</ele>
        <time>2019-01-25T14:15:33Z</time>
      </trkpt>
      <trkpt lat="43.81582" lon="5.24319">
        <ele>292.38</ele>
        <time>2019-01-25T14:15:47Z</time>
      </trkpt>
      <trkpt lat="43.81589" lon="5.24317">
        <ele>291.9</ele>
        <time>2019-01-25T14:16:01Z</time>
      </trkpt>
      <trkpt lat="43.8159" lon="5.24316">
        <ele>291.9</ele>
        <time>2019-01-25T14:16:06Z</time>
      </trkpt>
      <trkpt lat="43.81595" lon="5.24305">
        <ele>290.94</ele>
        <time>2019-01-25T14:16:16Z</time>
      </trkpt>
      <trkpt lat="43.81597" lon="5.2429">
        <ele>289.49</ele>
        <time>2019-01-25T14:16:27Z</time>
      </trkpt>
      <trkpt lat="43.816" lon="5.24275">
        <ele>288.05</ele>
        <time>2019-01-25T14:16:40Z</time>
      </trkpt>
      <trkpt lat="43.816" lon="5.24266">
        <ele>286.61</ele>
        <time>2019-01-25T14:16:52Z</time>
      </trkpt>
      <trkpt lat="43.81598" lon="5.24255">
        <ele>286.61</ele>
        <time>2019-01-25T14:17:06Z</time>
      </trkpt>
      <trkpt lat="43.81597" lon="5.24246">
        <ele>284.69</ele>
        <time>2019-01-25T14:17:19Z</time>
      </trkpt>
      <trkpt lat="43.81594" lon="5.24226">
        <ele>283.25</ele>
        <time>2019-01-25T14:17:37Z</time>
      </trkpt>
      <trkpt lat="43.81594" lon="5.2422">
        <ele>282.77</ele>
        <time>2019-01-25T14:17:42Z</time>
      </trkpt>
      <trkpt lat="43.81592" lon="5.24193">
        <ele>281.8</ele>
        <time>2019-01-25T14:17:56Z</time>
      </trkpt>
      <trkpt lat="43.81592" lon="5.2419">
        <ele>281.8</ele>
        <time>2019-01-25T14:17:58Z</time>
      </trkpt>
      <trkpt lat="43.81594" lon="5.24172">
        <ele>280.84</ele>
        <time>2019-01-25T14:18:12Z</time>
      </trkpt>
      <trkpt lat="43.81598" lon="5.24158">
        <ele>279.88</ele>
        <time>2019-01-25T14:18:26Z</time>
      </trkpt>
      <trkpt lat="43.81602" lon="5.24138">
        <ele>278.92</ele>
        <time>2019-01-25T14:18:42Z</time>
      </trkpt>
      <trkpt lat="43.81607" lon="5.24128">
        <ele>277.48</ele>
        <time>2019-01-25T14:18:57Z</time>
      </trkpt>
      <trkpt lat="43.81611" lon="5.24116">
        <ele>276.52</ele>
        <time>2019-01-25T14:19:10Z</time>
      </trkpt>
      <trkpt lat="43.81612" lon="5.24109">
        <ele>276.52</ele>
        <time>2019-01-25T14:19:17Z</time>
      </trkpt>
      <trkpt lat="43.81613" lon="5.24092">
        <ele>275.07</ele>
        <time>2019-01-25T14:19:30Z</time>
      </trkpt>
      <trkpt lat="43.81613" lon="5.24078">
        <ele>274.59</ele>
        <time>2019-01-25T14:19:44Z</time>
      </trkpt>
      <trkpt lat="43.81617" lon="5.24059">
        <ele>273.63</ele>
        <time>2019-01-25T14:19:57Z</time>
      </trkpt>
      <trkpt lat="43.81618" lon="5.24056">
        <ele>273.15</ele>
        <time>2019-01-25T14:19:59Z</time>
      </trkpt>
      <trkpt lat="43.81621" lon="5.2404">
        <ele>271.71</ele>
        <time>2019-01-25T14:20:14Z</time>
      </trkpt>
      <trkpt lat="43.81621" lon="5.24035">
        <ele>271.71</ele>
        <time>2019-01-25T14:20:18Z</time>
      </trkpt>
      <trkpt lat="43.81624" lon="5.24027">
        <ele>271.23</ele>
        <time>2019-01-25T14:20:24Z</time>
      </trkpt>
      <trkpt lat="43.81631" lon="5.24014">
        <ele>270.27</ele>
        <time>2019-01-25T14:20:35Z</time>
      </trkpt>
      <trkpt lat="43.81633" lon="5.24009">
        <ele>269.79</ele>
        <time>2019-01-25T14:20:38Z</time>
      </trkpt>
      <trkpt lat="43.81641" lon="5.23993">
        <ele>268.83</ele>
        <time>2019-01-25T14:20:52Z</time>
      </trkpt>
      <trkpt lat="43.81644" lon="5.23989">
        <ele>268.35</ele>
        <time>2019-01-25T14:20:55Z</time>
      </trkpt>
      <trkpt lat="43.81648" lon="5.23977">
        <ele>267.86</ele>
        <time>2019-01-25T14:21:05Z</time>
      </trkpt>
      <trkpt lat="43.81652" lon="5.23971">
        <ele>267.38</ele>
        <time>2019-01-25T14:21:11Z</time>
      </trkpt>
      <trkpt lat="43.81654" lon="5.23963">
        <ele>267.38</ele>
        <time>2019-01-25T14:21:17Z</time>
      </trkpt>
      <trkpt lat="43.81656" lon="5.2396">
        <ele>267.38</ele>
        <time>2019-01-25T14:21:19Z</time>
      </trkpt>
      <trkpt lat="43.81664" lon="5.23949">
        <ele>267.38</ele>
        <time>2019-01-25T14:21:31Z</time>
      </trkpt>
      <trkpt lat="43.81666" lon="5.23946">
        <ele>266.9</ele>
        <time>2019-01-25T14:21:35Z</time>
      </trkpt>
      <trkpt lat="43.8167" lon="5.23939">
        <ele>266.42</ele>
        <time>2019-01-25T14:21:51Z</time>
      </trkpt>
      <trkpt lat="43.81673" lon="5.23938">
        <ele>265.94</ele>
        <time>2019-01-25T14:22:11Z</time>
      </trkpt>
      <trkpt lat="43.81677" lon="5.2394">
        <ele>265.94</ele>
        <time>2019-01-25T14:22:25Z</time>
      </trkpt>
      <trkpt lat="43.81678" lon="5.23945">
        <ele>265.46</ele>
        <time>2019-01-25T14:22:45Z</time>
      </trkpt>
      <trkpt lat="43.81679" lon="5.23953">
        <ele>264.98</ele>
        <time>2019-01-25T14:22:53Z</time>
      </trkpt>
      <trkpt lat="43.81681" lon="5.23966">
        <ele>264.98</ele>
        <time>2019-01-25T14:23:06Z</time>
      </trkpt>
      <trkpt lat="43.81688" lon="5.2399">
        <ele>265.94</ele>
        <time>2019-01-25T14:23:22Z</time>
      </trkpt>
      <trkpt lat="43.81691" lon="5.23999">
        <ele>265.94</ele>
        <time>2019-01-25T14:23:29Z</time>
      </trkpt>
      <trkpt lat="43.81698" lon="5.24017">
        <ele>265.94</ele>
        <time>2019-01-25T14:23:41Z</time>
      </trkpt>
      <trkpt lat="43.81699" lon="5.24022">
        <ele>265.94</ele>
        <time>2019-01-25T14:23:44Z</time>
      </trkpt>
      <trkpt lat="43.81704" lon="5.24043">
        <ele>265.46</ele>
        <time>2019-01-25T14:23:59Z</time>
      </trkpt>
      <trkpt lat="43.81706" lon="5.24053">
        <ele>265.94</ele>
        <time>2019-01-25T14:24:07Z</time>
      </trkpt>
      <trkpt lat="43.81706" lon="5.24058">
        <ele>266.42</ele>
        <time>2019-01-25T14:24:10Z</time>
      </trkpt>
      <trkpt lat="43.81709" lon="5.24084">
        <ele>266.42</ele>
        <time>2019-01-25T14:24:26Z</time>
      </trkpt>
      <trkpt lat="43.8171" lon="5.24087">
        <ele>266.42</ele>
        <time>2019-01-25T14:24:28Z</time>
      </trkpt>
      <trkpt lat="43.81715" lon="5.241">
        <ele>266.42</ele>
        <time>2019-01-25T14:24:38Z</time>
      </trkpt>
      <trkpt lat="43.81719" lon="5.24115">
        <ele>266.9</ele>
        <time>2019-01-25T14:24:48Z</time>
      </trkpt>
      <trkpt lat="43.81725" lon="5.24137">
        <ele>268.35</ele>
        <time>2019-01-25T14:25:03Z</time>
      </trkpt>
      <trkpt lat="43.81725" lon="5.24142">
        <ele>268.35</ele>
        <time>2019-01-25T14:25:09Z</time>
      </trkpt>
      <trkpt lat="43.81727" lon="5.24155">
        <ele>267.86</ele>
        <time>2019-01-25T14:25:18Z</time>
      </trkpt>
      <trkpt lat="43.8173" lon="5.24169">
        <ele>268.35</ele>
        <time>2019-01-25T14:25:29Z</time>
      </trkpt>
      <trkpt lat="43.81731" lon="5.24186">
        <ele>268.35</ele>
        <time>2019-01-25T14:25:42Z</time>
      </trkpt>
      <trkpt lat="43.81732" lon="5.24187">
        <ele>267.86</ele>
        <time>2019-01-25T14:26:08Z</time>
      </trkpt>
      <trkpt lat="43.81734" lon="5.24188">
        <ele>267.86</ele>
        <time>2019-01-25T14:26:36Z</time>
      </trkpt>
      <trkpt lat="43.81735" lon="5.24189">
        <ele>267.86</ele>
        <time>2019-01-25T14:26:39Z</time>
      </trkpt>
      <trkpt lat="43.81738" lon="5.2421">
        <ele>267.38</ele>
        <time>2019-01-25T14:26:50Z</time>
      </trkpt>
      <trkpt lat="43.81742" lon="5.24233">
        <ele>267.38</ele>
        <time>2019-01-25T14:27:05Z</time>
      </trkpt>
      <trkpt lat="43.81741" lon="5.24236">
        <ele>267.38</ele>
        <time>2019-01-25T14:27:07Z</time>
      </trkpt>
      <trkpt lat="43.81741" lon="5.24253">
        <ele>266.9</ele>
        <time>2019-01-25T14:27:18Z</time>
      </trkpt>
      <trkpt lat="43.8174" lon="5.24271">
        <ele>265.94</ele>
        <time>2019-01-25T14:27:31Z</time>
      </trkpt>
      <trkpt lat="43.81739" lon="5.24277">
        <ele>267.38</ele>
        <time>2019-01-25T14:27:34Z</time>
      </trkpt>
      <trkpt lat="43.81739" lon="5.24288">
        <ele>265.94</ele>
        <time>2019-01-25T14:27:40Z</time>
      </trkpt>
      <trkpt lat="43.81739" lon="5.24301">
        <ele>265.94</ele>
        <time>2019-01-25T14:27:48Z</time>
      </trkpt>
      <trkpt lat="43.81739" lon="5.24311">
        <ele>265.94</ele>
        <time>2019-01-25T14:27:57Z</time>
      </trkpt>
      <trkpt lat="43.8174" lon="5.24325">
        <ele>265.46</ele>
        <time>2019-01-25T14:28:06Z</time>
      </trkpt>
      <trkpt lat="43.8174" lon="5.24331">
        <ele>265.46</ele>
        <time>2019-01-25T14:28:09Z</time>
      </trkpt>
      <trkpt lat="43.81738" lon="5.24355">
        <ele>264.98</ele>
        <time>2019-01-25T14:28:22Z</time>
      </trkpt>
      <trkpt lat="43.81738" lon="5.24357">
        <ele>264.98</ele>
        <time>2019-01-25T14:28:23Z</time>
      </trkpt>
      <trkpt lat="43.81737" lon="5.24368">
        <ele>264.98</ele>
        <time>2019-01-25T14:28:29Z</time>
      </trkpt>
      <trkpt lat="43.81735" lon="5.24396">
        <ele>264.5</ele>
        <time>2019-01-25T14:28:44Z</time>
      </trkpt>
      <trkpt lat="43.81735" lon="5.2442">
        <ele>264.02</ele>
        <time>2019-01-25T14:28:57Z</time>
      </trkpt>
      <trkpt lat="43.81735" lon="5.24424">
        <ele>264.02</ele>
        <time>2019-01-25T14:29:00Z</time>
      </trkpt>
      <trkpt lat="43.81734" lon="5.24441">
        <ele>263.54</ele>
        <time>2019-01-25T14:29:11Z</time>
      </trkpt>
      <trkpt lat="43.81733" lon="5.24455">
        <ele>263.54</ele>
        <time>2019-01-25T14:29:19Z</time>
      </trkpt>
      <trkpt lat="43.81733" lon="5.2446">
        <ele>263.54</ele>
        <time>2019-01-25T14:29:21Z</time>
      </trkpt>
      <trkpt lat="43.81735" lon="5.24472">
        <ele>263.54</ele>
        <time>2019-01-25T14:29:28Z</time>
      </trkpt>
      <trkpt lat="43.81736" lon="5.24484">
        <ele>264.02</ele>
        <time>2019-01-25T14:29:35Z</time>
      </trkpt>
      <trkpt lat="43.81739" lon="5.24509">
        <ele>263.54</ele>
        <time>2019-01-25T14:29:50Z</time>
      </trkpt>
      <trkpt lat="43.81738" lon="5.24515">
        <ele>263.06</ele>
        <time>2019-01-25T14:29:53Z</time>
      </trkpt>
      <trkpt lat="43.81741" lon="5.24533">
        <ele>263.54</ele>
        <time>2019-01-25T14:30:06Z</time>
      </trkpt>
      <trkpt lat="43.81742" lon="5.24534">
        <ele>263.54</ele>
        <time>2019-01-25T14:30:07Z</time>
      </trkpt>
      <trkpt lat="43.81744" lon="5.24542">
        <ele>263.54</ele>
        <time>2019-01-25T14:30:12Z</time>
      </trkpt>
      <trkpt lat="43.81745" lon="5.24563">
        <ele>263.54</ele>
        <time>2019-01-25T14:30:24Z</time>
      </trkpt>
      <trkpt lat="43.81746" lon="5.24568">
        <ele>264.02</ele>
        <time>2019-01-25T14:30:28Z</time>
      </trkpt>
      <trkpt lat="43.81746" lon="5.24571">
        <ele>264.02</ele>
        <time>2019-01-25T14:30:30Z</time>
      </trkpt>
      <trkpt lat="43.81748" lon="5.24592">
        <ele>264.5</ele>
        <time>2019-01-25T14:30:46Z</time>
      </trkpt>
      <trkpt lat="43.81748" lon="5.24597">
        <ele>265.94</ele>
        <time>2019-01-25T14:30:49Z</time>
      </trkpt>
      <trkpt lat="43.81749" lon="5.24606">
        <ele>264.02</ele>
        <time>2019-01-25T14:30:54Z</time>
      </trkpt>
      <trkpt lat="43.81749" lon="5.24607">
        <ele>263.54</ele>
        <time>2019-01-25T14:30:55Z</time>
      </trkpt>
      <trkpt lat="43.81749" lon="5.24617">
        <ele>264.02</ele>
        <time>2019-01-25T14:31:00Z</time>
      </trkpt>
      <trkpt lat="43.81752" lon="5.24639">
        <ele>265.46</ele>
        <time>2019-01-25T14:31:14Z</time>
      </trkpt>
      <trkpt lat="43.81753" lon="5.24661">
        <ele>264.98</ele>
        <time>2019-01-25T14:31:28Z</time>
      </trkpt>
      <trkpt lat="43.81751" lon="5.24685">
        <ele>266.42</ele>
        <time>2019-01-25T14:31:43Z</time>
      </trkpt>
      <trkpt lat="43.81752" lon="5.24693">
        <ele>266.42</ele>
        <time>2019-01-25T14:31:48Z</time>
      </trkpt>
      <trkpt lat="43.81752" lon="5.24696">
        <ele>266.42</ele>
        <time>2019-01-25T14:31:51Z</time>
      </trkpt>
      <trkpt lat="43.81752" lon="5.24701">
        <ele>266.42</ele>
        <time>2019-01-25T14:31:54Z</time>
      </trkpt>
      <trkpt lat="43.81751" lon="5.24709">
        <ele>266.9</ele>
        <time>2019-01-25T14:32:01Z</time>
      </trkpt>
      <trkpt lat="43.8175" lon="5.24718">
        <ele>267.38</ele>
        <time>2019-01-25T14:32:06Z</time>
      </trkpt>
      <trkpt lat="43.8175" lon="5.24731">
        <ele>267.86</ele>
        <time>2019-01-25T14:32:16Z</time>
      </trkpt>
      <trkpt lat="43.81752" lon="5.24754">
        <ele>269.79</ele>
        <time>2019-01-25T14:32:30Z</time>
      </trkpt>
      <trkpt lat="43.81752" lon="5.24768">
        <ele>270.27</ele>
        <time>2019-01-25T14:32:37Z</time>
      </trkpt>
      <trkpt lat="43.81752" lon="5.24773">
        <ele>270.27</ele>
        <time>2019-01-25T14:32:39Z</time>
      </trkpt>
      <trkpt lat="43.81753" lon="5.24778">
        <ele>269.79</ele>
        <time>2019-01-25T14:32:42Z</time>
      </trkpt>
      <trkpt lat="43.81754" lon="5.24793">
        <ele>269.79</ele>
        <time>2019-01-25T14:32:52Z</time>
      </trkpt>
      <trkpt lat="43.81754" lon="5.248">
        <ele>270.27</ele>
        <time>2019-01-25T14:32:57Z</time>
      </trkpt>
      <trkpt lat="43.81754" lon="5.24823">
        <ele>271.23</ele>
        <time>2019-01-25T14:33:10Z</time>
      </trkpt>
      <trkpt lat="43.81752" lon="5.24842">
        <ele>271.71</ele>
        <time>2019-01-25T14:33:21Z</time>
      </trkpt>
      <trkpt lat="43.81752" lon="5.24845">
        <ele>271.23</ele>
        <time>2019-01-25T14:33:23Z</time>
      </trkpt>
      <trkpt lat="43.81751" lon="5.2485">
        <ele>271.23</ele>
        <time>2019-01-25T14:33:26Z</time>
      </trkpt>
      <trkpt lat="43.81749" lon="5.24871">
        <ele>272.67</ele>
        <time>2019-01-25T14:33:39Z</time>
      </trkpt>
      <trkpt lat="43.81748" lon="5.24883">
        <ele>274.11</ele>
        <time>2019-01-25T14:33:49Z</time>
      </trkpt>
      <trkpt lat="43.81747" lon="5.24891">
        <ele>274.59</ele>
        <time>2019-01-25T14:33:55Z</time>
      </trkpt>
      <trkpt lat="43.81747" lon="5.24904">
        <ele>276.52</ele>
        <time>2019-01-25T14:34:02Z</time>
      </trkpt>
      <trkpt lat="43.81745" lon="5.24919">
        <ele>277.48</ele>
        <time>2019-01-25T14:34:12Z</time>
      </trkpt>
      <trkpt lat="43.81744" lon="5.24931">
        <ele>278.92</ele>
        <time>2019-01-25T14:34:20Z</time>
      </trkpt>
      <trkpt lat="43.81745" lon="5.24937">
        <ele>279.88</ele>
        <time>2019-01-25T14:34:24Z</time>
      </trkpt>
      <trkpt lat="43.81745" lon="5.2494">
        <ele>279.88</ele>
        <time>2019-01-25T14:34:26Z</time>
      </trkpt>
      <trkpt lat="43.81744" lon="5.24942">
        <ele>279.88</ele>
        <time>2019-01-25T14:34:28Z</time>
      </trkpt>
      <trkpt lat="43.81744" lon="5.24946">
        <ele>280.36</ele>
        <time>2019-01-25T14:34:30Z</time>
      </trkpt>
      <trkpt lat="43.81744" lon="5.24953">
        <ele>280.84</ele>
        <time>2019-01-25T14:34:34Z</time>
      </trkpt>
      <trkpt lat="43.81743" lon="5.24959">
        <ele>281.32</ele>
        <time>2019-01-25T14:34:38Z</time>
      </trkpt>
      <trkpt lat="43.81742" lon="5.24964">
        <ele>281.8</ele>
        <time>2019-01-25T14:34:41Z</time>
      </trkpt>
      <trkpt lat="43.8174" lon="5.24986">
        <ele>284.69</ele>
        <time>2019-01-25T14:34:55Z</time>
      </trkpt>
      <trkpt lat="43.8174" lon="5.24988">
        <ele>284.69</ele>
        <time>2019-01-25T14:34:56Z</time>
      </trkpt>
      <trkpt lat="43.81738" lon="5.25007">
        <ele>287.57</ele>
        <time>2019-01-25T14:35:10Z</time>
      </trkpt>
      <trkpt lat="43.81738" lon="5.25027">
        <ele>289.49</ele>
        <time>2019-01-25T14:35:24Z</time>
      </trkpt>
      <trkpt lat="43.81737" lon="5.2503">
        <ele>289.49</ele>
        <time>2019-01-25T14:35:27Z</time>
      </trkpt>
      <trkpt lat="43.81737" lon="5.25051">
        <ele>292.38</ele>
        <time>2019-01-25T14:35:40Z</time>
      </trkpt>
      <trkpt lat="43.81737" lon="5.25063">
        <ele>293.34</ele>
        <time>2019-01-25T14:35:48Z</time>
      </trkpt>
      <trkpt lat="43.81737" lon="5.25077">
        <ele>292.86</ele>
        <time>2019-01-25T14:35:56Z</time>
      </trkpt>
      <trkpt lat="43.81734" lon="5.251">
        <ele>292.38</ele>
        <time>2019-01-25T14:36:11Z</time>
      </trkpt>
      <trkpt lat="43.81733" lon="5.25126">
        <ele>292.38</ele>
        <time>2019-01-25T14:36:25Z</time>
      </trkpt>
      <trkpt lat="43.81734" lon="5.25134">
        <ele>291.9</ele>
        <time>2019-01-25T14:36:29Z</time>
      </trkpt>
      <trkpt lat="43.81733" lon="5.25161">
        <ele>292.38</ele>
        <time>2019-01-25T14:36:45Z</time>
      </trkpt>
      <trkpt lat="43.81732" lon="5.25187">
        <ele>293.34</ele>
        <time>2019-01-25T14:36:59Z</time>
      </trkpt>
      <trkpt lat="43.8173" lon="5.25199">
        <ele>292.86</ele>
        <time>2019-01-25T14:37:06Z</time>
      </trkpt>
      <trkpt lat="43.81729" lon="5.25209">
        <ele>293.34</ele>
        <time>2019-01-25T14:37:13Z</time>
      </trkpt>
      <trkpt lat="43.81729" lon="5.25217">
        <ele>292.86</ele>
        <time>2019-01-25T14:37:17Z</time>
      </trkpt>
      <trkpt lat="43.81729" lon="5.25234">
        <ele>292.38</ele>
        <time>2019-01-25T14:37:26Z</time>
      </trkpt>
      <trkpt lat="43.8173" lon="5.25241">
        <ele>292.38</ele>
        <time>2019-01-25T14:37:29Z</time>
      </trkpt>
      <trkpt lat="43.81729" lon="5.25243">
        <ele>292.86</ele>
        <time>2019-01-25T14:37:31Z</time>
      </trkpt>
      <trkpt lat="43.81727" lon="5.25261">
        <ele>292.86</ele>
        <time>2019-01-25T14:37:41Z</time>
      </trkpt>
      <trkpt lat="43.81728" lon="5.25267">
        <ele>293.34</ele>
        <time>2019-01-25T14:37:44Z</time>
      </trkpt>
      <trkpt lat="43.81726" lon="5.25274">
        <ele>292.86</ele>
        <time>2019-01-25T14:37:49Z</time>
      </trkpt>
      <trkpt lat="43.81726" lon="5.25282">
        <ele>293.82</ele>
        <time>2019-01-25T14:37:56Z</time>
      </trkpt>
      <trkpt lat="43.81729" lon="5.25296">
        <ele>294.78</ele>
        <time>2019-01-25T14:38:03Z</time>
      </trkpt>
      <trkpt lat="43.81733" lon="5.25318">
        <ele>295.74</ele>
        <time>2019-01-25T14:38:15Z</time>
      </trkpt>
      <trkpt lat="43.81733" lon="5.25322">
        <ele>294.78</ele>
        <time>2019-01-25T14:38:19Z</time>
      </trkpt>
      <trkpt lat="43.81734" lon="5.25335">
        <ele>296.7</ele>
        <time>2019-01-25T14:38:30Z</time>
      </trkpt>
      <trkpt lat="43.81734" lon="5.25341">
        <ele>296.7</ele>
        <time>2019-01-25T14:38:34Z</time>
      </trkpt>
      <trkpt lat="43.81735" lon="5.25355">
        <ele>297.67</ele>
        <time>2019-01-25T14:38:44Z</time>
      </trkpt>
      <trkpt lat="43.81735" lon="5.25357">
        <ele>297.18</ele>
        <time>2019-01-25T14:38:46Z</time>
      </trkpt>
      <trkpt lat="43.81736" lon="5.25371">
        <ele>297.67</ele>
        <time>2019-01-25T14:38:53Z</time>
      </trkpt>
      <trkpt lat="43.81737" lon="5.2538">
        <ele>297.67</ele>
        <time>2019-01-25T14:38:58Z</time>
      </trkpt>
      <trkpt lat="43.81738" lon="5.25389">
        <ele>297.18</ele>
        <time>2019-01-25T14:39:03Z</time>
      </trkpt>
      <trkpt lat="43.81738" lon="5.25399">
        <ele>297.67</ele>
        <time>2019-01-25T14:39:07Z</time>
      </trkpt>
      <trkpt lat="43.81739" lon="5.25412">
        <ele>297.67</ele>
        <time>2019-01-25T14:39:13Z</time>
      </trkpt>
      <trkpt lat="43.81739" lon="5.25421">
        <ele>298.15</ele>
        <time>2019-01-25T14:39:19Z</time>
      </trkpt>
      <trkpt lat="43.81738" lon="5.2543">
        <ele>298.63</ele>
        <time>2019-01-25T14:39:24Z</time>
      </trkpt>
      <trkpt lat="43.81732" lon="5.25451">
        <ele>297.67</ele>
        <time>2019-01-25T14:39:39Z</time>
      </trkpt>
      <trkpt lat="43.81728" lon="5.25461">
        <ele>298.63</ele>
        <time>2019-01-25T14:39:53Z</time>
      </trkpt>
      <trkpt lat="43.81725" lon="5.25464">
        <ele>299.11</ele>
        <time>2019-01-25T14:39:57Z</time>
      </trkpt>
      <trkpt lat="43.81724" lon="5.25469">
        <ele>299.11</ele>
        <time>2019-01-25T14:40:01Z</time>
      </trkpt>
      <trkpt lat="43.81724" lon="5.25471">
        <ele>299.11</ele>
        <time>2019-01-25T14:40:03Z</time>
      </trkpt>
      <trkpt lat="43.8172" lon="5.25494">
        <ele>298.63</ele>
        <time>2019-01-25T14:40:20Z</time>
      </trkpt>
      <trkpt lat="43.8172" lon="5.25499">
        <ele>298.63</ele>
        <time>2019-01-25T14:40:23Z</time>
      </trkpt>
      <trkpt lat="43.81721" lon="5.25518">
        <ele>299.59</ele>
        <time>2019-01-25T14:40:36Z</time>
      </trkpt>
      <trkpt lat="43.81722" lon="5.25522">
        <ele>299.11</ele>
        <time>2019-01-25T14:40:39Z</time>
      </trkpt>
      <trkpt lat="43.81724" lon="5.25526">
        <ele>298.63</ele>
        <time>2019-01-25T14:40:42Z</time>
      </trkpt>
      <trkpt lat="43.81724" lon="5.25541">
        <ele>299.11</ele>
        <time>2019-01-25T14:40:58Z</time>
      </trkpt>
      <trkpt lat="43.81724" lon="5.25544">
        <ele>299.11</ele>
        <time>2019-01-25T14:41:00Z</time>
      </trkpt>
      <trkpt lat="43.81723" lon="5.25552">
        <ele>299.59</ele>
        <time>2019-01-25T14:41:05Z</time>
      </trkpt>
      <trkpt lat="43.81722" lon="5.25554">
        <ele>299.59</ele>
        <time>2019-01-25T14:41:07Z</time>
      </trkpt>
      <trkpt lat="43.81721" lon="5.25564">
        <ele>300.07</ele>
        <time>2019-01-25T14:41:12Z</time>
      </trkpt>
      <trkpt lat="43.8172" lon="5.25571">
        <ele>300.55</ele>
        <time>2019-01-25T14:41:17Z</time>
      </trkpt>
      <trkpt lat="43.81719" lon="5.25574">
        <ele>300.55</ele>
        <time>2019-01-25T14:41:19Z</time>
      </trkpt>
      <trkpt lat="43.81718" lon="5.25597">
        <ele>301.03</ele>
        <time>2019-01-25T14:41:34Z</time>
      </trkpt>
      <trkpt lat="43.81718" lon="5.25611">
        <ele>300.55</ele>
        <time>2019-01-25T14:41:46Z</time>
      </trkpt>
      <trkpt lat="43.81717" lon="5.25616">
        <ele>301.51</ele>
        <time>2019-01-25T14:41:49Z</time>
      </trkpt>
      <trkpt lat="43.81718" lon="5.25625">
        <ele>301.99</ele>
        <time>2019-01-25T14:41:55Z</time>
      </trkpt>
      <trkpt lat="43.81718" lon="5.25634">
        <ele>302.95</ele>
        <time>2019-01-25T14:42:00Z</time>
      </trkpt>
      <trkpt lat="43.8172" lon="5.2564">
        <ele>303.43</ele>
        <time>2019-01-25T14:42:04Z</time>
      </trkpt>
      <trkpt lat="43.81719" lon="5.2566">
        <ele>304.39</ele>
        <time>2019-01-25T14:42:18Z</time>
      </trkpt>
      <trkpt lat="43.81719" lon="5.25664">
        <ele>303.91</ele>
        <time>2019-01-25T14:42:20Z</time>
      </trkpt>
      <trkpt lat="43.81718" lon="5.25684">
        <ele>306.32</ele>
        <time>2019-01-25T14:42:34Z</time>
      </trkpt>
      <trkpt lat="43.81717" lon="5.25693">
        <ele>306.8</ele>
        <time>2019-01-25T14:42:40Z</time>
      </trkpt>
      <trkpt lat="43.81715" lon="5.257">
        <ele>306.8</ele>
        <time>2019-01-25T14:42:45Z</time>
      </trkpt>
      <trkpt lat="43.81714" lon="5.25709">
        <ele>306.8</ele>
        <time>2019-01-25T14:42:50Z</time>
      </trkpt>
      <trkpt lat="43.8171" lon="5.2572">
        <ele>305.84</ele>
        <time>2019-01-25T14:42:57Z</time>
      </trkpt>
      <trkpt lat="43.81709" lon="5.25728">
        <ele>306.32</ele>
        <time>2019-01-25T14:43:01Z</time>
      </trkpt>
      <trkpt lat="43.81707" lon="5.25745">
        <ele>306.8</ele>
        <time>2019-01-25T14:43:12Z</time>
      </trkpt>
      <trkpt lat="43.81706" lon="5.25753">
        <ele>306.8</ele>
        <time>2019-01-25T14:43:18Z</time>
      </trkpt>
      <trkpt lat="43.817" lon="5.25765">
        <ele>307.28</ele>
        <time>2019-01-25T14:43:24Z</time>
      </trkpt>
      <trkpt lat="43.817" lon="5.25768">
        <ele>306.8</ele>
        <time>2019-01-25T14:43:26Z</time>
      </trkpt>
      <trkpt lat="43.81694" lon="5.25779">
        <ele>307.28</ele>
        <time>2019-01-25T14:43:35Z</time>
      </trkpt>
      <trkpt lat="43.81694" lon="5.25783">
        <ele>307.28</ele>
        <time>2019-01-25T14:43:38Z</time>
      </trkpt>
      <trkpt lat="43.8169" lon="5.25799">
        <ele>306.8</ele>
        <time>2019-01-25T14:43:49Z</time>
      </trkpt>
      <trkpt lat="43.81686" lon="5.2582">
        <ele>306.8</ele>
        <time>2019-01-25T14:44:03Z</time>
      </trkpt>
      <trkpt lat="43.81683" lon="5.25837">
        <ele>307.76</ele>
        <time>2019-01-25T14:44:13Z</time>
      </trkpt>
      <trkpt lat="43.81684" lon="5.25848">
        <ele>307.76</ele>
        <time>2019-01-25T14:44:19Z</time>
      </trkpt>
      <trkpt lat="43.81682" lon="5.25855">
        <ele>308.24</ele>
        <time>2019-01-25T14:44:23Z</time>
      </trkpt>
      <trkpt lat="43.81681" lon="5.25871">
        <ele>308.24</ele>
        <time>2019-01-25T14:44:33Z</time>
      </trkpt>
      <trkpt lat="43.81679" lon="5.25881">
        <ele>308.72</ele>
        <time>2019-01-25T14:44:38Z</time>
      </trkpt>
      <trkpt lat="43.81679" lon="5.2589">
        <ele>309.68</ele>
        <time>2019-01-25T14:44:43Z</time>
      </trkpt>
      <trkpt lat="43.81679" lon="5.25895">
        <ele>310.16</ele>
        <time>2019-01-25T14:44:46Z</time>
      </trkpt>
      <trkpt lat="43.8168" lon="5.25902">
        <ele>310.16</ele>
        <time>2019-01-25T14:44:52Z</time>
      </trkpt>
      <trkpt lat="43.81678" lon="5.25932">
        <ele>309.2</ele>
        <time>2019-01-25T14:45:10Z</time>
      </trkpt>
      <trkpt lat="43.81678" lon="5.25939">
        <ele>309.2</ele>
        <time>2019-01-25T14:45:13Z</time>
      </trkpt>
      <trkpt lat="43.81675" lon="5.25957">
        <ele>309.68</ele>
        <time>2019-01-25T14:45:27Z</time>
      </trkpt>
      <trkpt lat="43.81674" lon="5.25961">
        <ele>309.2</ele>
        <time>2019-01-25T14:45:29Z</time>
      </trkpt>
      <trkpt lat="43.81672" lon="5.25972">
        <ele>310.64</ele>
        <time>2019-01-25T14:45:35Z</time>
      </trkpt>
      <trkpt lat="43.81672" lon="5.25978">
        <ele>311.12</ele>
        <time>2019-01-25T14:45:39Z</time>
      </trkpt>
      <trkpt lat="43.81671" lon="5.25984">
        <ele>311.6</ele>
        <time>2019-01-25T14:45:42Z</time>
      </trkpt>
      <trkpt lat="43.8167" lon="5.25987">
        <ele>311.6</ele>
        <time>2019-01-25T14:45:44Z</time>
      </trkpt>
      <trkpt lat="43.81668" lon="5.2599">
        <ele>311.12</ele>
        <time>2019-01-25T14:45:47Z</time>
      </trkpt>
      <trkpt lat="43.81665" lon="5.26">
        <ele>312.09</ele>
        <time>2019-01-25T14:45:53Z</time>
      </trkpt>
      <trkpt lat="43.8166" lon="5.26024">
        <ele>313.53</ele>
        <time>2019-01-25T14:46:05Z</time>
      </trkpt>
      <trkpt lat="43.81659" lon="5.26028">
        <ele>313.53</ele>
        <time>2019-01-25T14:46:21Z</time>
      </trkpt>
      <trkpt lat="43.81658" lon="5.2603">
        <ele>313.05</ele>
        <time>2019-01-25T14:46:24Z</time>
      </trkpt>
      <trkpt lat="43.81651" lon="5.26048">
        <ele>314.01</ele>
        <time>2019-01-25T14:46:35Z</time>
      </trkpt>
      <trkpt lat="43.81647" lon="5.26055">
        <ele>313.53</ele>
        <time>2019-01-25T14:46:40Z</time>
      </trkpt>
      <trkpt lat="43.81634" lon="5.26078">
        <ele>315.93</ele>
        <time>2019-01-25T14:46:55Z</time>
      </trkpt>
      <trkpt lat="43.81633" lon="5.2608">
        <ele>315.93</ele>
        <time>2019-01-25T14:46:56Z</time>
      </trkpt>
      <trkpt lat="43.81624" lon="5.26096">
        <ele>314.49</ele>
        <time>2019-01-25T14:47:09Z</time>
      </trkpt>
      <trkpt lat="43.81621" lon="5.26114">
        <ele>313.53</ele>
        <time>2019-01-25T14:47:18Z</time>
      </trkpt>
      <trkpt lat="43.81622" lon="5.26126">
        <ele>314.01</ele>
        <time>2019-01-25T14:47:23Z</time>
      </trkpt>
      <trkpt lat="43.81623" lon="5.26128">
        <ele>314.49</ele>
        <time>2019-01-25T14:47:26Z</time>
      </trkpt>
      <trkpt lat="43.81624" lon="5.26134">
        <ele>314.97</ele>
        <time>2019-01-25T14:47:30Z</time>
      </trkpt>
      <trkpt lat="43.81625" lon="5.26137">
        <ele>314.97</ele>
        <time>2019-01-25T14:47:32Z</time>
      </trkpt>
      <trkpt lat="43.81626" lon="5.26145">
        <ele>314.49</ele>
        <time>2019-01-25T14:47:36Z</time>
      </trkpt>
      <trkpt lat="43.81627" lon="5.26149">
        <ele>314.49</ele>
        <time>2019-01-25T14:47:38Z</time>
      </trkpt>
      <trkpt lat="43.81629" lon="5.26159">
        <ele>314.97</ele>
        <time>2019-01-25T14:47:44Z</time>
      </trkpt>
      <trkpt lat="43.81628" lon="5.26163">
        <ele>314.97</ele>
        <time>2019-01-25T14:47:47Z</time>
      </trkpt>
      <trkpt lat="43.81629" lon="5.26167">
        <ele>314.49</ele>
        <time>2019-01-25T14:47:49Z</time>
      </trkpt>
      <trkpt lat="43.81629" lon="5.26178">
        <ele>314.97</ele>
        <time>2019-01-25T14:47:55Z</time>
      </trkpt>
      <trkpt lat="43.8163" lon="5.26186">
        <ele>315.45</ele>
        <time>2019-01-25T14:47:59Z</time>
      </trkpt>
      <trkpt lat="43.81631" lon="5.26196">
        <ele>315.45</ele>
        <time>2019-01-25T14:48:04Z</time>
      </trkpt>
      <trkpt lat="43.81631" lon="5.26207">
        <ele>315.93</ele>
        <time>2019-01-25T14:48:09Z</time>
      </trkpt>
      <trkpt lat="43.81633" lon="5.26222">
        <ele>315.93</ele>
        <time>2019-01-25T14:48:16Z</time>
      </trkpt>
      <trkpt lat="43.81635" lon="5.26232">
        <ele>315.93</ele>
        <time>2019-01-25T14:48:21Z</time>
      </trkpt>
      <trkpt lat="43.81635" lon="5.26236">
        <ele>317.37</ele>
        <time>2019-01-25T14:48:24Z</time>
      </trkpt>
      <trkpt lat="43.81635" lon="5.26246">
        <ele>316.41</ele>
        <time>2019-01-25T14:48:28Z</time>
      </trkpt>
      <trkpt lat="43.81635" lon="5.26252">
        <ele>316.89</ele>
        <time>2019-01-25T14:48:31Z</time>
      </trkpt>
      <trkpt lat="43.81635" lon="5.26263">
        <ele>318.33</ele>
        <time>2019-01-25T14:48:38Z</time>
      </trkpt>
      <trkpt lat="43.81634" lon="5.26279">
        <ele>320.26</ele>
        <time>2019-01-25T14:48:47Z</time>
      </trkpt>
      <trkpt lat="43.81634" lon="5.2629">
        <ele>321.22</ele>
        <time>2019-01-25T14:48:53Z</time>
      </trkpt>
      <trkpt lat="43.81632" lon="5.26306">
        <ele>320.74</ele>
        <time>2019-01-25T14:49:01Z</time>
      </trkpt>
      <trkpt lat="43.8163" lon="5.26315">
        <ele>320.74</ele>
        <time>2019-01-25T14:49:07Z</time>
      </trkpt>
      <trkpt lat="43.81629" lon="5.26319">
        <ele>320.74</ele>
        <time>2019-01-25T14:49:09Z</time>
      </trkpt>
      <trkpt lat="43.81625" lon="5.26337">
        <ele>319.78</ele>
        <time>2019-01-25T14:49:20Z</time>
      </trkpt>
      <trkpt lat="43.81625" lon="5.26344">
        <ele>319.78</ele>
        <time>2019-01-25T14:49:26Z</time>
      </trkpt>
      <trkpt lat="43.81625" lon="5.26347">
        <ele>319.78</ele>
        <time>2019-01-25T14:49:28Z</time>
      </trkpt>
      <trkpt lat="43.81619" lon="5.26361">
        <ele>318.33</ele>
        <time>2019-01-25T14:49:38Z</time>
      </trkpt>
      <trkpt lat="43.81619" lon="5.26366">
        <ele>317.85</ele>
        <time>2019-01-25T14:49:42Z</time>
      </trkpt>
      <trkpt lat="43.8162" lon="5.26379">
        <ele>316.89</ele>
        <time>2019-01-25T14:49:51Z</time>
      </trkpt>
      <trkpt lat="43.8162" lon="5.2639">
        <ele>315.93</ele>
        <time>2019-01-25T14:49:57Z</time>
      </trkpt>
      <trkpt lat="43.81621" lon="5.26405">
        <ele>315.45</ele>
        <time>2019-01-25T14:50:04Z</time>
      </trkpt>
      <trkpt lat="43.81624" lon="5.26431">
        <ele>314.01</ele>
        <time>2019-01-25T14:50:17Z</time>
      </trkpt>
      <trkpt lat="43.8163" lon="5.26458">
        <ele>313.53</ele>
        <time>2019-01-25T14:50:34Z</time>
      </trkpt>
      <trkpt lat="43.81635" lon="5.26484">
        <ele>312.09</ele>
        <time>2019-01-25T14:50:48Z</time>
      </trkpt>
      <trkpt lat="43.81639" lon="5.26498">
        <ele>311.6</ele>
        <time>2019-01-25T14:50:59Z</time>
      </trkpt>
      <trkpt lat="43.81644" lon="5.26523">
        <ele>311.6</ele>
        <time>2019-01-25T14:51:13Z</time>
      </trkpt>
      <trkpt lat="43.81648" lon="5.26544">
        <ele>311.6</ele>
        <time>2019-01-25T14:51:24Z</time>
      </trkpt>
      <trkpt lat="43.81649" lon="5.26552">
        <ele>311.6</ele>
        <time>2019-01-25T14:51:29Z</time>
      </trkpt>
      <trkpt lat="43.81651" lon="5.26562">
        <ele>311.12</ele>
        <time>2019-01-25T14:51:35Z</time>
      </trkpt>
      <trkpt lat="43.81654" lon="5.26578">
        <ele>311.12</ele>
        <time>2019-01-25T14:51:47Z</time>
      </trkpt>
      <trkpt lat="43.81655" lon="5.26583">
        <ele>311.12</ele>
        <time>2019-01-25T14:51:50Z</time>
      </trkpt>
      <trkpt lat="43.81655" lon="5.26597">
        <ele>311.6</ele>
        <time>2019-01-25T14:52:00Z</time>
      </trkpt>
      <trkpt lat="43.81655" lon="5.26602">
        <ele>311.6</ele>
        <time>2019-01-25T14:52:03Z</time>
      </trkpt>
      <trkpt lat="43.81655" lon="5.26607">
        <ele>312.09</ele>
        <time>2019-01-25T14:52:07Z</time>
      </trkpt>
      <trkpt lat="43.81655" lon="5.26614">
        <ele>312.09</ele>
        <time>2019-01-25T14:52:11Z</time>
      </trkpt>
      <trkpt lat="43.81656" lon="5.26623">
        <ele>312.09</ele>
        <time>2019-01-25T14:52:16Z</time>
      </trkpt>
      <trkpt lat="43.81656" lon="5.26632">
        <ele>312.09</ele>
        <time>2019-01-25T14:52:21Z</time>
      </trkpt>
      <trkpt lat="43.81657" lon="5.26641">
        <ele>311.12</ele>
        <time>2019-01-25T14:52:25Z</time>
      </trkpt>
      <trkpt lat="43.81659" lon="5.26661">
        <ele>311.12</ele>
        <time>2019-01-25T14:52:39Z</time>
      </trkpt>
      <trkpt lat="43.8166" lon="5.26686">
        <ele>311.12</ele>
        <time>2019-01-25T14:52:54Z</time>
      </trkpt>
      <trkpt lat="43.8166" lon="5.26692">
        <ele>311.12</ele>
        <time>2019-01-25T14:52:58Z</time>
      </trkpt>
      <trkpt lat="43.81666" lon="5.26711">
        <ele>311.12</ele>
        <time>2019-01-25T14:53:12Z</time>
      </trkpt>
      <trkpt lat="43.81674" lon="5.2672">
        <ele>310.64</ele>
        <time>2019-01-25T14:53:27Z</time>
      </trkpt>
    </trkseg>
  </trk>
</gpx>